<?xml version='1.0' encoding='UTF-8'?><gpx version="1.1" creator="JPX - https://github.com/jenetics/jpx" xmlns="http://www.topografix.com/GPX/1/1"><trk><trkseg><trkpt lat="43.8506555" lon="11.1854724"><ele>77.0</ele><time>2026-03-23T15:47:10.318Z</time></trkpt><trkpt lat="43.8507082" lon="11.1855247"><ele>77.0</ele><time>2026-03-23T15:47:26.313Z</time></trkpt><trkpt lat="43.8507371" lon="11.1856117"><ele>77.0</ele><time>2026-03-23T15:47:28.316Z</time></trkpt><trkpt lat="43.8507827" lon="11.1857437"><ele>77.0</ele><time>2026-03-23T15:47:30.315Z</time></trkpt><trkpt lat="43.8508159" lon="11.1858204"><ele>77.0</ele><time>2026-03-23T15:47:31.318Z</time></trkpt><trkpt lat="43.850858" lon="11.1858979"><ele>77.0</ele><time>2026-03-23T15:47:32.316Z</time></trkpt><trkpt lat="43.8509028" lon="11.1859837"><ele>79.2</ele><time>2026-03-23T15:47:33.321Z</time></trkpt><trkpt lat="43.8509505" lon="11.186076"><ele>81.4</ele><time>2026-03-23T15:47:34.322Z</time></trkpt><trkpt lat="43.8510046" lon="11.1861775"><ele>83.60000000000001</ele><time>2026-03-23T15:47:35.322Z</time></trkpt><trkpt lat="43.8510533" lon="11.1862879"><ele>85.80000000000001</ele><time>2026-03-23T15:47:36.317Z</time></trkpt><trkpt lat="43.8511042" lon="11.1863943"><ele>88.0</ele><time>2026-03-23T15:47:37.32Z</time></trkpt><trkpt lat="43.8511563" lon="11.1865079"><ele>89.0</ele><time>2026-03-23T15:47:38.319Z</time></trkpt><trkpt lat="43.8512063" lon="11.1866228"><ele>90.0</ele><time>2026-03-23T15:47:39.319Z</time></trkpt><trkpt lat="43.8512582" lon="11.1867378"><ele>91.0</ele><time>2026-03-23T15:47:40.322Z</time></trkpt><trkpt lat="43.851305" lon="11.1868426"><ele>92.0</ele><time>2026-03-23T15:47:41.323Z</time></trkpt><trkpt lat="43.8513491" lon="11.1869522"><ele>93.0</ele><time>2026-03-23T15:47:42.323Z</time></trkpt><trkpt lat="43.851397" lon="11.1870563"><ele>93.0</ele><time>2026-03-23T15:47:43.331Z</time></trkpt><trkpt lat="43.8514459" lon="11.1871594"><ele>93.0</ele><time>2026-03-23T15:47:44.322Z</time></trkpt><trkpt lat="43.851495" lon="11.187269"><ele>93.0</ele><time>2026-03-23T15:47:45.319Z</time></trkpt><trkpt lat="43.8515404" lon="11.187371"><ele>93.0</ele><time>2026-03-23T15:47:46.315Z</time></trkpt><trkpt lat="43.8515891" lon="11.1874694"><ele>93.0</ele><time>2026-03-23T15:47:47.32Z</time></trkpt><trkpt lat="43.8516376" lon="11.1875648"><ele>93.0</ele><time>2026-03-23T15:47:48.319Z</time></trkpt><trkpt lat="43.8516799" lon="11.1876524"><ele>94.2</ele><time>2026-03-23T15:47:49.321Z</time></trkpt><trkpt lat="43.8516702" lon="11.1878088"><ele>95.4</ele><time>2026-03-23T15:47:51.322Z</time></trkpt><trkpt lat="43.8515592" lon="11.187874"><ele>96.60000000000001</ele><time>2026-03-23T15:47:53.318Z</time></trkpt><trkpt lat="43.8514949" lon="11.1878533"><ele>97.80000000000001</ele><time>2026-03-23T15:47:54.319Z</time></trkpt><trkpt lat="43.8514396" lon="11.1878059"><ele>99.0</ele><time>2026-03-23T15:47:55.321Z</time></trkpt><trkpt lat="43.8513412" lon="11.1876865"><ele>99.0</ele><time>2026-03-23T15:47:57.316Z</time></trkpt><trkpt lat="43.8512732" lon="11.1876326"><ele>99.0</ele><time>2026-03-23T15:47:58.329Z</time></trkpt><trkpt lat="43.8512103" lon="11.1875814"><ele>99.0</ele><time>2026-03-23T15:47:59.32Z</time></trkpt><trkpt lat="43.851121" lon="11.1875176"><ele>99.0</ele><time>2026-03-23T15:48:01.319Z</time></trkpt><trkpt lat="43.8510325" lon="11.1874535"><ele>99.0</ele><time>2026-03-23T15:48:03.322Z</time></trkpt><trkpt lat="43.8509534" lon="11.187375"><ele>99.0</ele><time>2026-03-23T15:48:05.325Z</time></trkpt><trkpt lat="43.850868" lon="11.1872853"><ele>99.83333333333333</ele><time>2026-03-23T15:48:07.317Z</time></trkpt><trkpt lat="43.8507901" lon="11.1872007"><ele>100.66666666666666</ele><time>2026-03-23T15:48:09.316Z</time></trkpt><trkpt lat="43.8507184" lon="11.1871092"><ele>101.5</ele><time>2026-03-23T15:48:11.322Z</time></trkpt><trkpt lat="43.8506472" lon="11.1870406"><ele>102.33333333333333</ele><time>2026-03-23T15:48:13.32Z</time></trkpt><trkpt lat="43.8505766" lon="11.1869608"><ele>103.16666666666666</ele><time>2026-03-23T15:48:15.322Z</time></trkpt><trkpt lat="43.8505189" lon="11.1869068"><ele>104.0</ele><time>2026-03-23T15:48:16.319Z</time></trkpt><trkpt lat="43.8504478" lon="11.1868589"><ele>104.0</ele><time>2026-03-23T15:48:17.322Z</time></trkpt><trkpt lat="43.8503634" lon="11.1868122"><ele>104.0</ele><time>2026-03-23T15:48:18.321Z</time></trkpt><trkpt lat="43.8502729" lon="11.1867835"><ele>104.0</ele><time>2026-03-23T15:48:19.324Z</time></trkpt><trkpt lat="43.8501866" lon="11.1867869"><ele>104.0</ele><time>2026-03-23T15:48:20.323Z</time></trkpt><trkpt lat="43.8500919" lon="11.1868053"><ele>104.0</ele><time>2026-03-23T15:48:21.328Z</time></trkpt><trkpt lat="43.8499711" lon="11.1868363"><ele>108.25</ele><time>2026-03-23T15:48:22.322Z</time></trkpt><trkpt lat="43.8498455" lon="11.1868866"><ele>112.5</ele><time>2026-03-23T15:48:23.321Z</time></trkpt><trkpt lat="43.8497399" lon="11.1869108"><ele>116.75</ele><time>2026-03-23T15:48:24.33Z</time></trkpt><trkpt lat="43.8496296" lon="11.1869535"><ele>121.0</ele><time>2026-03-23T15:48:25.32Z</time></trkpt><trkpt lat="43.8495366" lon="11.1870009"><ele>121.0</ele><time>2026-03-23T15:48:26.326Z</time></trkpt><trkpt lat="43.8494398" lon="11.1870624"><ele>121.0</ele><time>2026-03-23T15:48:27.321Z</time></trkpt><trkpt lat="43.8493471" lon="11.1871239"><ele>121.0</ele><time>2026-03-23T15:48:28.319Z</time></trkpt><trkpt lat="43.8492518" lon="11.1871943"><ele>121.0</ele><time>2026-03-23T15:48:29.323Z</time></trkpt><trkpt lat="43.8491604" lon="11.1872723"><ele>121.0</ele><time>2026-03-23T15:48:30.321Z</time></trkpt><trkpt lat="43.8490834" lon="11.187349"><ele>124.00000000000001</ele><time>2026-03-23T15:48:31.328Z</time></trkpt><trkpt lat="43.8490198" lon="11.1874278"><ele>127.0</ele><time>2026-03-23T15:48:32.322Z</time></trkpt><trkpt lat="43.848968" lon="11.1874782"><ele>130.0</ele><time>2026-03-23T15:48:33.327Z</time></trkpt><trkpt lat="43.8489394" lon="11.1875639"><ele>133.0</ele><time>2026-03-23T15:48:35.321Z</time></trkpt><trkpt lat="43.8490357" lon="11.1875044"><ele>136.0</ele><time>2026-03-23T15:48:38.316Z</time></trkpt><trkpt lat="43.8491171" lon="11.1874409"><ele>139.0</ele><time>2026-03-23T15:48:40.321Z</time></trkpt><trkpt lat="43.8492238" lon="11.1874822"><ele>139.0</ele><time>2026-03-23T15:48:42.32Z</time></trkpt><trkpt lat="43.8492895" lon="11.187507"><ele>139.0</ele><time>2026-03-23T15:48:43.319Z</time></trkpt><trkpt lat="43.8493524" lon="11.1875422"><ele>139.0</ele><time>2026-03-23T15:48:44.318Z</time></trkpt><trkpt lat="43.849465" lon="11.1876237"><ele>139.0</ele><time>2026-03-23T15:48:46.321Z</time></trkpt><trkpt lat="43.8495268" lon="11.1876664"><ele>139.0</ele><time>2026-03-23T15:48:47.325Z</time></trkpt><trkpt lat="43.8495911" lon="11.1877075"><ele>139.0</ele><time>2026-03-23T15:48:48.326Z</time></trkpt><trkpt lat="43.8496564" lon="11.1877533"><ele>139.0</ele><time>2026-03-23T15:48:49.323Z</time></trkpt><trkpt lat="43.8497114" lon="11.1878007"><ele>139.0</ele><time>2026-03-23T15:48:50.336Z</time></trkpt><trkpt lat="43.8497884" lon="11.1878724"><ele>139.0</ele><time>2026-03-23T15:48:52.324Z</time></trkpt><trkpt lat="43.8497553" lon="11.1880065"><ele>139.0</ele><time>2026-03-23T15:48:55.326Z</time></trkpt><trkpt lat="43.8497325" lon="11.1881209"><ele>139.0</ele><time>2026-03-23T15:48:56.32Z</time></trkpt><trkpt lat="43.8496798" lon="11.1882008"><ele>139.0</ele><time>2026-03-23T15:48:57.323Z</time></trkpt><trkpt lat="43.8496425" lon="11.1882973"><ele>142.2</ele><time>2026-03-23T15:48:58.323Z</time></trkpt><trkpt lat="43.8495871" lon="11.1884025"><ele>145.4</ele><time>2026-03-23T15:48:59.323Z</time></trkpt><trkpt lat="43.84952" lon="11.1884921"><ele>148.6</ele><time>2026-03-23T15:49:00.33Z</time></trkpt><trkpt lat="43.8494396" lon="11.1885767"><ele>151.8</ele><time>2026-03-23T15:49:01.322Z</time></trkpt><trkpt lat="43.849362" lon="11.1886616"><ele>155.0</ele><time>2026-03-23T15:49:02.321Z</time></trkpt><trkpt lat="43.8492916" lon="11.1887601"><ele>155.0</ele><time>2026-03-23T15:49:03.33Z</time></trkpt><trkpt lat="43.849217" lon="11.1888706"><ele>155.0</ele><time>2026-03-23T15:49:04.319Z</time></trkpt><trkpt lat="43.8491476" lon="11.1889826"><ele>155.0</ele><time>2026-03-23T15:49:05.322Z</time></trkpt><trkpt lat="43.8490763" lon="11.1890908"><ele>155.0</ele><time>2026-03-23T15:49:06.325Z</time></trkpt><trkpt lat="43.8490098" lon="11.1892235"><ele>155.0</ele><time>2026-03-23T15:49:07.327Z</time></trkpt><trkpt lat="43.8489404" lon="11.1893409"><ele>158.8</ele><time>2026-03-23T15:49:08.324Z</time></trkpt><trkpt lat="43.8488591" lon="11.1894563"><ele>162.6</ele><time>2026-03-23T15:49:09.33Z</time></trkpt><trkpt lat="43.8487913" lon="11.1895802"><ele>166.39999999999998</ele><time>2026-03-23T15:49:10.334Z</time></trkpt><trkpt lat="43.8487238" lon="11.1896873"><ele>170.2</ele><time>2026-03-23T15:49:11.335Z</time></trkpt><trkpt lat="43.8486627" lon="11.1897948"><ele>174.0</ele><time>2026-03-23T15:49:12.387Z</time></trkpt><trkpt lat="43.8486054" lon="11.1899202"><ele>177.0</ele><time>2026-03-23T15:49:13.334Z</time></trkpt><trkpt lat="43.8485695" lon="11.1900349"><ele>180.0</ele><time>2026-03-23T15:49:14.328Z</time></trkpt><trkpt lat="43.8485379" lon="11.1901449"><ele>183.0</ele><time>2026-03-23T15:49:15.336Z</time></trkpt><trkpt lat="43.8485207" lon="11.1902533"><ele>186.0</ele><time>2026-03-23T15:49:16.331Z</time></trkpt><trkpt lat="43.8485029" lon="11.1903701"><ele>189.0</ele><time>2026-03-23T15:49:17.401Z</time></trkpt><trkpt lat="43.8484898" lon="11.1904827"><ele>192.0</ele><time>2026-03-23T15:49:18.389Z</time></trkpt><trkpt lat="43.8484749" lon="11.1906057"><ele>191.16666666666666</ele><time>2026-03-23T15:49:19.328Z</time></trkpt><trkpt lat="43.8484552" lon="11.1907269"><ele>190.33333333333334</ele><time>2026-03-23T15:49:20.4Z</time></trkpt><trkpt lat="43.848432" lon="11.1908426"><ele>189.5</ele><time>2026-03-23T15:49:21.389Z</time></trkpt><trkpt lat="43.8484213" lon="11.1909492"><ele>188.66666666666669</ele><time>2026-03-23T15:49:22.329Z</time></trkpt><trkpt lat="43.8484069" lon="11.1910355"><ele>187.83333333333334</ele><time>2026-03-23T15:49:23.333Z</time></trkpt><trkpt lat="43.8483839" lon="11.1912015"><ele>187.0</ele><time>2026-03-23T15:49:25.331Z</time></trkpt><trkpt lat="43.8483703" lon="11.1913026"><ele>187.0</ele><time>2026-03-23T15:49:26.33Z</time></trkpt><trkpt lat="43.8483576" lon="11.19141"><ele>187.0</ele><time>2026-03-23T15:49:27.335Z</time></trkpt><trkpt lat="43.8483447" lon="11.1915102"><ele>187.0</ele><time>2026-03-23T15:49:28.317Z</time></trkpt><trkpt lat="43.8483314" lon="11.1916108"><ele>187.0</ele><time>2026-03-23T15:49:29.323Z</time></trkpt><trkpt lat="43.8483209" lon="11.19171"><ele>187.0</ele><time>2026-03-23T15:49:30.328Z</time></trkpt><trkpt lat="43.848313" lon="11.1918067"><ele>187.0</ele><time>2026-03-23T15:49:31.319Z</time></trkpt><trkpt lat="43.8483072" lon="11.1919085"><ele>187.0</ele><time>2026-03-23T15:49:32.328Z</time></trkpt><trkpt lat="43.8483026" lon="11.192007"><ele>186.0</ele><time>2026-03-23T15:49:33.333Z</time></trkpt><trkpt lat="43.8483099" lon="11.1921069"><ele>185.0</ele><time>2026-03-23T15:49:34.33Z</time></trkpt><trkpt lat="43.848324" lon="11.1922147"><ele>184.0</ele><time>2026-03-23T15:49:35.333Z</time></trkpt><trkpt lat="43.8483439" lon="11.1923301"><ele>183.0</ele><time>2026-03-23T15:49:36.321Z</time></trkpt><trkpt lat="43.8483731" lon="11.1924468"><ele>182.0</ele><time>2026-03-23T15:49:37.385Z</time></trkpt><trkpt lat="43.8483972" lon="11.1925564"><ele>181.0</ele><time>2026-03-23T15:49:38.387Z</time></trkpt><trkpt lat="43.8484211" lon="11.1926646"><ele>182.16666666666669</ele><time>2026-03-23T15:49:39.328Z</time></trkpt><trkpt lat="43.8484481" lon="11.1927762"><ele>183.33333333333334</ele><time>2026-03-23T15:49:40.336Z</time></trkpt><trkpt lat="43.8484737" lon="11.1928891"><ele>184.5</ele><time>2026-03-23T15:49:41.342Z</time></trkpt><trkpt lat="43.8484946" lon="11.1929927"><ele>185.66666666666666</ele><time>2026-03-23T15:49:42.386Z</time></trkpt><trkpt lat="43.8485139" lon="11.1930986"><ele>186.83333333333331</ele><time>2026-03-23T15:49:43.335Z</time></trkpt><trkpt lat="43.8485384" lon="11.193202"><ele>188.0</ele><time>2026-03-23T15:49:44.333Z</time></trkpt><trkpt lat="43.8485488" lon="11.1933367"><ele>188.0</ele><time>2026-03-23T15:49:46.42Z</time></trkpt><trkpt lat="43.8484678" lon="11.1934206"><ele>188.0</ele><time>2026-03-23T15:49:49.335Z</time></trkpt><trkpt lat="43.8483607" lon="11.1934991"><ele>188.0</ele><time>2026-03-23T15:49:51.36Z</time></trkpt><trkpt lat="43.8482479" lon="11.193588"><ele>188.0</ele><time>2026-03-23T15:49:53.337Z</time></trkpt><trkpt lat="43.8481883" lon="11.1936342"><ele>188.0</ele><time>2026-03-23T15:49:54.33Z</time></trkpt><trkpt lat="43.8481284" lon="11.1936785"><ele>185.28571428571428</ele><time>2026-03-23T15:49:55.33Z</time></trkpt><trkpt lat="43.8480668" lon="11.1937205"><ele>182.57142857142856</ele><time>2026-03-23T15:49:56.33Z</time></trkpt><trkpt lat="43.8480088" lon="11.1937556"><ele>179.85714285714286</ele><time>2026-03-23T15:49:57.326Z</time></trkpt><trkpt lat="43.8479514" lon="11.1937977"><ele>177.14285714285714</ele><time>2026-03-23T15:49:58.323Z</time></trkpt><trkpt lat="43.847892" lon="11.1938484"><ele>174.42857142857142</ele><time>2026-03-23T15:49:59.329Z</time></trkpt><trkpt lat="43.8478306" lon="11.1938941"><ele>171.71428571428572</ele><time>2026-03-23T15:50:00.331Z</time></trkpt><trkpt lat="43.8477708" lon="11.193944"><ele>169.0</ele><time>2026-03-23T15:50:01.331Z</time></trkpt><trkpt lat="43.8477061" lon="11.1939887"><ele>170.33333333333334</ele><time>2026-03-23T15:50:02.332Z</time></trkpt><trkpt lat="43.847643" lon="11.1940371"><ele>171.66666666666669</ele><time>2026-03-23T15:50:03.335Z</time></trkpt><trkpt lat="43.8475799" lon="11.1940922"><ele>173.0</ele><time>2026-03-23T15:50:04.336Z</time></trkpt><trkpt lat="43.8475199" lon="11.1941531"><ele>174.33333333333334</ele><time>2026-03-23T15:50:05.327Z</time></trkpt><trkpt lat="43.8474488" lon="11.1942323"><ele>175.66666666666666</ele><time>2026-03-23T15:50:06.341Z</time></trkpt><trkpt lat="43.8473822" lon="11.1943068"><ele>177.0</ele><time>2026-03-23T15:50:07.319Z</time></trkpt><trkpt lat="43.8473091" lon="11.1943785"><ele>173.16666666666666</ele><time>2026-03-23T15:50:08.332Z</time></trkpt><trkpt lat="43.8472344" lon="11.1944495"><ele>169.33333333333334</ele><time>2026-03-23T15:50:09.337Z</time></trkpt><trkpt lat="43.8471598" lon="11.1945052"><ele>165.5</ele><time>2026-03-23T15:50:10.33Z</time></trkpt><trkpt lat="43.8470812" lon="11.1945773"><ele>161.66666666666669</ele><time>2026-03-23T15:50:11.333Z</time></trkpt><trkpt lat="43.8470051" lon="11.1946421"><ele>157.83333333333334</ele><time>2026-03-23T15:50:12.333Z</time></trkpt><trkpt lat="43.8469285" lon="11.1947059"><ele>154.0</ele><time>2026-03-23T15:50:13.329Z</time></trkpt><trkpt lat="43.8468545" lon="11.1947719"><ele>151.0</ele><time>2026-03-23T15:50:14.33Z</time></trkpt><trkpt lat="43.8467824" lon="11.1948323"><ele>148.0</ele><time>2026-03-23T15:50:15.318Z</time></trkpt><trkpt lat="43.8467184" lon="11.1948918"><ele>145.0</ele><time>2026-03-23T15:50:16.332Z</time></trkpt><trkpt lat="43.8466596" lon="11.1949446"><ele>142.0</ele><time>2026-03-23T15:50:17.335Z</time></trkpt><trkpt lat="43.8466085" lon="11.1949973"><ele>139.0</ele><time>2026-03-23T15:50:18.339Z</time></trkpt><trkpt lat="43.8465873" lon="11.1951428"><ele>136.0</ele><time>2026-03-23T15:50:20.33Z</time></trkpt><trkpt lat="43.846625" lon="11.1952144"><ele>136.0</ele><time>2026-03-23T15:50:21.32Z</time></trkpt><trkpt lat="43.8466755" lon="11.1952669"><ele>136.0</ele><time>2026-03-23T15:50:22.319Z</time></trkpt><trkpt lat="43.8467704" lon="11.1953891"><ele>136.0</ele><time>2026-03-23T15:50:24.334Z</time></trkpt><trkpt lat="43.8468178" lon="11.1954571"><ele>136.0</ele><time>2026-03-23T15:50:25.337Z</time></trkpt><trkpt lat="43.8468687" lon="11.1955323"><ele>136.0</ele><time>2026-03-23T15:50:26.32Z</time></trkpt><trkpt lat="43.8469206" lon="11.1956087"><ele>136.0</ele><time>2026-03-23T15:50:27.33Z</time></trkpt><trkpt lat="43.8469704" lon="11.1956807"><ele>137.66666666666669</ele><time>2026-03-23T15:50:28.332Z</time></trkpt><trkpt lat="43.8470279" lon="11.1958073"><ele>139.33333333333334</ele><time>2026-03-23T15:50:30.33Z</time></trkpt><trkpt lat="43.8470046" lon="11.1959216"><ele>141.0</ele><time>2026-03-23T15:50:32.332Z</time></trkpt><trkpt lat="43.8469289" lon="11.1960287"><ele>142.66666666666666</ele><time>2026-03-23T15:50:34.328Z</time></trkpt><trkpt lat="43.8468877" lon="11.1961007"><ele>144.33333333333331</ele><time>2026-03-23T15:50:35.331Z</time></trkpt><trkpt lat="43.846843" lon="11.1961796"><ele>146.0</ele><time>2026-03-23T15:50:36.327Z</time></trkpt><trkpt lat="43.8467976" lon="11.1962508"><ele>141.6</ele><time>2026-03-23T15:50:37.333Z</time></trkpt><trkpt lat="43.8467531" lon="11.1963284"><ele>137.2</ele><time>2026-03-23T15:50:38.323Z</time></trkpt><trkpt lat="43.8467107" lon="11.1964033"><ele>132.8</ele><time>2026-03-23T15:50:39.327Z</time></trkpt><trkpt lat="43.8466427" lon="11.1965507"><ele>128.4</ele><time>2026-03-23T15:50:41.332Z</time></trkpt><trkpt lat="43.8466127" lon="11.1966281"><ele>124.0</ele><time>2026-03-23T15:50:42.33Z</time></trkpt><trkpt lat="43.8465613" lon="11.1967804"><ele>124.0</ele><time>2026-03-23T15:50:44.33Z</time></trkpt><trkpt lat="43.8465241" lon="11.1969363"><ele>124.0</ele><time>2026-03-23T15:50:46.332Z</time></trkpt><trkpt lat="43.8465079" lon="11.1970919"><ele>124.0</ele><time>2026-03-23T15:50:48.328Z</time></trkpt><trkpt lat="43.846507" lon="11.1972448"><ele>124.0</ele><time>2026-03-23T15:50:50.33Z</time></trkpt><trkpt lat="43.8464988" lon="11.1974187"><ele>123.6</ele><time>2026-03-23T15:50:52.323Z</time></trkpt><trkpt lat="43.8464738" lon="11.1975617"><ele>123.2</ele><time>2026-03-23T15:50:54.33Z</time></trkpt><trkpt lat="43.8464203" lon="11.1976802"><ele>122.79999999999998</ele><time>2026-03-23T15:50:56.334Z</time></trkpt><trkpt lat="43.8463428" lon="11.1977934"><ele>122.39999999999999</ele><time>2026-03-23T15:50:58.327Z</time></trkpt><trkpt lat="43.8462757" lon="11.1978983"><ele>122.0</ele><time>2026-03-23T15:51:00.331Z</time></trkpt><trkpt lat="43.8462319" lon="11.1980073"><ele>122.0</ele><time>2026-03-23T15:51:02.329Z</time></trkpt><trkpt lat="43.8462282" lon="11.1981416"><ele>121.99999999999999</ele><time>2026-03-23T15:51:04.327Z</time></trkpt><trkpt lat="43.8462415" lon="11.198314"><ele>121.99999999999999</ele><time>2026-03-23T15:51:06.319Z</time></trkpt><trkpt lat="43.8462617" lon="11.1984065"><ele>122.0</ele><time>2026-03-23T15:51:07.332Z</time></trkpt><trkpt lat="43.8463039" lon="11.198567"><ele>122.0</ele><time>2026-03-23T15:51:09.337Z</time></trkpt><trkpt lat="43.8463198" lon="11.1987178"><ele>119.8</ele><time>2026-03-23T15:51:11.32Z</time></trkpt><trkpt lat="43.8462913" lon="11.1988744"><ele>117.6</ele><time>2026-03-23T15:51:13.329Z</time></trkpt><trkpt lat="43.8462616" lon="11.1990152"><ele>115.39999999999999</ele><time>2026-03-23T15:51:15.335Z</time></trkpt><trkpt lat="43.8462242" lon="11.1991167"><ele>113.19999999999999</ele><time>2026-03-23T15:51:17.322Z</time></trkpt><trkpt lat="43.8462092" lon="11.1992609"><ele>111.0</ele><time>2026-03-23T15:51:19.332Z</time></trkpt><trkpt lat="43.8461939" lon="11.1993584"><ele>109.5</ele><time>2026-03-23T15:51:20.328Z</time></trkpt><trkpt lat="43.8461776" lon="11.1994601"><ele>108.0</ele><time>2026-03-23T15:51:21.326Z</time></trkpt><trkpt lat="43.8461649" lon="11.1995676"><ele>106.5</ele><time>2026-03-23T15:51:22.332Z</time></trkpt><trkpt lat="43.8461504" lon="11.1996849"><ele>105.0</ele><time>2026-03-23T15:51:23.327Z</time></trkpt><trkpt lat="43.8461433" lon="11.1997945"><ele>103.5</ele><time>2026-03-23T15:51:24.33Z</time></trkpt><trkpt lat="43.8461384" lon="11.1998949"><ele>102.0</ele><time>2026-03-23T15:51:25.335Z</time></trkpt><trkpt lat="43.8461424" lon="11.199996"><ele>101.8</ele><time>2026-03-23T15:51:26.326Z</time></trkpt><trkpt lat="43.8461582" lon="11.2001584"><ele>101.6</ele><time>2026-03-23T15:51:28.332Z</time></trkpt><trkpt lat="43.8461995" lon="11.2002776"><ele>101.39999999999999</ele><time>2026-03-23T15:51:30.327Z</time></trkpt><trkpt lat="43.8462462" lon="11.2004027"><ele>101.19999999999999</ele><time>2026-03-23T15:51:32.338Z</time></trkpt><trkpt lat="43.8462729" lon="11.2005536"><ele>101.0</ele><time>2026-03-23T15:51:34.317Z</time></trkpt><trkpt lat="43.8462637" lon="11.2006411"><ele>100.99999999999999</ele><time>2026-03-23T15:51:35.329Z</time></trkpt><trkpt lat="43.8462377" lon="11.2007411"><ele>101.0</ele><time>2026-03-23T15:51:36.328Z</time></trkpt><trkpt lat="43.846212" lon="11.2008412"><ele>101.0</ele><time>2026-03-23T15:51:37.329Z</time></trkpt><trkpt lat="43.8461867" lon="11.2009499"><ele>101.0</ele><time>2026-03-23T15:51:38.323Z</time></trkpt><trkpt lat="43.8461498" lon="11.2010602"><ele>100.99999999999999</ele><time>2026-03-23T15:51:39.332Z</time></trkpt><trkpt lat="43.8461114" lon="11.2011814"><ele>101.0</ele><time>2026-03-23T15:51:40.332Z</time></trkpt><trkpt lat="43.8460792" lon="11.2012999"><ele>101.0</ele><time>2026-03-23T15:51:41.328Z</time></trkpt><trkpt lat="43.8460562" lon="11.2014287"><ele>101.0</ele><time>2026-03-23T15:51:42.332Z</time></trkpt><trkpt lat="43.8460492" lon="11.201558"><ele>101.0</ele><time>2026-03-23T15:51:43.333Z</time></trkpt><trkpt lat="43.8460394" lon="11.201689"><ele>101.0</ele><time>2026-03-23T15:51:44.331Z</time></trkpt><trkpt lat="43.846036" lon="11.2018274"><ele>101.0</ele><time>2026-03-23T15:51:45.33Z</time></trkpt><trkpt lat="43.8460443" lon="11.2019522"><ele>101.33333333333333</ele><time>2026-03-23T15:51:46.331Z</time></trkpt><trkpt lat="43.8460491" lon="11.2020533"><ele>101.66666666666666</ele><time>2026-03-23T15:51:47.323Z</time></trkpt><trkpt lat="43.8460057" lon="11.2021829"><ele>102.0</ele><time>2026-03-23T15:51:49.331Z</time></trkpt><trkpt lat="43.845963" lon="11.2022556"><ele>102.33333333333334</ele><time>2026-03-23T15:51:50.332Z</time></trkpt><trkpt lat="43.8459199" lon="11.2023558"><ele>102.66666666666667</ele><time>2026-03-23T15:51:51.332Z</time></trkpt><trkpt lat="43.8458812" lon="11.2024367"><ele>103.0</ele><time>2026-03-23T15:51:52.331Z</time></trkpt><trkpt lat="43.845835" lon="11.2025128"><ele>103.0</ele><time>2026-03-23T15:51:53.331Z</time></trkpt><trkpt lat="43.8457738" lon="11.2025741"><ele>103.0</ele><time>2026-03-23T15:51:54.33Z</time></trkpt><trkpt lat="43.8456969" lon="11.2026243"><ele>103.0</ele><time>2026-03-23T15:51:55.333Z</time></trkpt><trkpt lat="43.8456185" lon="11.2026829"><ele>103.0</ele><time>2026-03-23T15:51:56.335Z</time></trkpt><trkpt lat="43.8455342" lon="11.2027692"><ele>103.0</ele><time>2026-03-23T15:51:57.324Z</time></trkpt><trkpt lat="43.8454538" lon="11.2028525"><ele>103.00000000000001</ele><time>2026-03-23T15:51:58.327Z</time></trkpt><trkpt lat="43.8453793" lon="11.2029212"><ele>103.0</ele><time>2026-03-23T15:51:59.322Z</time></trkpt><trkpt lat="43.845317" lon="11.2029908"><ele>103.0</ele><time>2026-03-23T15:52:00.329Z</time></trkpt><trkpt lat="43.8452698" lon="11.2030561"><ele>103.0</ele><time>2026-03-23T15:52:01.325Z</time></trkpt><trkpt lat="43.8452317" lon="11.2031421"><ele>103.00000000000001</ele><time>2026-03-23T15:52:02.33Z</time></trkpt><trkpt lat="43.845206" lon="11.2033149"><ele>103.0</ele><time>2026-03-23T15:52:04.323Z</time></trkpt><trkpt lat="43.8452091" lon="11.2034228"><ele>104.00000000000001</ele><time>2026-03-23T15:52:05.331Z</time></trkpt><trkpt lat="43.8452195" lon="11.203524"><ele>105.0</ele><time>2026-03-23T15:52:06.324Z</time></trkpt><trkpt lat="43.84523" lon="11.2036171"><ele>106.0</ele><time>2026-03-23T15:52:07.331Z</time></trkpt><trkpt lat="43.8452546" lon="11.2037164"><ele>107.0</ele><time>2026-03-23T15:52:09.327Z</time></trkpt><trkpt lat="43.8453386" lon="11.2037513"><ele>108.00000000000001</ele><time>2026-03-23T15:52:13.323Z</time></trkpt><trkpt lat="43.8454374" lon="11.2037512"><ele>109.0</ele><time>2026-03-23T15:52:15.322Z</time></trkpt><trkpt lat="43.8455277" lon="11.2037317"><ele>109.0</ele><time>2026-03-23T15:52:17.329Z</time></trkpt><trkpt lat="43.8456384" lon="11.2036992"><ele>109.0</ele><time>2026-03-23T15:52:19.323Z</time></trkpt><trkpt lat="43.8457213" lon="11.2037257"><ele>109.0</ele><time>2026-03-23T15:52:21.336Z</time></trkpt><trkpt lat="43.8458213" lon="11.2037854"><ele>109.0</ele><time>2026-03-23T15:52:23.332Z</time></trkpt><trkpt lat="43.8459241" lon="11.203748"><ele>109.0</ele><time>2026-03-23T15:52:25.331Z</time></trkpt><trkpt lat="43.8459864" lon="11.2037258"><ele>110.50000000000001</ele><time>2026-03-23T15:52:27.325Z</time></trkpt><trkpt lat="43.8461066" lon="11.203742"><ele>112.0</ele><time>2026-03-23T15:52:29.328Z</time></trkpt><trkpt lat="43.8461806" lon="11.2037696"><ele>113.5</ele><time>2026-03-23T15:52:30.336Z</time></trkpt><trkpt lat="43.8462594" lon="11.2037909"><ele>115.0</ele><time>2026-03-23T15:52:31.334Z</time></trkpt><trkpt lat="43.8463414" lon="11.203813"><ele>116.50000000000001</ele><time>2026-03-23T15:52:32.33Z</time></trkpt><trkpt lat="43.8464256" lon="11.2038295"><ele>118.0</ele><time>2026-03-23T15:52:33.329Z</time></trkpt><trkpt lat="43.8465034" lon="11.2038414"><ele>118.0</ele><time>2026-03-23T15:52:34.333Z</time></trkpt><trkpt lat="43.8465838" lon="11.2038544"><ele>118.00000000000001</ele><time>2026-03-23T15:52:35.327Z</time></trkpt><trkpt lat="43.8466677" lon="11.2038698"><ele>118.00000000000001</ele><time>2026-03-23T15:52:36.323Z</time></trkpt><trkpt lat="43.8467525" lon="11.2038807"><ele>118.0</ele><time>2026-03-23T15:52:37.33Z</time></trkpt><trkpt lat="43.846915" lon="11.2039172"><ele>118.0</ele><time>2026-03-23T15:52:39.326Z</time></trkpt><trkpt lat="43.8469989" lon="11.2039506"><ele>120.00000000000001</ele><time>2026-03-23T15:52:40.323Z</time></trkpt><trkpt lat="43.8470759" lon="11.2039881"><ele>122.0</ele><time>2026-03-23T15:52:41.33Z</time></trkpt><trkpt lat="43.8471543" lon="11.2040207"><ele>124.0</ele><time>2026-03-23T15:52:42.33Z</time></trkpt><trkpt lat="43.8472381" lon="11.2040569"><ele>126.0</ele><time>2026-03-23T15:52:43.334Z</time></trkpt><trkpt lat="43.8473183" lon="11.2040765"><ele>128.0</ele><time>2026-03-23T15:52:44.332Z</time></trkpt><trkpt lat="43.8473853" lon="11.204091"><ele>130.0</ele><time>2026-03-23T15:52:45.334Z</time></trkpt><trkpt lat="43.8474542" lon="11.2040839"><ele>130.16666666666669</ele><time>2026-03-23T15:52:46.331Z</time></trkpt><trkpt lat="43.8475192" lon="11.2040646"><ele>130.33333333333334</ele><time>2026-03-23T15:52:47.332Z</time></trkpt><trkpt lat="43.8475886" lon="11.2040403"><ele>130.5</ele><time>2026-03-23T15:52:48.337Z</time></trkpt><trkpt lat="43.8476562" lon="11.2040191"><ele>130.66666666666666</ele><time>2026-03-23T15:52:49.331Z</time></trkpt><trkpt lat="43.84776" lon="11.2039871"><ele>130.83333333333331</ele><time>2026-03-23T15:52:51.326Z</time></trkpt><trkpt lat="43.8477948" lon="11.2040721"><ele>131.0</ele><time>2026-03-23T15:52:55.235Z</time></trkpt><trkpt lat="43.8477517" lon="11.2041816"><ele>131.0</ele><time>2026-03-23T15:52:57.054Z</time></trkpt><trkpt lat="43.8477144" lon="11.2042569"><ele>131.0</ele><time>2026-03-23T15:52:58.054Z</time></trkpt><trkpt lat="43.8476704" lon="11.2043432"><ele>131.0</ele><time>2026-03-23T15:52:59.089Z</time></trkpt><trkpt lat="43.8476316" lon="11.2044294"><ele>131.0</ele><time>2026-03-23T15:53:00.051Z</time></trkpt><trkpt lat="43.8475995" lon="11.2045254"><ele>131.0</ele><time>2026-03-23T15:53:01.054Z</time></trkpt><trkpt lat="43.8475635" lon="11.2046226"><ele>131.0</ele><time>2026-03-23T15:53:02.059Z</time></trkpt><trkpt lat="43.847526" lon="11.204708"><ele>131.0</ele><time>2026-03-23T15:53:03.055Z</time></trkpt><trkpt lat="43.8474926" lon="11.2047869"><ele>131.4</ele><time>2026-03-23T15:53:04.054Z</time></trkpt><trkpt lat="43.8474307" lon="11.2049306"><ele>131.8</ele><time>2026-03-23T15:53:06.05Z</time></trkpt><trkpt lat="43.8473627" lon="11.205065"><ele>132.20000000000002</ele><time>2026-03-23T15:53:08.061Z</time></trkpt><trkpt lat="43.8473135" lon="11.2051978"><ele>132.6</ele><time>2026-03-23T15:53:10.052Z</time></trkpt><trkpt lat="43.8472786" lon="11.2053178"><ele>133.0</ele><time>2026-03-23T15:53:12.036Z</time></trkpt><trkpt lat="43.8472509" lon="11.2054202"><ele>133.0</ele><time>2026-03-23T15:53:13.96Z</time></trkpt><trkpt lat="43.847231" lon="11.2055383"><ele>133.0</ele><time>2026-03-23T15:53:17.026Z</time></trkpt><trkpt lat="43.8471753" lon="11.20563"><ele>133.0</ele><time>2026-03-23T15:53:20.004Z</time></trkpt><trkpt lat="43.8471201" lon="11.205688"><ele>133.0</ele><time>2026-03-23T15:53:21.968Z</time></trkpt><trkpt lat="43.8470234" lon="11.2057596"><ele>133.0</ele><time>2026-03-23T15:53:23.969Z</time></trkpt><trkpt lat="43.8469206" lon="11.20587"><ele>132.71428571428572</ele><time>2026-03-23T15:53:25.966Z</time></trkpt><trkpt lat="43.8468644" lon="11.2059287"><ele>132.42857142857144</ele><time>2026-03-23T15:53:26.967Z</time></trkpt><trkpt lat="43.8468048" lon="11.2059873"><ele>132.14285714285714</ele><time>2026-03-23T15:53:27.969Z</time></trkpt><trkpt lat="43.8467458" lon="11.2060502"><ele>131.85714285714286</ele><time>2026-03-23T15:53:28.965Z</time></trkpt><trkpt lat="43.8466894" lon="11.206116"><ele>131.57142857142858</ele><time>2026-03-23T15:53:29.965Z</time></trkpt><trkpt lat="43.8466361" lon="11.2061798"><ele>131.28571428571428</ele><time>2026-03-23T15:53:30.966Z</time></trkpt><trkpt lat="43.8465768" lon="11.2062408"><ele>131.0</ele><time>2026-03-23T15:53:31.96Z</time></trkpt><trkpt lat="43.8465141" lon="11.2063079"><ele>130.5</ele><time>2026-03-23T15:53:33.034Z</time></trkpt><trkpt lat="43.8464539" lon="11.2063693"><ele>130.0</ele><time>2026-03-23T15:53:33.964Z</time></trkpt><trkpt lat="43.8463976" lon="11.2064341"><ele>129.5</ele><time>2026-03-23T15:53:34.959Z</time></trkpt><trkpt lat="43.8463408" lon="11.2064884"><ele>129.0</ele><time>2026-03-23T15:53:35.984Z</time></trkpt><trkpt lat="43.8462867" lon="11.2065393"><ele>128.5</ele><time>2026-03-23T15:53:37.035Z</time></trkpt><trkpt lat="43.8462318" lon="11.2065896"><ele>128.0</ele><time>2026-03-23T15:53:38.03Z</time></trkpt><trkpt lat="43.8461439" lon="11.2066753"><ele>128.0</ele><time>2026-03-23T15:53:39.952Z</time></trkpt><trkpt lat="43.8460891" lon="11.20678"><ele>128.0</ele><time>2026-03-23T15:53:41.951Z</time></trkpt><trkpt lat="43.8460592" lon="11.2069049"><ele>128.0</ele><time>2026-03-23T15:53:43.961Z</time></trkpt><trkpt lat="43.8460271" lon="11.2070335"><ele>128.0</ele><time>2026-03-23T15:53:46.039Z</time></trkpt><trkpt lat="43.8459885" lon="11.2071565"><ele>128.0</ele><time>2026-03-23T15:53:47.942Z</time></trkpt><trkpt lat="43.8459617" lon="11.2072776"><ele>127.99999999999999</ele><time>2026-03-23T15:53:49.952Z</time></trkpt><trkpt lat="43.8459369" lon="11.2073728"><ele>128.0</ele><time>2026-03-23T15:53:52.045Z</time></trkpt><trkpt lat="43.8459111" lon="11.2074914"><ele>128.0</ele><time>2026-03-23T15:53:53.985Z</time></trkpt><trkpt lat="43.8458862" lon="11.2076118"><ele>128.0</ele><time>2026-03-23T15:53:55.959Z</time></trkpt><trkpt lat="43.8458713" lon="11.2077161"><ele>127.99999999999999</ele><time>2026-03-23T15:53:57.959Z</time></trkpt><trkpt lat="43.8458603" lon="11.207807"><ele>128.0</ele><time>2026-03-23T15:53:59.955Z</time></trkpt><trkpt lat="43.8458557" lon="11.2079233"><ele>128.0</ele><time>2026-03-23T15:54:02.956Z</time></trkpt><trkpt lat="43.8458931" lon="11.207996"><ele>127.99999999999999</ele><time>2026-03-23T15:54:06.958Z</time></trkpt><trkpt lat="43.8459411" lon="11.2079323"><ele>128.0</ele><time>2026-03-23T15:54:11.951Z</time></trkpt><trkpt lat="43.8459616" lon="11.2078493"><ele>128.0</ele><time>2026-03-23T15:54:13.959Z</time></trkpt><trkpt lat="43.846011" lon="11.2077703"><ele>127.99999999999999</ele><time>2026-03-23T15:54:15.96Z</time></trkpt><trkpt lat="43.846101" lon="11.2077519"><ele>128.0</ele><time>2026-03-23T15:54:17.956Z</time></trkpt><trkpt lat="43.846182" lon="11.2077906"><ele>128.0</ele><time>2026-03-23T15:54:19.962Z</time></trkpt><trkpt lat="43.8462856" lon="11.2078547"><ele>131.5</ele><time>2026-03-23T15:54:21.959Z</time></trkpt><trkpt lat="43.8463882" lon="11.2079156"><ele>135.0</ele><time>2026-03-23T15:54:23.956Z</time></trkpt><trkpt lat="43.8464947" lon="11.2079715"><ele>138.5</ele><time>2026-03-23T15:54:25.955Z</time></trkpt><trkpt lat="43.8465989" lon="11.2080254"><ele>142.0</ele><time>2026-03-23T15:54:27.958Z</time></trkpt><trkpt lat="43.8467096" lon="11.208087"><ele>142.0</ele><time>2026-03-23T15:54:29.959Z</time></trkpt><trkpt lat="43.8467688" lon="11.2081246"><ele>142.0</ele><time>2026-03-23T15:54:30.961Z</time></trkpt><trkpt lat="43.8468303" lon="11.2081597"><ele>142.0</ele><time>2026-03-23T15:54:31.96Z</time></trkpt><trkpt lat="43.8469365" lon="11.208226"><ele>142.0</ele><time>2026-03-23T15:54:33.958Z</time></trkpt><trkpt lat="43.8469962" lon="11.2082675"><ele>142.0</ele><time>2026-03-23T15:54:34.955Z</time></trkpt><trkpt lat="43.8470785" lon="11.2083081"><ele>142.0</ele><time>2026-03-23T15:54:35.956Z</time></trkpt><trkpt lat="43.8471999" lon="11.2083175"><ele>145.4</ele><time>2026-03-23T15:54:36.956Z</time></trkpt><trkpt lat="43.8473075" lon="11.2083111"><ele>148.79999999999998</ele><time>2026-03-23T15:54:37.942Z</time></trkpt><trkpt lat="43.8474107" lon="11.2083009"><ele>152.2</ele><time>2026-03-23T15:54:38.955Z</time></trkpt><trkpt lat="43.8475104" lon="11.2082916"><ele>155.6</ele><time>2026-03-23T15:54:39.96Z</time></trkpt><trkpt lat="43.8476223" lon="11.2082746"><ele>159.0</ele><time>2026-03-23T15:54:40.953Z</time></trkpt><trkpt lat="43.847736" lon="11.2082611"><ele>161.2</ele><time>2026-03-23T15:54:41.953Z</time></trkpt><trkpt lat="43.8478549" lon="11.2082435"><ele>163.4</ele><time>2026-03-23T15:54:42.954Z</time></trkpt><trkpt lat="43.8479666" lon="11.2082285"><ele>165.6</ele><time>2026-03-23T15:54:43.957Z</time></trkpt><trkpt lat="43.8480744" lon="11.2082145"><ele>167.8</ele><time>2026-03-23T15:54:45.037Z</time></trkpt><trkpt lat="43.8481753" lon="11.2081988"><ele>170.0</ele><time>2026-03-23T15:54:46.037Z</time></trkpt><trkpt lat="43.8482712" lon="11.2081891"><ele>170.0</ele><time>2026-03-23T15:54:47.042Z</time></trkpt><trkpt lat="43.848369" lon="11.2081764"><ele>170.0</ele><time>2026-03-23T15:54:47.947Z</time></trkpt><trkpt lat="43.8484642" lon="11.2081656"><ele>170.0</ele><time>2026-03-23T15:54:48.953Z</time></trkpt><trkpt lat="43.8485596" lon="11.2081544"><ele>170.0</ele><time>2026-03-23T15:54:49.955Z</time></trkpt><trkpt lat="43.8486524" lon="11.2081429"><ele>170.0</ele><time>2026-03-23T15:54:50.953Z</time></trkpt><trkpt lat="43.8487477" lon="11.2081337"><ele>171.2</ele><time>2026-03-23T15:54:52.067Z</time></trkpt><trkpt lat="43.8488406" lon="11.2081297"><ele>172.4</ele><time>2026-03-23T15:54:53.032Z</time></trkpt><trkpt lat="43.8489322" lon="11.2081228"><ele>173.60000000000002</ele><time>2026-03-23T15:54:53.965Z</time></trkpt><trkpt lat="43.8490225" lon="11.2081126"><ele>174.8</ele><time>2026-03-23T15:54:54.971Z</time></trkpt><trkpt lat="43.8491096" lon="11.2081002"><ele>176.0</ele><time>2026-03-23T15:54:55.959Z</time></trkpt><trkpt lat="43.8491966" lon="11.2080969"><ele>176.0</ele><time>2026-03-23T15:54:57.035Z</time></trkpt><trkpt lat="43.8492802" lon="11.208087"><ele>176.0</ele><time>2026-03-23T15:54:58.041Z</time></trkpt><trkpt lat="43.8493629" lon="11.2080684"><ele>176.0</ele><time>2026-03-23T15:54:58.958Z</time></trkpt><trkpt lat="43.8494373" lon="11.2080382"><ele>176.0</ele><time>2026-03-23T15:54:59.952Z</time></trkpt><trkpt lat="43.849511" lon="11.2080056"><ele>176.0</ele><time>2026-03-23T15:55:00.994Z</time></trkpt><trkpt lat="43.8495846" lon="11.2079689"><ele>176.0</ele><time>2026-03-23T15:55:02.03Z</time></trkpt><trkpt lat="43.8496526" lon="11.2079401"><ele>180.20000000000002</ele><time>2026-03-23T15:55:03.029Z</time></trkpt><trkpt lat="43.8497176" lon="11.2079237"><ele>184.4</ele><time>2026-03-23T15:55:03.965Z</time></trkpt><trkpt lat="43.8498271" lon="11.2078441"><ele>188.6</ele><time>2026-03-23T15:55:05.959Z</time></trkpt><trkpt lat="43.8499106" lon="11.2077466"><ele>192.8</ele><time>2026-03-23T15:55:07.955Z</time></trkpt><trkpt lat="43.8499893" lon="11.2076217"><ele>197.0</ele><time>2026-03-23T15:55:09.96Z</time></trkpt><trkpt lat="43.8500424" lon="11.2074626"><ele>197.00000000000003</ele><time>2026-03-23T15:55:12.024Z</time></trkpt><trkpt lat="43.8500649" lon="11.2073748"><ele>197.0</ele><time>2026-03-23T15:55:13.033Z</time></trkpt><trkpt lat="43.8500891" lon="11.2072913"><ele>197.0</ele><time>2026-03-23T15:55:13.952Z</time></trkpt><trkpt lat="43.8501186" lon="11.2072084"><ele>197.0</ele><time>2026-03-23T15:55:14.951Z</time></trkpt><trkpt lat="43.8501977" lon="11.2070704"><ele>197.00000000000003</ele><time>2026-03-23T15:55:16.952Z</time></trkpt><trkpt lat="43.8502894" lon="11.2069655"><ele>197.0</ele><time>2026-03-23T15:55:18.952Z</time></trkpt><trkpt lat="43.8503503" lon="11.2069091"><ele>199.00000000000003</ele><time>2026-03-23T15:55:20.024Z</time></trkpt><trkpt lat="43.8504234" lon="11.2068602"><ele>201.0</ele><time>2026-03-23T15:55:21.013Z</time></trkpt><trkpt lat="43.8504949" lon="11.2068082"><ele>203.0</ele><time>2026-03-23T15:55:21.938Z</time></trkpt><trkpt lat="43.8505692" lon="11.2067556"><ele>205.0</ele><time>2026-03-23T15:55:22.952Z</time></trkpt><trkpt lat="43.8506398" lon="11.2067151"><ele>207.00000000000003</ele><time>2026-03-23T15:55:23.948Z</time></trkpt><trkpt lat="43.8507076" lon="11.2066747"><ele>209.0</ele><time>2026-03-23T15:55:24.95Z</time></trkpt><trkpt lat="43.8507694" lon="11.2066379"><ele>209.00000000000003</ele><time>2026-03-23T15:55:25.95Z</time></trkpt><trkpt lat="43.8508309" lon="11.2065988"><ele>209.0</ele><time>2026-03-23T15:55:26.948Z</time></trkpt><trkpt lat="43.85095" lon="11.206556"><ele>209.0</ele><time>2026-03-23T15:55:28.952Z</time></trkpt><trkpt lat="43.8510132" lon="11.2065449"><ele>209.0</ele><time>2026-03-23T15:55:30.009Z</time></trkpt><trkpt lat="43.8510799" lon="11.2065228"><ele>209.00000000000003</ele><time>2026-03-23T15:55:31.016Z</time></trkpt><trkpt lat="43.8511547" lon="11.2065041"><ele>209.0</ele><time>2026-03-23T15:55:32.017Z</time></trkpt><trkpt lat="43.8512264" lon="11.2064843"><ele>210.2</ele><time>2026-03-23T15:55:33.008Z</time></trkpt><trkpt lat="43.8512948" lon="11.2064644"><ele>211.39999999999998</ele><time>2026-03-23T15:55:33.948Z</time></trkpt><trkpt lat="43.8514097" lon="11.2064186"><ele>212.6</ele><time>2026-03-23T15:55:35.969Z</time></trkpt><trkpt lat="43.8514867" lon="11.2063966"><ele>213.8</ele><time>2026-03-23T15:55:37.951Z</time></trkpt><trkpt lat="43.8515543" lon="11.2064514"><ele>215.0</ele><time>2026-03-23T15:55:39.949Z</time></trkpt><trkpt lat="43.8516572" lon="11.2065379"><ele>216.4</ele><time>2026-03-23T15:55:41.95Z</time></trkpt><trkpt lat="43.8517751" lon="11.2066398"><ele>217.8</ele><time>2026-03-23T15:55:43.947Z</time></trkpt><trkpt lat="43.851847" lon="11.2066869"><ele>219.2</ele><time>2026-03-23T15:55:44.952Z</time></trkpt><trkpt lat="43.8519226" lon="11.2067355"><ele>220.6</ele><time>2026-03-23T15:55:45.946Z</time></trkpt><trkpt lat="43.8519939" lon="11.2067874"><ele>222.0</ele><time>2026-03-23T15:55:46.946Z</time></trkpt><trkpt lat="43.8520634" lon="11.2068425"><ele>222.83333333333334</ele><time>2026-03-23T15:55:47.949Z</time></trkpt><trkpt lat="43.8521279" lon="11.206893"><ele>223.66666666666669</ele><time>2026-03-23T15:55:48.976Z</time></trkpt><trkpt lat="43.8521901" lon="11.206947"><ele>224.5</ele><time>2026-03-23T15:55:49.957Z</time></trkpt><trkpt lat="43.852254" lon="11.2069991"><ele>225.33333333333334</ele><time>2026-03-23T15:55:50.953Z</time></trkpt><trkpt lat="43.852318" lon="11.2070557"><ele>226.16666666666669</ele><time>2026-03-23T15:55:51.951Z</time></trkpt><trkpt lat="43.8523837" lon="11.2071149"><ele>227.0</ele><time>2026-03-23T15:55:52.957Z</time></trkpt><trkpt lat="43.852453" lon="11.2071762"><ele>227.00000000000003</ele><time>2026-03-23T15:55:53.955Z</time></trkpt><trkpt lat="43.8525273" lon="11.207228"><ele>227.0</ele><time>2026-03-23T15:55:54.955Z</time></trkpt><trkpt lat="43.8525998" lon="11.2072753"><ele>227.0</ele><time>2026-03-23T15:55:55.953Z</time></trkpt><trkpt lat="43.8526656" lon="11.2073195"><ele>227.0</ele><time>2026-03-23T15:55:56.954Z</time></trkpt><trkpt lat="43.852727" lon="11.2073714"><ele>227.00000000000003</ele><time>2026-03-23T15:55:58.045Z</time></trkpt><trkpt lat="43.8527898" lon="11.2074244"><ele>227.0</ele><time>2026-03-23T15:55:58.969Z</time></trkpt><trkpt lat="43.852855" lon="11.2074886"><ele>229.66666666666669</ele><time>2026-03-23T15:55:59.97Z</time></trkpt><trkpt lat="43.8529192" lon="11.2075522"><ele>232.33333333333334</ele><time>2026-03-23T15:56:00.978Z</time></trkpt><trkpt lat="43.8529841" lon="11.2076108"><ele>235.0</ele><time>2026-03-23T15:56:02.026Z</time></trkpt><trkpt lat="43.8530416" lon="11.2076683"><ele>237.66666666666669</ele><time>2026-03-23T15:56:02.972Z</time></trkpt><trkpt lat="43.8530992" lon="11.2077244"><ele>240.33333333333334</ele><time>2026-03-23T15:56:03.971Z</time></trkpt><trkpt lat="43.8531954" lon="11.2078278"><ele>243.0</ele><time>2026-03-23T15:56:06.039Z</time></trkpt><trkpt lat="43.8532683" lon="11.2079069"><ele>243.0</ele><time>2026-03-23T15:56:08.036Z</time></trkpt><trkpt lat="43.8533185" lon="11.2079877"><ele>243.0</ele><time>2026-03-23T15:56:10.971Z</time></trkpt><trkpt lat="43.853302" lon="11.2080819"><ele>243.0</ele><time>2026-03-23T15:56:14.952Z</time></trkpt><trkpt lat="43.8532577" lon="11.2081612"><ele>243.0</ele><time>2026-03-23T15:56:16.958Z</time></trkpt><trkpt lat="43.8532182" lon="11.2082677"><ele>243.0</ele><time>2026-03-23T15:56:18.99Z</time></trkpt><trkpt lat="43.8531854" lon="11.2083949"><ele>243.0</ele><time>2026-03-23T15:56:20.954Z</time></trkpt><trkpt lat="43.8531437" lon="11.2085176"><ele>244.0</ele><time>2026-03-23T15:56:22.954Z</time></trkpt><trkpt lat="43.8530988" lon="11.2086383"><ele>245.0</ele><time>2026-03-23T15:56:24.955Z</time></trkpt><trkpt lat="43.8530516" lon="11.2087685"><ele>246.0</ele><time>2026-03-23T15:56:26.955Z</time></trkpt><trkpt lat="43.8529929" lon="11.2089215"><ele>247.0</ele><time>2026-03-23T15:56:28.985Z</time></trkpt><trkpt lat="43.8529664" lon="11.2090024"><ele>248.0</ele><time>2026-03-23T15:56:29.958Z</time></trkpt><trkpt lat="43.8529345" lon="11.2090838"><ele>249.16666666666669</ele><time>2026-03-23T15:56:30.958Z</time></trkpt><trkpt lat="43.852901" lon="11.2091645"><ele>250.33333333333334</ele><time>2026-03-23T15:56:31.952Z</time></trkpt><trkpt lat="43.8528722" lon="11.2092479"><ele>251.5</ele><time>2026-03-23T15:56:32.959Z</time></trkpt><trkpt lat="43.8528219" lon="11.2093904"><ele>252.66666666666669</ele><time>2026-03-23T15:56:34.958Z</time></trkpt><trkpt lat="43.8527767" lon="11.209503"><ele>253.83333333333334</ele><time>2026-03-23T15:56:36.955Z</time></trkpt><trkpt lat="43.8527375" lon="11.2096069"><ele>255.0</ele><time>2026-03-23T15:56:38.961Z</time></trkpt><trkpt lat="43.8527433" lon="11.2097203"><ele>255.0</ele><time>2026-03-23T15:56:42.951Z</time></trkpt><trkpt lat="43.8527915" lon="11.2097879"><ele>255.00000000000003</ele><time>2026-03-23T15:56:45.955Z</time></trkpt><trkpt lat="43.8528525" lon="11.209823"><ele>255.0</ele><time>2026-03-23T15:56:48.955Z</time></trkpt><trkpt lat="43.8529089" lon="11.2098819"><ele>255.0</ele><time>2026-03-23T15:56:51.964Z</time></trkpt><trkpt lat="43.8529762" lon="11.2099109"><ele>255.00000000000003</ele><time>2026-03-23T15:56:54.953Z</time></trkpt><trkpt lat="43.8530541" lon="11.2098895"><ele>255.0</ele><time>2026-03-23T15:56:57.958Z</time></trkpt><trkpt lat="43.8531128" lon="11.209854"><ele>255.0</ele><time>2026-03-23T15:56:59.959Z</time></trkpt><trkpt lat="43.8531879" lon="11.209804"><ele>255.0</ele><time>2026-03-23T15:57:02.952Z</time></trkpt><trkpt lat="43.8532595" lon="11.2098115"><ele>255.0</ele><time>2026-03-23T15:57:06.953Z</time></trkpt><trkpt lat="43.8533325" lon="11.2098388"><ele>255.0</ele><time>2026-03-23T15:57:12.947Z</time></trkpt><trkpt lat="43.8534466" lon="11.2098701"><ele>255.0</ele><time>2026-03-23T15:57:38.962Z</time></trkpt><trkpt lat="43.8535211" lon="11.2099159"><ele>255.0</ele><time>2026-03-23T15:57:42.957Z</time></trkpt><trkpt lat="43.8536106" lon="11.209971"><ele>255.0</ele><time>2026-03-23T15:57:47.956Z</time></trkpt><trkpt lat="43.8536711" lon="11.2099985"><ele>256.6666666666667</ele><time>2026-03-23T15:57:50.958Z</time></trkpt><trkpt lat="43.8537514" lon="11.2100364"><ele>258.3333333333333</ele><time>2026-03-23T15:57:54.95Z</time></trkpt><trkpt lat="43.8538216" lon="11.2100711"><ele>260.0</ele><time>2026-03-23T15:57:57.955Z</time></trkpt><trkpt lat="43.8538875" lon="11.2101068"><ele>261.66666666666663</ele><time>2026-03-23T15:58:00.955Z</time></trkpt><trkpt lat="43.8539623" lon="11.2101353"><ele>263.3333333333333</ele><time>2026-03-23T15:58:04.957Z</time></trkpt><trkpt lat="43.8540326" lon="11.2101588"><ele>265.0</ele><time>2026-03-23T15:58:07.961Z</time></trkpt><trkpt lat="43.8541107" lon="11.2101788"><ele>265.0</ele><time>2026-03-23T15:58:10.949Z</time></trkpt><trkpt lat="43.8542115" lon="11.210214"><ele>265.0</ele><time>2026-03-23T15:58:17.029Z</time></trkpt><trkpt lat="43.8543167" lon="11.2102325"><ele>265.0</ele><time>2026-03-23T15:58:21.96Z</time></trkpt><trkpt lat="43.854448" lon="11.2102222"><ele>265.0</ele><time>2026-03-23T15:58:28.956Z</time></trkpt><trkpt lat="43.8545165" lon="11.2102078"><ele>265.0</ele><time>2026-03-23T15:58:31.959Z</time></trkpt><trkpt lat="43.8546372" lon="11.2101857"><ele>268.2</ele><time>2026-03-23T15:58:37.961Z</time></trkpt><trkpt lat="43.8547528" lon="11.210179"><ele>271.4</ele><time>2026-03-23T15:58:43.957Z</time></trkpt><trkpt lat="43.8548628" lon="11.2101896"><ele>274.6</ele><time>2026-03-23T15:58:49.96Z</time></trkpt><trkpt lat="43.854949" lon="11.2102161"><ele>277.8</ele><time>2026-03-23T15:58:53.963Z</time></trkpt><trkpt lat="43.8550173" lon="11.2102358"><ele>281.0</ele><time>2026-03-23T15:58:56.958Z</time></trkpt><trkpt lat="43.8551352" lon="11.2102425"><ele>285.0</ele><time>2026-03-23T15:59:09.029Z</time></trkpt><trkpt lat="43.8551993" lon="11.210263"><ele>289.0</ele><time>2026-03-23T15:59:13.956Z</time></trkpt><trkpt lat="43.8552777" lon="11.2102732"><ele>293.0</ele><time>2026-03-23T15:59:19.957Z</time></trkpt><trkpt lat="43.8553523" lon="11.2103363"><ele>297.0</ele><time>2026-03-23T15:59:23.964Z</time></trkpt><trkpt lat="43.855416" lon="11.2104175"><ele>301.0</ele><time>2026-03-23T15:59:26.959Z</time></trkpt><trkpt lat="43.8554831" lon="11.2104828"><ele>305.0</ele><time>2026-03-23T15:59:29.953Z</time></trkpt><trkpt lat="43.8555434" lon="11.2105242"><ele>305.0</ele><time>2026-03-23T15:59:32.956Z</time></trkpt><trkpt lat="43.8556143" lon="11.2105745"><ele>305.0</ele><time>2026-03-23T15:59:36.961Z</time></trkpt><trkpt lat="43.8556919" lon="11.2106145"><ele>305.0</ele><time>2026-03-23T15:59:40.959Z</time></trkpt><trkpt lat="43.8557569" lon="11.2106247"><ele>305.0</ele><time>2026-03-23T15:59:43.96Z</time></trkpt><trkpt lat="43.8558259" lon="11.2106413"><ele>305.0</ele><time>2026-03-23T15:59:46.961Z</time></trkpt><trkpt lat="43.8559093" lon="11.2106723"><ele>305.0</ele><time>2026-03-23T15:59:49.963Z</time></trkpt><trkpt lat="43.8559867" lon="11.2106928"><ele>305.33333333333337</ele><time>2026-03-23T15:59:54.025Z</time></trkpt><trkpt lat="43.8560508" lon="11.2107029"><ele>305.6666666666667</ele><time>2026-03-23T15:59:56.969Z</time></trkpt><trkpt lat="43.8561351" lon="11.2107311"><ele>306.0</ele><time>2026-03-23T15:59:59.96Z</time></trkpt><trkpt lat="43.8562135" lon="11.2107689"><ele>306.3333333333333</ele><time>2026-03-23T16:00:02.97Z</time></trkpt><trkpt lat="43.8562909" lon="11.2108038"><ele>306.66666666666663</ele><time>2026-03-23T16:00:05.975Z</time></trkpt><trkpt lat="43.8563712" lon="11.2108223"><ele>307.0</ele><time>2026-03-23T16:00:08.972Z</time></trkpt><trkpt lat="43.8564523" lon="11.2108456"><ele>307.0</ele><time>2026-03-23T16:00:12.967Z</time></trkpt><trkpt lat="43.8565574" lon="11.2108848"><ele>307.0</ele><time>2026-03-23T16:00:18.973Z</time></trkpt><trkpt lat="43.8566278" lon="11.2109075"><ele>307.0</ele><time>2026-03-23T16:00:22.041Z</time></trkpt><trkpt lat="43.8566911" lon="11.2109059"><ele>307.0</ele><time>2026-03-23T16:00:24.966Z</time></trkpt><trkpt lat="43.8567558" lon="11.2109114"><ele>307.0</ele><time>2026-03-23T16:00:27.968Z</time></trkpt><trkpt lat="43.8568354" lon="11.210947"><ele>307.0</ele><time>2026-03-23T16:00:30.965Z</time></trkpt><trkpt lat="43.8568982" lon="11.2109675"><ele>308.71428571428567</ele><time>2026-03-23T16:00:32.954Z</time></trkpt><trkpt lat="43.8569651" lon="11.2109909"><ele>310.42857142857144</ele><time>2026-03-23T16:00:34.958Z</time></trkpt><trkpt lat="43.8570366" lon="11.2110134"><ele>312.1428571428571</ele><time>2026-03-23T16:00:36.952Z</time></trkpt><trkpt lat="43.8571045" lon="11.2110317"><ele>313.85714285714283</ele><time>2026-03-23T16:00:38.032Z</time></trkpt><trkpt lat="43.8571709" lon="11.2110656"><ele>315.57142857142856</ele><time>2026-03-23T16:00:56.959Z</time></trkpt><trkpt lat="43.8572403" lon="11.2110884"><ele>317.2857142857143</ele><time>2026-03-23T16:00:58.957Z</time></trkpt><trkpt lat="43.8573115" lon="11.211111"><ele>319.0</ele><time>2026-03-23T16:01:01.02Z</time></trkpt><trkpt lat="43.8573972" lon="11.2111474"><ele>319.0</ele><time>2026-03-23T16:01:03.957Z</time></trkpt><trkpt lat="43.8574665" lon="11.2111635"><ele>319.0</ele><time>2026-03-23T16:01:06.957Z</time></trkpt><trkpt lat="43.8575456" lon="11.2111903"><ele>319.0</ele><time>2026-03-23T16:01:12.955Z</time></trkpt><trkpt lat="43.8576201" lon="11.2112127"><ele>319.0</ele><time>2026-03-23T16:01:15.956Z</time></trkpt><trkpt lat="43.8576871" lon="11.2112339"><ele>319.0</ele><time>2026-03-23T16:01:18.955Z</time></trkpt><trkpt lat="43.8577725" lon="11.2112696"><ele>319.0</ele><time>2026-03-23T16:01:24.956Z</time></trkpt><trkpt lat="43.8578359" lon="11.2112882"><ele>320.66666666666663</ele><time>2026-03-23T16:01:26.955Z</time></trkpt><trkpt lat="43.8579142" lon="11.2113056"><ele>322.3333333333333</ele><time>2026-03-23T16:01:29.955Z</time></trkpt><trkpt lat="43.8579945" lon="11.2113267"><ele>324.0</ele><time>2026-03-23T16:01:33.954Z</time></trkpt><trkpt lat="43.8580588" lon="11.2113487"><ele>325.6666666666667</ele><time>2026-03-23T16:01:36.97Z</time></trkpt><trkpt lat="43.858155" lon="11.2113852"><ele>327.33333333333337</ele><time>2026-03-23T16:01:42.963Z</time></trkpt><trkpt lat="43.8582367" lon="11.2114192"><ele>329.0</ele><time>2026-03-23T16:01:45.967Z</time></trkpt><trkpt lat="43.8583141" lon="11.2114432"><ele>329.0</ele><time>2026-03-23T16:01:48.961Z</time></trkpt><trkpt lat="43.8583926" lon="11.2114633"><ele>329.0</ele><time>2026-03-23T16:01:51.967Z</time></trkpt><trkpt lat="43.8584723" lon="11.2115034"><ele>329.0</ele><time>2026-03-23T16:01:54.975Z</time></trkpt><trkpt lat="43.8585519" lon="11.211531"><ele>329.0</ele><time>2026-03-23T16:01:58.03Z</time></trkpt><trkpt lat="43.858616" lon="11.2115351"><ele>329.0</ele><time>2026-03-23T16:01:59.955Z</time></trkpt><trkpt lat="43.8586839" lon="11.2115479"><ele>329.0</ele><time>2026-03-23T16:02:01.954Z</time></trkpt><trkpt lat="43.8587718" lon="11.2115498"><ele>328.14285714285717</ele><time>2026-03-23T16:02:04.957Z</time></trkpt><trkpt lat="43.8588272" lon="11.2115041"><ele>327.2857142857143</ele><time>2026-03-23T16:02:09.97Z</time></trkpt><trkpt lat="43.8587777" lon="11.2114501"><ele>326.42857142857144</ele><time>2026-03-23T16:02:12.979Z</time></trkpt><trkpt lat="43.8587335" lon="11.2113871"><ele>325.57142857142856</ele><time>2026-03-23T16:02:16.006Z</time></trkpt><trkpt lat="43.8586964" lon="11.2113163"><ele>324.7142857142857</ele><time>2026-03-23T16:02:19.963Z</time></trkpt><trkpt lat="43.8587397" lon="11.2113797"><ele>323.8571428571429</ele><time>2026-03-23T16:02:27.955Z</time></trkpt><trkpt lat="43.8587964" lon="11.211432"><ele>323.0</ele><time>2026-03-23T16:02:29.958Z</time></trkpt><trkpt lat="43.8588439" lon="11.2114952"><ele>323.0</ele><time>2026-03-23T16:02:31.955Z</time></trkpt><trkpt lat="43.8588778" lon="11.2115766"><ele>323.0</ele><time>2026-03-23T16:02:33.958Z</time></trkpt><trkpt lat="43.8589126" lon="11.211696"><ele>323.0</ele><time>2026-03-23T16:02:37.033Z</time></trkpt><trkpt lat="43.8589439" lon="11.2117814"><ele>323.0</ele><time>2026-03-23T16:02:38.958Z</time></trkpt><trkpt lat="43.8589719" lon="11.2119186"><ele>323.0</ele><time>2026-03-23T16:02:40.959Z</time></trkpt><trkpt lat="43.8590014" lon="11.2120619"><ele>323.0</ele><time>2026-03-23T16:02:42.966Z</time></trkpt><trkpt lat="43.8590326" lon="11.2121909"><ele>323.0</ele><time>2026-03-23T16:02:44.958Z</time></trkpt><trkpt lat="43.8590446" lon="11.2123031"><ele>323.0</ele><time>2026-03-23T16:02:46.96Z</time></trkpt><trkpt lat="43.8591047" lon="11.2123545"><ele>323.0</ele><time>2026-03-23T16:02:49.958Z</time></trkpt><trkpt lat="43.8591756" lon="11.2123762"><ele>323.0</ele><time>2026-03-23T16:02:52.964Z</time></trkpt><trkpt lat="43.8591987" lon="11.2124832"><ele>323.0</ele><time>2026-03-23T16:02:55.961Z</time></trkpt><trkpt lat="43.8592154" lon="11.2125884"><ele>323.0</ele><time>2026-03-23T16:02:58.957Z</time></trkpt><trkpt lat="43.8592863" lon="11.2126696"><ele>323.4</ele><time>2026-03-23T16:03:01.946Z</time></trkpt><trkpt lat="43.8593418" lon="11.2127245"><ele>323.79999999999995</ele><time>2026-03-23T16:03:03.958Z</time></trkpt><trkpt lat="43.8593829" lon="11.2128126"><ele>324.2</ele><time>2026-03-23T16:03:06.023Z</time></trkpt><trkpt lat="43.8594614" lon="11.2129136"><ele>324.6</ele><time>2026-03-23T16:03:08.021Z</time></trkpt><trkpt lat="43.8595393" lon="11.2130076"><ele>325.0</ele><time>2026-03-23T16:03:09.967Z</time></trkpt><trkpt lat="43.8596154" lon="11.2131028"><ele>327.0</ele><time>2026-03-23T16:03:11.963Z</time></trkpt><trkpt lat="43.859688" lon="11.2132021"><ele>329.0</ele><time>2026-03-23T16:03:14.041Z</time></trkpt><trkpt lat="43.8597523" lon="11.2133124"><ele>331.0</ele><time>2026-03-23T16:03:15.974Z</time></trkpt><trkpt lat="43.8598284" lon="11.2134095"><ele>333.0</ele><time>2026-03-23T16:03:18.03Z</time></trkpt><trkpt lat="43.8599189" lon="11.2134905"><ele>335.0</ele><time>2026-03-23T16:03:19.95Z</time></trkpt><trkpt lat="43.8600011" lon="11.2135466"><ele>335.0</ele><time>2026-03-23T16:03:21.957Z</time></trkpt><trkpt lat="43.8600952" lon="11.2136391"><ele>335.0</ele><time>2026-03-23T16:03:23.957Z</time></trkpt><trkpt lat="43.8601488" lon="11.2136954"><ele>335.0</ele><time>2026-03-23T16:03:24.961Z</time></trkpt><trkpt lat="43.8602027" lon="11.2137539"><ele>335.0</ele><time>2026-03-23T16:03:25.958Z</time></trkpt><trkpt lat="43.8602994" lon="11.2138749"><ele>335.0</ele><time>2026-03-23T16:03:27.956Z</time></trkpt><trkpt lat="43.8603536" lon="11.213941"><ele>333.0</ele><time>2026-03-23T16:03:28.961Z</time></trkpt><trkpt lat="43.8604376" lon="11.2140598"><ele>331.0</ele><time>2026-03-23T16:03:30.953Z</time></trkpt><trkpt lat="43.8604979" lon="11.2141919"><ele>329.0</ele><time>2026-03-23T16:03:32.95Z</time></trkpt><trkpt lat="43.8605487" lon="11.2143601"><ele>327.0</ele><time>2026-03-23T16:03:34.956Z</time></trkpt><trkpt lat="43.8605949" lon="11.21447"><ele>327.0</ele><time>2026-03-23T16:03:35.955Z</time></trkpt><trkpt lat="43.8606402" lon="11.2145961"><ele>327.0</ele><time>2026-03-23T16:03:36.952Z</time></trkpt><trkpt lat="43.8606788" lon="11.2147267"><ele>327.0</ele><time>2026-03-23T16:03:37.955Z</time></trkpt><trkpt lat="43.8607079" lon="11.2148544"><ele>327.0</ele><time>2026-03-23T16:03:38.961Z</time></trkpt><trkpt lat="43.8607342" lon="11.2149691"><ele>327.0</ele><time>2026-03-23T16:03:39.955Z</time></trkpt><trkpt lat="43.8607569" lon="11.2150699"><ele>327.5</ele><time>2026-03-23T16:03:40.959Z</time></trkpt><trkpt lat="43.8607939" lon="11.2152311"><ele>328.0</ele><time>2026-03-23T16:03:43.016Z</time></trkpt><trkpt lat="43.8608266" lon="11.2153744"><ele>328.5</ele><time>2026-03-23T16:03:44.964Z</time></trkpt><trkpt lat="43.860851" lon="11.2154566"><ele>329.0</ele><time>2026-03-23T16:03:45.955Z</time></trkpt><trkpt lat="43.8608741" lon="11.2155401"><ele>329.5</ele><time>2026-03-23T16:03:46.957Z</time></trkpt><trkpt lat="43.860893" lon="11.2156267"><ele>330.0</ele><time>2026-03-23T16:03:47.954Z</time></trkpt><trkpt lat="43.8609157" lon="11.2157172"><ele>330.0</ele><time>2026-03-23T16:03:48.963Z</time></trkpt><trkpt lat="43.8609358" lon="11.2158128"><ele>330.0</ele><time>2026-03-23T16:03:49.984Z</time></trkpt><trkpt lat="43.8609533" lon="11.2159149"><ele>330.0</ele><time>2026-03-23T16:03:51.022Z</time></trkpt><trkpt lat="43.8609759" lon="11.2160074"><ele>330.0</ele><time>2026-03-23T16:03:52.015Z</time></trkpt><trkpt lat="43.8610017" lon="11.2160897"><ele>330.0</ele><time>2026-03-23T16:03:53.016Z</time></trkpt><trkpt lat="43.8610562" lon="11.2162355"><ele>330.0</ele><time>2026-03-23T16:03:54.958Z</time></trkpt><trkpt lat="43.8611041" lon="11.2162949"><ele>328.5</ele><time>2026-03-23T16:03:56.96Z</time></trkpt><trkpt lat="43.8611576" lon="11.2163583"><ele>327.0</ele><time>2026-03-23T16:04:01.956Z</time></trkpt><trkpt lat="43.8612141" lon="11.2164571"><ele>325.5</ele><time>2026-03-23T16:04:05.952Z</time></trkpt><trkpt lat="43.8612341" lon="11.21659"><ele>324.0</ele><time>2026-03-23T16:04:07.957Z</time></trkpt><trkpt lat="43.8612525" lon="11.2166771"><ele>322.5</ele><time>2026-03-23T16:04:08.95Z</time></trkpt><trkpt lat="43.8612733" lon="11.2167738"><ele>321.0</ele><time>2026-03-23T16:04:09.954Z</time></trkpt><trkpt lat="43.8612913" lon="11.2168703"><ele>321.0</ele><time>2026-03-23T16:04:10.947Z</time></trkpt><trkpt lat="43.8613003" lon="11.2169658"><ele>321.0</ele><time>2026-03-23T16:04:11.956Z</time></trkpt><trkpt lat="43.8613186" lon="11.2171273"><ele>321.0</ele><time>2026-03-23T16:04:13.954Z</time></trkpt><trkpt lat="43.8613294" lon="11.2172351"><ele>321.0</ele><time>2026-03-23T16:04:15.952Z</time></trkpt><trkpt lat="43.861333" lon="11.2173249"><ele>321.0</ele><time>2026-03-23T16:04:19.009Z</time></trkpt><trkpt lat="43.8612625" lon="11.2173578"><ele>321.0</ele><time>2026-03-23T16:04:21.957Z</time></trkpt><trkpt lat="43.8611817" lon="11.2174121"><ele>322.20000000000005</ele><time>2026-03-23T16:04:24.964Z</time></trkpt><trkpt lat="43.8612154" lon="11.2175876"><ele>323.40000000000003</ele><time>2026-03-23T16:04:26.942Z</time></trkpt><trkpt lat="43.8612417" lon="11.2177047"><ele>324.6</ele><time>2026-03-23T16:04:27.947Z</time></trkpt><trkpt lat="43.8612625" lon="11.2178401"><ele>325.8</ele><time>2026-03-23T16:04:28.946Z</time></trkpt><trkpt lat="43.8612711" lon="11.2179981"><ele>327.0</ele><time>2026-03-23T16:04:29.961Z</time></trkpt><trkpt lat="43.8612803" lon="11.2181641"><ele>328.0</ele><time>2026-03-23T16:04:30.959Z</time></trkpt><trkpt lat="43.8612952" lon="11.2183338"><ele>329.0</ele><time>2026-03-23T16:04:31.953Z</time></trkpt><trkpt lat="43.8613065" lon="11.2185139"><ele>330.0</ele><time>2026-03-23T16:04:32.955Z</time></trkpt><trkpt lat="43.8613151" lon="11.2186974"><ele>331.0</ele><time>2026-03-23T16:04:33.959Z</time></trkpt><trkpt lat="43.8613319" lon="11.2188921"><ele>333.0</ele><time>2026-03-23T16:04:34.952Z</time></trkpt><trkpt lat="43.8613655" lon="11.2190892"><ele>335.0</ele><time>2026-03-23T16:04:35.957Z</time></trkpt><trkpt lat="43.861427" lon="11.2192759"><ele>337.0</ele><time>2026-03-23T16:04:36.958Z</time></trkpt><trkpt lat="43.8615155" lon="11.219455"><ele>337.0</ele><time>2026-03-23T16:04:37.955Z</time></trkpt><trkpt lat="43.8616137" lon="11.2196324"><ele>337.0</ele><time>2026-03-23T16:04:38.955Z</time></trkpt><trkpt lat="43.8617055" lon="11.2197992"><ele>337.0</ele><time>2026-03-23T16:04:39.954Z</time></trkpt><trkpt lat="43.8617946" lon="11.2199648"><ele>339.0</ele><time>2026-03-23T16:04:40.956Z</time></trkpt><trkpt lat="43.8618822" lon="11.2201287"><ele>341.0</ele><time>2026-03-23T16:04:41.96Z</time></trkpt><trkpt lat="43.8619736" lon="11.220283"><ele>343.0</ele><time>2026-03-23T16:04:42.958Z</time></trkpt><trkpt lat="43.8620637" lon="11.2204415"><ele>345.0</ele><time>2026-03-23T16:04:43.962Z</time></trkpt><trkpt lat="43.8621527" lon="11.2205967"><ele>347.75</ele><time>2026-03-23T16:04:44.955Z</time></trkpt><trkpt lat="43.8622332" lon="11.2207601"><ele>350.5</ele><time>2026-03-23T16:04:45.959Z</time></trkpt><trkpt lat="43.862305" lon="11.2209342"><ele>353.25</ele><time>2026-03-23T16:04:46.957Z</time></trkpt><trkpt lat="43.8623674" lon="11.221112"><ele>356.0</ele><time>2026-03-23T16:04:47.954Z</time></trkpt><trkpt lat="43.862412" lon="11.2212913"><ele>356.0</ele><time>2026-03-23T16:04:48.963Z</time></trkpt><trkpt lat="43.862447" lon="11.2214714"><ele>356.0</ele><time>2026-03-23T16:04:49.957Z</time></trkpt><trkpt lat="43.8624832" lon="11.2216471"><ele>356.0</ele><time>2026-03-23T16:04:50.957Z</time></trkpt><trkpt lat="43.8625262" lon="11.2218164"><ele>356.0</ele><time>2026-03-23T16:04:51.956Z</time></trkpt><trkpt lat="43.8625835" lon="11.2219806"><ele>358.20000000000005</ele><time>2026-03-23T16:04:52.956Z</time></trkpt><trkpt lat="43.8626454" lon="11.2221251"><ele>360.40000000000003</ele><time>2026-03-23T16:04:53.958Z</time></trkpt><trkpt lat="43.862712" lon="11.2222484"><ele>362.6</ele><time>2026-03-23T16:04:54.974Z</time></trkpt><trkpt lat="43.86278" lon="11.2223649"><ele>364.8</ele><time>2026-03-23T16:04:56.02Z</time></trkpt><trkpt lat="43.8628401" lon="11.2224719"><ele>367.0</ele><time>2026-03-23T16:04:56.955Z</time></trkpt><trkpt lat="43.8628813" lon="11.2225944"><ele>369.16666666666663</ele><time>2026-03-23T16:04:58.014Z</time></trkpt><trkpt lat="43.8629013" lon="11.2227185"><ele>371.3333333333333</ele><time>2026-03-23T16:04:59.009Z</time></trkpt><trkpt lat="43.8629072" lon="11.22284"><ele>373.5</ele><time>2026-03-23T16:04:59.952Z</time></trkpt><trkpt lat="43.8629152" lon="11.2229674"><ele>375.6666666666667</ele><time>2026-03-23T16:05:00.956Z</time></trkpt><trkpt lat="43.8629214" lon="11.2230835"><ele>377.83333333333337</ele><time>2026-03-23T16:05:01.969Z</time></trkpt><trkpt lat="43.8629332" lon="11.2232089"><ele>380.0</ele><time>2026-03-23T16:05:03.012Z</time></trkpt><trkpt lat="43.8629401" lon="11.2233358"><ele>383.2</ele><time>2026-03-23T16:05:03.954Z</time></trkpt><trkpt lat="43.8629411" lon="11.2234604"><ele>386.4</ele><time>2026-03-23T16:05:04.963Z</time></trkpt><trkpt lat="43.8629406" lon="11.2235849"><ele>389.6</ele><time>2026-03-23T16:05:05.956Z</time></trkpt><trkpt lat="43.8629497" lon="11.2237121"><ele>392.8</ele><time>2026-03-23T16:05:06.956Z</time></trkpt><trkpt lat="43.8629721" lon="11.2238382"><ele>396.0</ele><time>2026-03-23T16:05:07.951Z</time></trkpt><trkpt lat="43.8630163" lon="11.2239617"><ele>398.6</ele><time>2026-03-23T16:05:08.958Z</time></trkpt><trkpt lat="43.8630764" lon="11.2240863"><ele>401.20000000000005</ele><time>2026-03-23T16:05:09.949Z</time></trkpt><trkpt lat="43.8631323" lon="11.2242048"><ele>403.79999999999995</ele><time>2026-03-23T16:05:10.963Z</time></trkpt><trkpt lat="43.8632012" lon="11.2243103"><ele>406.4</ele><time>2026-03-23T16:05:11.949Z</time></trkpt><trkpt lat="43.8632807" lon="11.2244027"><ele>409.0</ele><time>2026-03-23T16:05:12.953Z</time></trkpt><trkpt lat="43.8633664" lon="11.2244927"><ele>409.4</ele><time>2026-03-23T16:05:13.954Z</time></trkpt><trkpt lat="43.8634572" lon="11.2245727"><ele>409.79999999999995</ele><time>2026-03-23T16:05:14.958Z</time></trkpt><trkpt lat="43.8635483" lon="11.224658"><ele>410.20000000000005</ele><time>2026-03-23T16:05:15.956Z</time></trkpt><trkpt lat="43.8636356" lon="11.2247547"><ele>410.6</ele><time>2026-03-23T16:05:16.974Z</time></trkpt><trkpt lat="43.863727" lon="11.2248521"><ele>411.0</ele><time>2026-03-23T16:05:17.953Z</time></trkpt><trkpt lat="43.8638312" lon="11.2249384"><ele>413.25</ele><time>2026-03-23T16:05:18.951Z</time></trkpt><trkpt lat="43.8639564" lon="11.2250035"><ele>415.5</ele><time>2026-03-23T16:05:19.955Z</time></trkpt><trkpt lat="43.8640906" lon="11.225046"><ele>417.75</ele><time>2026-03-23T16:05:21.019Z</time></trkpt><trkpt lat="43.86422" lon="11.2250853"><ele>420.0</ele><time>2026-03-23T16:05:21.958Z</time></trkpt><trkpt lat="43.8643336" lon="11.225113"><ele>422.8333333333333</ele><time>2026-03-23T16:05:23.014Z</time></trkpt><trkpt lat="43.8644312" lon="11.2251462"><ele>425.66666666666663</ele><time>2026-03-23T16:05:23.972Z</time></trkpt><trkpt lat="43.8645142" lon="11.2251802"><ele>428.5</ele><time>2026-03-23T16:05:24.955Z</time></trkpt><trkpt lat="43.8645898" lon="11.2252388"><ele>431.3333333333333</ele><time>2026-03-23T16:05:26.02Z</time></trkpt><trkpt lat="43.864659" lon="11.2253011"><ele>434.16666666666663</ele><time>2026-03-23T16:05:26.97Z</time></trkpt><trkpt lat="43.8647289" lon="11.2253599"><ele>437.0</ele><time>2026-03-23T16:05:28.02Z</time></trkpt><trkpt lat="43.8647819" lon="11.2254176"><ele>436.99999999999994</ele><time>2026-03-23T16:05:29.018Z</time></trkpt><trkpt lat="43.8648315" lon="11.2254735"><ele>437.0</ele><time>2026-03-23T16:05:29.944Z</time></trkpt><trkpt lat="43.864911" lon="11.2255518"><ele>437.0</ele><time>2026-03-23T16:05:31.951Z</time></trkpt><trkpt lat="43.8649834" lon="11.2254756"><ele>437.0</ele><time>2026-03-23T16:05:34.952Z</time></trkpt><trkpt lat="43.865006" lon="11.2253501"><ele>436.99999999999994</ele><time>2026-03-23T16:05:37.956Z</time></trkpt><trkpt lat="43.8650134" lon="11.225257"><ele>437.0</ele><time>2026-03-23T16:05:39.952Z</time></trkpt><trkpt lat="43.8650323" lon="11.2251524"><ele>436.99999999999994</ele><time>2026-03-23T16:05:41.959Z</time></trkpt><trkpt lat="43.8650733" lon="11.2250613"><ele>437.0</ele><time>2026-03-23T16:05:43.958Z</time></trkpt><trkpt lat="43.8651375" lon="11.2249767"><ele>437.0</ele><time>2026-03-23T16:05:45.953Z</time></trkpt><trkpt lat="43.8652134" lon="11.2248892"><ele>437.0</ele><time>2026-03-23T16:05:47.958Z</time></trkpt><trkpt lat="43.8652782" lon="11.2248192"><ele>436.99999999999994</ele><time>2026-03-23T16:05:49.952Z</time></trkpt><trkpt lat="43.8653391" lon="11.2247774"><ele>437.0</ele><time>2026-03-23T16:05:52.949Z</time></trkpt><trkpt lat="43.8653986" lon="11.2248265"><ele>439.99999999999994</ele><time>2026-03-23T16:05:56.947Z</time></trkpt><trkpt lat="43.8653586" lon="11.2249256"><ele>443.0</ele><time>2026-03-23T16:06:01.01Z</time></trkpt><trkpt lat="43.8654131" lon="11.2250009"><ele>446.0</ele><time>2026-03-23T16:06:03.948Z</time></trkpt><trkpt lat="43.8654879" lon="11.2250481"><ele>449.0</ele><time>2026-03-23T16:06:07.953Z</time></trkpt><trkpt lat="43.8654863" lon="11.2251494"><ele>451.99999999999994</ele><time>2026-03-23T16:06:10.958Z</time></trkpt><trkpt lat="43.8654509" lon="11.2252551"><ele>455.0</ele><time>2026-03-23T16:06:14.955Z</time></trkpt><trkpt lat="43.8654662" lon="11.2253559"><ele>454.99999999999994</ele><time>2026-03-23T16:06:16.963Z</time></trkpt><trkpt lat="43.8654494" lon="11.2254533"><ele>455.0</ele><time>2026-03-23T16:06:18.963Z</time></trkpt><trkpt lat="43.8654305" lon="11.2255675"><ele>455.0</ele><time>2026-03-23T16:06:20.957Z</time></trkpt><trkpt lat="43.8654333" lon="11.2256696"><ele>455.0</ele><time>2026-03-23T16:06:23.029Z</time></trkpt><trkpt lat="43.8654557" lon="11.2257832"><ele>454.99999999999994</ele><time>2026-03-23T16:06:25.961Z</time></trkpt><trkpt lat="43.8655133" lon="11.2258765"><ele>455.0</ele><time>2026-03-23T16:06:28.962Z</time></trkpt><trkpt lat="43.8655774" lon="11.2259129"><ele>457.99999999999994</ele><time>2026-03-23T16:06:30.968Z</time></trkpt><trkpt lat="43.8656403" lon="11.2259428"><ele>461.0</ele><time>2026-03-23T16:06:33.041Z</time></trkpt><trkpt lat="43.8657087" lon="11.2259633"><ele>464.0</ele><time>2026-03-23T16:06:35.948Z</time></trkpt><trkpt lat="43.8657602" lon="11.2258929"><ele>467.0</ele><time>2026-03-23T16:06:38.95Z</time></trkpt><trkpt lat="43.8658151" lon="11.2258273"><ele>469.99999999999994</ele><time>2026-03-23T16:06:41.951Z</time></trkpt><trkpt lat="43.8659171" lon="11.2258159"><ele>473.0</ele><time>2026-03-23T16:06:44.959Z</time></trkpt><trkpt lat="43.8659927" lon="11.2258225"><ele>478.66666666666663</ele><time>2026-03-23T16:06:46.95Z</time></trkpt><trkpt lat="43.8660689" lon="11.2258201"><ele>484.3333333333333</ele><time>2026-03-23T16:06:48.955Z</time></trkpt><trkpt lat="43.866143" lon="11.2258174"><ele>490.0</ele><time>2026-03-23T16:06:50.951Z</time></trkpt><trkpt lat="43.8662148" lon="11.2257962"><ele>495.66666666666663</ele><time>2026-03-23T16:06:53.015Z</time></trkpt><trkpt lat="43.8662782" lon="11.22575"><ele>501.3333333333333</ele><time>2026-03-23T16:06:54.951Z</time></trkpt><trkpt lat="43.8663504" lon="11.2257176"><ele>507.0</ele><time>2026-03-23T16:06:56.981Z</time></trkpt><trkpt lat="43.8664348" lon="11.2256696"><ele>506.3333333333333</ele><time>2026-03-23T16:06:59.954Z</time></trkpt><trkpt lat="43.8665062" lon="11.2256438"><ele>505.66666666666663</ele><time>2026-03-23T16:07:01.987Z</time></trkpt><trkpt lat="43.8665938" lon="11.2256238"><ele>505.0</ele><time>2026-03-23T16:07:04.954Z</time></trkpt><trkpt lat="43.8666836" lon="11.225596"><ele>504.3333333333333</ele><time>2026-03-23T16:07:07.954Z</time></trkpt><trkpt lat="43.8667506" lon="11.2255797"><ele>503.66666666666663</ele><time>2026-03-23T16:07:09.95Z</time></trkpt><trkpt lat="43.8668448" lon="11.2255548"><ele>503.0</ele><time>2026-03-23T16:07:12.954Z</time></trkpt><trkpt lat="43.866934" lon="11.2255631"><ele>502.99999999999994</ele><time>2026-03-23T16:07:15.951Z</time></trkpt><trkpt lat="43.8670215" lon="11.2255689"><ele>503.0</ele><time>2026-03-23T16:07:18.955Z</time></trkpt><trkpt lat="43.8670958" lon="11.2255603"><ele>503.0</ele><time>2026-03-23T16:07:22.02Z</time></trkpt><trkpt lat="43.8671618" lon="11.2255361"><ele>503.0</ele><time>2026-03-23T16:07:24.949Z</time></trkpt><trkpt lat="43.8672332" lon="11.2255134"><ele>502.99999999999994</ele><time>2026-03-23T16:07:28.009Z</time></trkpt><trkpt lat="43.8673139" lon="11.2254924"><ele>503.0</ele><time>2026-03-23T16:07:30.954Z</time></trkpt><trkpt lat="43.8673862" lon="11.2254769"><ele>502.99999999999994</ele><time>2026-03-23T16:07:33.949Z</time></trkpt><trkpt lat="43.867464" lon="11.2254597"><ele>503.0</ele><time>2026-03-23T16:07:36.951Z</time></trkpt><trkpt lat="43.8675339" lon="11.2254496"><ele>503.0</ele><time>2026-03-23T16:07:39.953Z</time></trkpt><trkpt lat="43.8676142" lon="11.225431"><ele>503.0</ele><time>2026-03-23T16:07:42.963Z</time></trkpt><trkpt lat="43.8676797" lon="11.2254541"><ele>502.99999999999994</ele><time>2026-03-23T16:07:44.952Z</time></trkpt><trkpt lat="43.8677628" lon="11.2254661"><ele>503.0</ele><time>2026-03-23T16:07:47.948Z</time></trkpt><trkpt lat="43.8678366" lon="11.2254751"><ele>505.66666666666663</ele><time>2026-03-23T16:07:51.952Z</time></trkpt><trkpt lat="43.8679089" lon="11.2254546"><ele>508.3333333333333</ele><time>2026-03-23T16:07:54.952Z</time></trkpt><trkpt lat="43.8680068" lon="11.225467"><ele>511.0</ele><time>2026-03-23T16:07:57.952Z</time></trkpt><trkpt lat="43.8680762" lon="11.2254922"><ele>513.6666666666666</ele><time>2026-03-23T16:07:59.954Z</time></trkpt><trkpt lat="43.8681374" lon="11.2255207"><ele>516.3333333333334</ele><time>2026-03-23T16:08:01.958Z</time></trkpt><trkpt lat="43.8682036" lon="11.2255481"><ele>519.0</ele><time>2026-03-23T16:08:03.954Z</time></trkpt><trkpt lat="43.8682843" lon="11.2255913"><ele>523.5714285714286</ele><time>2026-03-23T16:08:06.959Z</time></trkpt><trkpt lat="43.8683456" lon="11.225664"><ele>528.1428571428571</ele><time>2026-03-23T16:08:09.951Z</time></trkpt><trkpt lat="43.8683991" lon="11.2257193"><ele>532.7142857142857</ele><time>2026-03-23T16:08:11.958Z</time></trkpt><trkpt lat="43.8684622" lon="11.2257699"><ele>537.2857142857142</ele><time>2026-03-23T16:08:14.953Z</time></trkpt><trkpt lat="43.8685439" lon="11.2258117"><ele>541.8571428571429</ele><time>2026-03-23T16:08:17.955Z</time></trkpt><trkpt lat="43.8685993" lon="11.2258657"><ele>546.4285714285713</ele><time>2026-03-23T16:08:19.949Z</time></trkpt><trkpt lat="43.8686545" lon="11.2259149"><ele>551.0</ele><time>2026-03-23T16:08:21.951Z</time></trkpt><trkpt lat="43.8687081" lon="11.2260168"><ele>551.4</ele><time>2026-03-23T16:08:24.951Z</time></trkpt><trkpt lat="43.8687439" lon="11.2261205"><ele>551.8</ele><time>2026-03-23T16:08:26.954Z</time></trkpt><trkpt lat="43.8687841" lon="11.2262099"><ele>552.1999999999999</ele><time>2026-03-23T16:08:27.956Z</time></trkpt><trkpt lat="43.8688374" lon="11.2263699"><ele>552.6</ele><time>2026-03-23T16:08:29.956Z</time></trkpt><trkpt lat="43.8688728" lon="11.2264681"><ele>553.0</ele><time>2026-03-23T16:08:31.953Z</time></trkpt><trkpt lat="43.8688853" lon="11.2265875"><ele>555.6666666666667</ele><time>2026-03-23T16:08:34.953Z</time></trkpt><trkpt lat="43.8688704" lon="11.2267116"><ele>558.3333333333334</ele><time>2026-03-23T16:08:37.952Z</time></trkpt><trkpt lat="43.868861" lon="11.2268221"><ele>561.0</ele><time>2026-03-23T16:08:39.957Z</time></trkpt><trkpt lat="43.8688486" lon="11.2269381"><ele>563.6666666666666</ele><time>2026-03-23T16:08:41.954Z</time></trkpt><trkpt lat="43.8688294" lon="11.2270281"><ele>566.3333333333333</ele><time>2026-03-23T16:08:43.955Z</time></trkpt><trkpt lat="43.8688029" lon="11.2271103"><ele>569.0</ele><time>2026-03-23T16:08:45.952Z</time></trkpt><trkpt lat="43.8687539" lon="11.2272151"><ele>569.0</ele><time>2026-03-23T16:08:48.959Z</time></trkpt><trkpt lat="43.8687046" lon="11.2272861"><ele>569.0</ele><time>2026-03-23T16:08:50.959Z</time></trkpt><trkpt lat="43.8686628" lon="11.2273706"><ele>569.0</ele><time>2026-03-23T16:08:52.957Z</time></trkpt><trkpt lat="43.868639" lon="11.227465"><ele>569.0</ele><time>2026-03-23T16:08:54.95Z</time></trkpt><trkpt lat="43.8686287" lon="11.2275694"><ele>569.0</ele><time>2026-03-23T16:08:56.953Z</time></trkpt><trkpt lat="43.8686188" lon="11.2276697"><ele>569.0</ele><time>2026-03-23T16:08:58.956Z</time></trkpt><trkpt lat="43.868607" lon="11.2277885"><ele>571.6666666666666</ele><time>2026-03-23T16:09:01.951Z</time></trkpt><trkpt lat="43.868622" lon="11.2279563"><ele>574.3333333333333</ele><time>2026-03-23T16:10:22.011Z</time></trkpt><trkpt lat="43.8686205" lon="11.2280609"><ele>577.0</ele><time>2026-03-23T16:10:25.959Z</time></trkpt><trkpt lat="43.868636" lon="11.2281734"><ele>579.6666666666666</ele><time>2026-03-23T16:10:29.956Z</time></trkpt><trkpt lat="43.8686474" lon="11.2282704"><ele>582.3333333333334</ele><time>2026-03-23T16:10:33.96Z</time></trkpt><trkpt lat="43.8686709" lon="11.2283539"><ele>585.0</ele><time>2026-03-23T16:10:37.012Z</time></trkpt><trkpt lat="43.8687044" lon="11.2284359"><ele>587.4285714285714</ele><time>2026-03-23T16:10:39.956Z</time></trkpt><trkpt lat="43.8687413" lon="11.2285308"><ele>589.8571428571429</ele><time>2026-03-23T16:10:43.962Z</time></trkpt><trkpt lat="43.8687479" lon="11.2286205"><ele>592.2857142857142</ele><time>2026-03-23T16:10:48.963Z</time></trkpt><trkpt lat="43.8687563" lon="11.2287107"><ele>594.7142857142858</ele><time>2026-03-23T16:10:53.019Z</time></trkpt><trkpt lat="43.868776" lon="11.2288177"><ele>597.1428571428571</ele><time>2026-03-23T16:10:56.957Z</time></trkpt><trkpt lat="43.8687963" lon="11.228912"><ele>599.5714285714286</ele><time>2026-03-23T16:11:00.966Z</time></trkpt><trkpt lat="43.8688212" lon="11.2290055"><ele>602.0</ele><time>2026-03-23T16:11:04.954Z</time></trkpt><trkpt lat="43.8688469" lon="11.229115"><ele>606.1666666666666</ele><time>2026-03-23T16:11:08.965Z</time></trkpt><trkpt lat="43.8688309" lon="11.2292068"><ele>610.3333333333333</ele><time>2026-03-23T16:11:11.96Z</time></trkpt><trkpt lat="43.8688292" lon="11.2293097"><ele>614.5</ele><time>2026-03-23T16:11:15.96Z</time></trkpt><trkpt lat="43.8688918" lon="11.2293643"><ele>618.6666666666666</ele><time>2026-03-23T16:11:20.96Z</time></trkpt><trkpt lat="43.8689721" lon="11.2293467"><ele>622.8333333333334</ele><time>2026-03-23T16:11:26.963Z</time></trkpt><trkpt lat="43.8690393" lon="11.2293599"><ele>627.0</ele><time>2026-03-23T16:11:30.964Z</time></trkpt><trkpt lat="43.8691198" lon="11.2293957"><ele>627.0</ele><time>2026-03-23T16:11:33.958Z</time></trkpt><trkpt lat="43.8691995" lon="11.2294489"><ele>627.0</ele><time>2026-03-23T16:11:37.018Z</time></trkpt><trkpt lat="43.8692668" lon="11.2294511"><ele>627.0</ele><time>2026-03-23T16:11:40.968Z</time></trkpt><trkpt lat="43.8693372" lon="11.2294766"><ele>627.0</ele><time>2026-03-23T16:11:43.962Z</time></trkpt><trkpt lat="43.8694075" lon="11.2295515"><ele>627.0</ele><time>2026-03-23T16:11:45.96Z</time></trkpt><trkpt lat="43.8694699" lon="11.2296168"><ele>627.0</ele><time>2026-03-23T16:11:47.986Z</time></trkpt><trkpt lat="43.8695316" lon="11.2296768"><ele>627.1666666666666</ele><time>2026-03-23T16:11:49.962Z</time></trkpt><trkpt lat="43.8695929" lon="11.2297368"><ele>627.3333333333334</ele><time>2026-03-23T16:11:51.952Z</time></trkpt><trkpt lat="43.8696507" lon="11.2297838"><ele>627.5</ele><time>2026-03-23T16:11:54.025Z</time></trkpt><trkpt lat="43.8697159" lon="11.2298097"><ele>627.6666666666667</ele><time>2026-03-23T16:11:55.955Z</time></trkpt><trkpt lat="43.869794" lon="11.2298445"><ele>627.8333333333334</ele><time>2026-03-23T16:11:57.959Z</time></trkpt><trkpt lat="43.8698681" lon="11.2298771"><ele>628.0</ele><time>2026-03-23T16:11:59.958Z</time></trkpt><trkpt lat="43.8699407" lon="11.2299245"><ele>632.8333333333334</ele><time>2026-03-23T16:12:02.961Z</time></trkpt><trkpt lat="43.8700056" lon="11.2299959"><ele>637.6666666666667</ele><time>2026-03-23T16:12:06.043Z</time></trkpt><trkpt lat="43.870053" lon="11.2300567"><ele>642.5</ele><time>2026-03-23T16:12:07.973Z</time></trkpt><trkpt lat="43.8701204" lon="11.2301262"><ele>647.3333333333334</ele><time>2026-03-23T16:12:10.959Z</time></trkpt><trkpt lat="43.8701821" lon="11.230193"><ele>652.1666666666666</ele><time>2026-03-23T16:12:13.981Z</time></trkpt><trkpt lat="43.8702396" lon="11.2302654"><ele>657.0</ele><time>2026-03-23T16:12:15.963Z</time></trkpt><trkpt lat="43.8702912" lon="11.2303323"><ele>657.4285714285714</ele><time>2026-03-23T16:12:17.961Z</time></trkpt><trkpt lat="43.8703479" lon="11.2303972"><ele>657.8571428571429</ele><time>2026-03-23T16:12:19.963Z</time></trkpt><trkpt lat="43.8704019" lon="11.2304739"><ele>658.2857142857143</ele><time>2026-03-23T16:12:21.96Z</time></trkpt><trkpt lat="43.8704492" lon="11.2305395"><ele>658.7142857142858</ele><time>2026-03-23T16:12:23.965Z</time></trkpt><trkpt lat="43.8705075" lon="11.2305971"><ele>659.1428571428571</ele><time>2026-03-23T16:12:27.031Z</time></trkpt><trkpt lat="43.8705977" lon="11.2306136"><ele>659.5714285714287</ele><time>2026-03-23T16:12:29.962Z</time></trkpt><trkpt lat="43.8706648" lon="11.2306334"><ele>660.0</ele><time>2026-03-23T16:12:31.956Z</time></trkpt><trkpt lat="43.8707281" lon="11.2306681"><ele>661.5</ele><time>2026-03-23T16:12:33.951Z</time></trkpt><trkpt lat="43.8707882" lon="11.2306986"><ele>663.0</ele><time>2026-03-23T16:12:35.956Z</time></trkpt><trkpt lat="43.87087" lon="11.2307186"><ele>664.5</ele><time>2026-03-23T16:12:38.952Z</time></trkpt><trkpt lat="43.8709474" lon="11.2306937"><ele>666.0</ele><time>2026-03-23T16:12:41.963Z</time></trkpt><trkpt lat="43.8710201" lon="11.2306815"><ele>667.5</ele><time>2026-03-23T16:12:43.955Z</time></trkpt><trkpt lat="43.8710928" lon="11.2306484"><ele>669.0</ele><time>2026-03-23T16:12:46.036Z</time></trkpt><trkpt lat="43.8711762" lon="11.2306277"><ele>669.0</ele><time>2026-03-23T16:12:48.027Z</time></trkpt><trkpt lat="43.8712923" lon="11.2306884"><ele>669.0</ele><time>2026-03-23T16:12:49.958Z</time></trkpt><trkpt lat="43.8713705" lon="11.2307029"><ele>669.0</ele><time>2026-03-23T16:12:50.956Z</time></trkpt><trkpt lat="43.8714652" lon="11.2306942"><ele>669.0</ele><time>2026-03-23T16:12:52.964Z</time></trkpt><trkpt lat="43.8715554" lon="11.2306622"><ele>669.0</ele><time>2026-03-23T16:12:54.955Z</time></trkpt><trkpt lat="43.8716458" lon="11.2306216"><ele>669.0</ele><time>2026-03-23T16:12:56.98Z</time></trkpt><trkpt lat="43.8717148" lon="11.2305751"><ele>669.0</ele><time>2026-03-23T16:12:58.965Z</time></trkpt><trkpt lat="43.8717926" lon="11.2305585"><ele>669.0</ele><time>2026-03-23T16:13:00.966Z</time></trkpt><trkpt lat="43.8718724" lon="11.2305723"><ele>669.0</ele><time>2026-03-23T16:13:03.967Z</time></trkpt><trkpt lat="43.8719384" lon="11.2305836"><ele>669.0</ele><time>2026-03-23T16:13:06.028Z</time></trkpt><trkpt lat="43.8719999" lon="11.2306067"><ele>669.0</ele><time>2026-03-23T16:13:08.032Z</time></trkpt><trkpt lat="43.8720729" lon="11.2306338"><ele>669.0</ele><time>2026-03-23T16:13:09.97Z</time></trkpt><trkpt lat="43.8721366" lon="11.2306625"><ele>676.8333333333334</ele><time>2026-03-23T16:13:11.963Z</time></trkpt><trkpt lat="43.8722097" lon="11.230663"><ele>684.6666666666666</ele><time>2026-03-23T16:13:13.96Z</time></trkpt><trkpt lat="43.8722949" lon="11.2306711"><ele>692.5</ele><time>2026-03-23T16:13:15.963Z</time></trkpt><trkpt lat="43.8723728" lon="11.2306963"><ele>700.3333333333333</ele><time>2026-03-23T16:13:17.961Z</time></trkpt><trkpt lat="43.8724457" lon="11.2307189"><ele>708.1666666666666</ele><time>2026-03-23T16:13:19.965Z</time></trkpt><trkpt lat="43.8725094" lon="11.2307346"><ele>716.0</ele><time>2026-03-23T16:13:21.965Z</time></trkpt><trkpt lat="43.8725973" lon="11.2307642"><ele>715.1666666666666</ele><time>2026-03-23T16:13:24.97Z</time></trkpt><trkpt lat="43.8726605" lon="11.2308002"><ele>714.3333333333333</ele><time>2026-03-23T16:13:26.966Z</time></trkpt><trkpt lat="43.8727369" lon="11.2308393"><ele>713.5</ele><time>2026-03-23T16:13:29.962Z</time></trkpt><trkpt lat="43.8728071" lon="11.2308807"><ele>712.6666666666666</ele><time>2026-03-23T16:13:32.969Z</time></trkpt><trkpt lat="43.8728954" lon="11.2309286"><ele>711.8333333333334</ele><time>2026-03-23T16:13:46.954Z</time></trkpt><trkpt lat="43.8730162" lon="11.2309401"><ele>711.0</ele><time>2026-03-23T16:13:53.956Z</time></trkpt><trkpt lat="43.8730866" lon="11.2309609"><ele>711.0</ele><time>2026-03-23T16:14:06.952Z</time></trkpt><trkpt lat="43.8731602" lon="11.2309827"><ele>711.0</ele><time>2026-03-23T16:15:31.938Z</time></trkpt><trkpt lat="43.8732151" lon="11.231041"><ele>711.0</ele><time>2026-03-23T16:17:31.962Z</time></trkpt><trkpt lat="43.8732845" lon="11.2310679"><ele>711.0</ele><time>2026-03-23T16:17:36.972Z</time></trkpt><trkpt lat="43.873357" lon="11.2311329"><ele>711.0</ele><time>2026-03-23T16:17:40.968Z</time></trkpt><trkpt lat="43.8734166" lon="11.2311759"><ele>711.0</ele><time>2026-03-23T16:17:43.968Z</time></trkpt><trkpt lat="43.8734806" lon="11.2312352"><ele>711.0</ele><time>2026-03-23T16:17:46.964Z</time></trkpt><trkpt lat="43.8735506" lon="11.2312924"><ele>710.0</ele><time>2026-03-23T16:17:49.958Z</time></trkpt><trkpt lat="43.8736073" lon="11.231356"><ele>709.0</ele><time>2026-03-23T16:17:53.959Z</time></trkpt><trkpt lat="43.8736659" lon="11.2313953"><ele>708.0</ele><time>2026-03-23T16:17:58.874Z</time></trkpt><trkpt lat="43.8737246" lon="11.2314592"><ele>707.0</ele><time>2026-03-23T16:18:02.957Z</time></trkpt><trkpt lat="43.873778" lon="11.231513"><ele>706.0</ele><time>2026-03-23T16:18:05.914Z</time></trkpt><trkpt lat="43.8738354" lon="11.2315607"><ele>705.0</ele><time>2026-03-23T16:18:08.96Z</time></trkpt><trkpt lat="43.8738937" lon="11.2316385"><ele>704.0</ele><time>2026-03-23T16:18:12.979Z</time></trkpt><trkpt lat="43.8739746" lon="11.2316682"><ele>711.0</ele><time>2026-03-23T16:18:16.927Z</time></trkpt><trkpt lat="43.8740415" lon="11.2316741"><ele>718.0</ele><time>2026-03-23T16:18:20Z</time></trkpt><trkpt lat="43.8741294" lon="11.231703"><ele>725.0</ele><time>2026-03-23T16:18:21.97Z</time></trkpt><trkpt lat="43.8742163" lon="11.2317554"><ele>732.0</ele><time>2026-03-23T16:18:25.034Z</time></trkpt><trkpt lat="43.8742833" lon="11.2318192"><ele>739.0</ele><time>2026-03-23T16:18:27.977Z</time></trkpt><trkpt lat="43.8743432" lon="11.2318533"><ele>746.0</ele><time>2026-03-23T16:18:30.972Z</time></trkpt><trkpt lat="43.8744165" lon="11.2318958"><ele>746.6666666666666</ele><time>2026-03-23T16:18:34.971Z</time></trkpt><trkpt lat="43.8744826" lon="11.2319586"><ele>747.3333333333333</ele><time>2026-03-23T16:18:38.971Z</time></trkpt><trkpt lat="43.874554" lon="11.2320125"><ele>748.0</ele><time>2026-03-23T16:18:42.967Z</time></trkpt><trkpt lat="43.8746104" lon="11.2320536"><ele>748.6666666666666</ele><time>2026-03-23T16:18:46.976Z</time></trkpt><trkpt lat="43.8746753" lon="11.2320875"><ele>749.3333333333334</ele><time>2026-03-23T16:18:50.971Z</time></trkpt><trkpt lat="43.8747424" lon="11.2321292"><ele>750.0</ele><time>2026-03-23T16:18:53.966Z</time></trkpt><trkpt lat="43.8748204" lon="11.2321729"><ele>750.0</ele><time>2026-03-23T16:18:56.97Z</time></trkpt><trkpt lat="43.8748895" lon="11.2322076"><ele>750.0</ele><time>2026-03-23T16:18:58.971Z</time></trkpt><trkpt lat="43.8749685" lon="11.2322486"><ele>750.0</ele><time>2026-03-23T16:19:00.97Z</time></trkpt><trkpt lat="43.8750303" lon="11.2322863"><ele>750.0</ele><time>2026-03-23T16:19:02.967Z</time></trkpt><trkpt lat="43.8750979" lon="11.2323284"><ele>750.0</ele><time>2026-03-23T16:19:04.958Z</time></trkpt><trkpt lat="43.8751764" lon="11.232377"><ele>750.0</ele><time>2026-03-23T16:19:06.972Z</time></trkpt><trkpt lat="43.8752425" lon="11.2324252"><ele>755.2857142857143</ele><time>2026-03-23T16:19:08.99Z</time></trkpt><trkpt lat="43.875298" lon="11.2324691"><ele>760.5714285714286</ele><time>2026-03-23T16:19:10.965Z</time></trkpt><trkpt lat="43.8753625" lon="11.2325041"><ele>765.8571428571429</ele><time>2026-03-23T16:19:12.96Z</time></trkpt><trkpt lat="43.8754286" lon="11.2325276"><ele>771.1428571428571</ele><time>2026-03-23T16:19:15.022Z</time></trkpt><trkpt lat="43.875498" lon="11.2325402"><ele>776.4285714285713</ele><time>2026-03-23T16:19:16.966Z</time></trkpt><trkpt lat="43.8755692" lon="11.2325621"><ele>781.7142857142857</ele><time>2026-03-23T16:19:18.955Z</time></trkpt><trkpt lat="43.8756329" lon="11.2325784"><ele>787.0</ele><time>2026-03-23T16:19:20.967Z</time></trkpt><trkpt lat="43.8757123" lon="11.2325974"><ele>786.9999999999999</ele><time>2026-03-23T16:19:23.963Z</time></trkpt><trkpt lat="43.8758025" lon="11.2326375"><ele>787.0</ele><time>2026-03-23T16:19:26.971Z</time></trkpt><trkpt lat="43.8758775" lon="11.2326943"><ele>787.0</ele><time>2026-03-23T16:19:28.968Z</time></trkpt><trkpt lat="43.8759352" lon="11.2327438"><ele>787.0</ele><time>2026-03-23T16:19:30.97Z</time></trkpt><trkpt lat="43.875868" lon="11.2327984"><ele>786.9999999999999</ele><time>2026-03-23T16:19:44.967Z</time></trkpt><trkpt lat="43.8757871" lon="11.2328769"><ele>787.0</ele><time>2026-03-23T16:19:48.992Z</time></trkpt><trkpt lat="43.8757214" lon="11.2329295"><ele>787.0</ele><time>2026-03-23T16:19:50.964Z</time></trkpt><trkpt lat="43.8756364" lon="11.2329532"><ele>787.0</ele><time>2026-03-23T16:19:52.966Z</time></trkpt><trkpt lat="43.875549" lon="11.2329784"><ele>787.0</ele><time>2026-03-23T16:19:55.025Z</time></trkpt><trkpt lat="43.8754646" lon="11.2330121"><ele>787.0</ele><time>2026-03-23T16:19:56.97Z</time></trkpt><trkpt lat="43.8753625" lon="11.2330396"><ele>787.0</ele><time>2026-03-23T16:19:58.965Z</time></trkpt><trkpt lat="43.8752592" lon="11.2330771"><ele>787.0</ele><time>2026-03-23T16:20:00.968Z</time></trkpt><trkpt lat="43.8751482" lon="11.2330783"><ele>787.0</ele><time>2026-03-23T16:20:02.964Z</time></trkpt><trkpt lat="43.8750475" lon="11.2330946"><ele>787.0</ele><time>2026-03-23T16:20:05.002Z</time></trkpt><trkpt lat="43.8749669" lon="11.2330845"><ele>787.0</ele><time>2026-03-23T16:20:06.971Z</time></trkpt><trkpt lat="43.8748743" lon="11.2330845"><ele>787.0</ele><time>2026-03-23T16:20:08.957Z</time></trkpt><trkpt lat="43.8747609" lon="11.2330575"><ele>785.0</ele><time>2026-03-23T16:20:10.966Z</time></trkpt><trkpt lat="43.8746411" lon="11.2330071"><ele>783.0</ele><time>2026-03-23T16:20:12.971Z</time></trkpt><trkpt lat="43.8745793" lon="11.2329831"><ele>781.0</ele><time>2026-03-23T16:20:13.969Z</time></trkpt><trkpt lat="43.8744691" lon="11.2329564"><ele>779.0</ele><time>2026-03-23T16:20:15.956Z</time></trkpt><trkpt lat="43.8743446" lon="11.23294"><ele>777.0</ele><time>2026-03-23T16:20:17.956Z</time></trkpt><trkpt lat="43.874233" lon="11.2329312"><ele>776.5</ele><time>2026-03-23T16:20:19.954Z</time></trkpt><trkpt lat="43.8741249" lon="11.2329056"><ele>776.0</ele><time>2026-03-23T16:20:21.959Z</time></trkpt><trkpt lat="43.8740138" lon="11.2328673"><ele>775.5</ele><time>2026-03-23T16:20:23.956Z</time></trkpt><trkpt lat="43.873904" lon="11.2327942"><ele>775.0</ele><time>2026-03-23T16:20:25.958Z</time></trkpt><trkpt lat="43.8737913" lon="11.2327261"><ele>775.0</ele><time>2026-03-23T16:20:27.961Z</time></trkpt><trkpt lat="43.873688" lon="11.232662"><ele>775.0</ele><time>2026-03-23T16:20:29.973Z</time></trkpt><trkpt lat="43.8735909" lon="11.2325997"><ele>775.0</ele><time>2026-03-23T16:20:31.963Z</time></trkpt><trkpt lat="43.8734852" lon="11.2325302"><ele>775.0</ele><time>2026-03-23T16:20:33.966Z</time></trkpt><trkpt lat="43.8733713" lon="11.2324797"><ele>775.2</ele><time>2026-03-23T16:20:35.967Z</time></trkpt><trkpt lat="43.8732534" lon="11.2324287"><ele>775.4</ele><time>2026-03-23T16:20:37.967Z</time></trkpt><trkpt lat="43.8731295" lon="11.2323895"><ele>775.5999999999999</ele><time>2026-03-23T16:20:39.97Z</time></trkpt><trkpt lat="43.8730615" lon="11.2323728"><ele>775.8</ele><time>2026-03-23T16:20:40.965Z</time></trkpt><trkpt lat="43.8729452" lon="11.2323537"><ele>776.0</ele><time>2026-03-23T16:20:42.965Z</time></trkpt><trkpt lat="43.8728816" lon="11.2323385"><ele>776.0</ele><time>2026-03-23T16:20:43.968Z</time></trkpt><trkpt lat="43.8728181" lon="11.2323325"><ele>776.0</ele><time>2026-03-23T16:20:44.964Z</time></trkpt><trkpt lat="43.8727151" lon="11.2323453"><ele>776.0</ele><time>2026-03-23T16:20:46.963Z</time></trkpt><trkpt lat="43.8726013" lon="11.2323339"><ele>776.0</ele><time>2026-03-23T16:20:48.965Z</time></trkpt><trkpt lat="43.8724922" lon="11.2323348"><ele>776.0</ele><time>2026-03-23T16:20:51.032Z</time></trkpt><trkpt lat="43.8723876" lon="11.232346"><ele>774.8</ele><time>2026-03-23T16:20:52.967Z</time></trkpt><trkpt lat="43.8722716" lon="11.2323501"><ele>773.5999999999999</ele><time>2026-03-23T16:20:55.023Z</time></trkpt><trkpt lat="43.8721657" lon="11.2323756"><ele>772.4</ele><time>2026-03-23T16:20:56.96Z</time></trkpt><trkpt lat="43.8720625" lon="11.2324097"><ele>771.2</ele><time>2026-03-23T16:20:58.973Z</time></trkpt><trkpt lat="43.8719572" lon="11.2324475"><ele>770.0</ele><time>2026-03-23T16:21:01.03Z</time></trkpt><trkpt lat="43.8718546" lon="11.2324778"><ele>767.2</ele><time>2026-03-23T16:21:02.961Z</time></trkpt><trkpt lat="43.871752" lon="11.2325014"><ele>764.4</ele><time>2026-03-23T16:21:04.958Z</time></trkpt><trkpt lat="43.8716582" lon="11.2325606"><ele>761.5999999999999</ele><time>2026-03-23T16:21:06.956Z</time></trkpt><trkpt lat="43.8715744" lon="11.2326096"><ele>758.8</ele><time>2026-03-23T16:21:08.955Z</time></trkpt><trkpt lat="43.8714858" lon="11.2326508"><ele>756.0</ele><time>2026-03-23T16:21:10.952Z</time></trkpt><trkpt lat="43.8713898" lon="11.232694"><ele>756.0</ele><time>2026-03-23T16:21:12.962Z</time></trkpt><trkpt lat="43.8712871" lon="11.2327288"><ele>756.0</ele><time>2026-03-23T16:21:14.96Z</time></trkpt><trkpt lat="43.8711815" lon="11.232769"><ele>756.0</ele><time>2026-03-23T16:21:16.955Z</time></trkpt><trkpt lat="43.871069" lon="11.2327901"><ele>756.0</ele><time>2026-03-23T16:21:18.958Z</time></trkpt><trkpt lat="43.8709638" lon="11.2327884"><ele>756.0</ele><time>2026-03-23T16:21:20.957Z</time></trkpt><trkpt lat="43.8708637" lon="11.2327624"><ele>753.0</ele><time>2026-03-23T16:21:22.963Z</time></trkpt><trkpt lat="43.8707658" lon="11.232731"><ele>750.0</ele><time>2026-03-23T16:21:24.957Z</time></trkpt><trkpt lat="43.8706615" lon="11.2327004"><ele>747.0</ele><time>2026-03-23T16:21:26.959Z</time></trkpt><trkpt lat="43.8705583" lon="11.2326915"><ele>744.0</ele><time>2026-03-23T16:21:28.957Z</time></trkpt><trkpt lat="43.8704716" lon="11.232683"><ele>741.0</ele><time>2026-03-23T16:21:30.961Z</time></trkpt><trkpt lat="43.870408" lon="11.2326811"><ele>741.0</ele><time>2026-03-23T16:21:33.956Z</time></trkpt><trkpt lat="43.8703369" lon="11.2326666"><ele>741.0</ele><time>2026-03-23T16:22:00.956Z</time></trkpt><trkpt lat="43.8702642" lon="11.2327079"><ele>741.0</ele><time>2026-03-23T16:22:03.952Z</time></trkpt><trkpt lat="43.8702096" lon="11.2327658"><ele>741.0</ele><time>2026-03-23T16:22:06.958Z</time></trkpt><trkpt lat="43.8701504" lon="11.2328084"><ele>741.0</ele><time>2026-03-23T16:22:09.959Z</time></trkpt><trkpt lat="43.8700967" lon="11.232889"><ele>741.0</ele><time>2026-03-23T16:22:13.956Z</time></trkpt><trkpt lat="43.8700601" lon="11.2329696"><ele>741.0</ele><time>2026-03-23T16:22:16.963Z</time></trkpt><trkpt lat="43.8700156" lon="11.2330732"><ele>739.0</ele><time>2026-03-23T16:22:22.958Z</time></trkpt><trkpt lat="43.8699882" lon="11.2331969"><ele>737.0</ele><time>2026-03-23T16:22:25.948Z</time></trkpt><trkpt lat="43.8699753" lon="11.2332925"><ele>735.0</ele><time>2026-03-23T16:22:27.962Z</time></trkpt><trkpt lat="43.8699526" lon="11.2333908"><ele>733.0</ele><time>2026-03-23T16:22:29.954Z</time></trkpt><trkpt lat="43.8699345" lon="11.2335115"><ele>731.0</ele><time>2026-03-23T16:22:31.962Z</time></trkpt><trkpt lat="43.8699184" lon="11.2336244"><ele>729.0</ele><time>2026-03-23T16:22:34.033Z</time></trkpt><trkpt lat="43.8699097" lon="11.233728"><ele>729.0</ele><time>2026-03-23T16:22:35.96Z</time></trkpt><trkpt lat="43.8699058" lon="11.2338249"><ele>729.0</ele><time>2026-03-23T16:22:37.955Z</time></trkpt><trkpt lat="43.8699055" lon="11.2339318"><ele>729.0</ele><time>2026-03-23T16:22:40.017Z</time></trkpt><trkpt lat="43.8698991" lon="11.2340626"><ele>729.0</ele><time>2026-03-23T16:22:41.961Z</time></trkpt><trkpt lat="43.8698906" lon="11.2341977"><ele>729.0</ele><time>2026-03-23T16:22:43.951Z</time></trkpt><trkpt lat="43.869884" lon="11.2343202"><ele>729.0</ele><time>2026-03-23T16:22:45.947Z</time></trkpt><trkpt lat="43.869885" lon="11.2344398"><ele>728.0</ele><time>2026-03-23T16:22:47.956Z</time></trkpt><trkpt lat="43.8698911" lon="11.2345569"><ele>727.0</ele><time>2026-03-23T16:22:49.954Z</time></trkpt><trkpt lat="43.869904" lon="11.2346894"><ele>726.0</ele><time>2026-03-23T16:22:51.951Z</time></trkpt><trkpt lat="43.8699336" lon="11.2348465"><ele>725.0</ele><time>2026-03-23T16:22:53.947Z</time></trkpt><trkpt lat="43.8699655" lon="11.2350022"><ele>724.0</ele><time>2026-03-23T16:22:56.035Z</time></trkpt><trkpt lat="43.8699932" lon="11.2351351"><ele>724.0</ele><time>2026-03-23T16:22:57.966Z</time></trkpt><trkpt lat="43.8700197" lon="11.2352854"><ele>724.0</ele><time>2026-03-23T16:22:59.969Z</time></trkpt><trkpt lat="43.8700506" lon="11.2354225"><ele>724.0</ele><time>2026-03-23T16:23:01.957Z</time></trkpt><trkpt lat="43.8700632" lon="11.2355576"><ele>724.0</ele><time>2026-03-23T16:23:03.968Z</time></trkpt><trkpt lat="43.8700834" lon="11.2356852"><ele>724.0</ele><time>2026-03-23T16:23:05.968Z</time></trkpt><trkpt lat="43.8701118" lon="11.2358195"><ele>734.6</ele><time>2026-03-23T16:23:07.972Z</time></trkpt><trkpt lat="43.870133" lon="11.2359579"><ele>745.2</ele><time>2026-03-23T16:23:10.011Z</time></trkpt><trkpt lat="43.8701476" lon="11.2360948"><ele>755.8000000000001</ele><time>2026-03-23T16:23:11.943Z</time></trkpt><trkpt lat="43.8701661" lon="11.2362073"><ele>766.4000000000001</ele><time>2026-03-23T16:23:13.954Z</time></trkpt><trkpt lat="43.8701812" lon="11.2363428"><ele>777.0</ele><time>2026-03-23T16:23:15.953Z</time></trkpt><trkpt lat="43.8702005" lon="11.2364693"><ele>774.8</ele><time>2026-03-23T16:23:18.002Z</time></trkpt><trkpt lat="43.8702109" lon="11.2366085"><ele>772.6</ele><time>2026-03-23T16:23:19.951Z</time></trkpt><trkpt lat="43.8702146" lon="11.2367224"><ele>770.4</ele><time>2026-03-23T16:23:21.949Z</time></trkpt><trkpt lat="43.8701935" lon="11.2368456"><ele>768.1999999999999</ele><time>2026-03-23T16:23:23.955Z</time></trkpt><trkpt lat="43.8701258" lon="11.2369425"><ele>766.0</ele><time>2026-03-23T16:23:25.957Z</time></trkpt><trkpt lat="43.8700587" lon="11.2370061"><ele>753.1999999999999</ele><time>2026-03-23T16:23:27.954Z</time></trkpt><trkpt lat="43.8699722" lon="11.2370698"><ele>740.4</ele><time>2026-03-23T16:23:29.961Z</time></trkpt><trkpt lat="43.8698755" lon="11.2371153"><ele>727.6</ele><time>2026-03-23T16:23:31.958Z</time></trkpt><trkpt lat="43.8697761" lon="11.2371751"><ele>714.8</ele><time>2026-03-23T16:23:33.953Z</time></trkpt><trkpt lat="43.8696796" lon="11.2372233"><ele>702.0</ele><time>2026-03-23T16:23:35.957Z</time></trkpt><trkpt lat="43.8695927" lon="11.2372839"><ele>699.0</ele><time>2026-03-23T16:23:37.955Z</time></trkpt><trkpt lat="43.869496" lon="11.2373638"><ele>696.0</ele><time>2026-03-23T16:23:39.962Z</time></trkpt><trkpt lat="43.8694121" lon="11.2374195"><ele>693.0</ele><time>2026-03-23T16:23:41.956Z</time></trkpt><trkpt lat="43.8693248" lon="11.2374773"><ele>690.0</ele><time>2026-03-23T16:23:43.955Z</time></trkpt><trkpt lat="43.8692205" lon="11.237551"><ele>687.0</ele><time>2026-03-23T16:23:45.949Z</time></trkpt><trkpt lat="43.8691292" lon="11.237629"><ele>687.0</ele><time>2026-03-23T16:23:47.955Z</time></trkpt><trkpt lat="43.8690512" lon="11.237715"><ele>687.0</ele><time>2026-03-23T16:23:49.949Z</time></trkpt><trkpt lat="43.8689716" lon="11.2377923"><ele>687.0</ele><time>2026-03-23T16:23:51.958Z</time></trkpt><trkpt lat="43.8688896" lon="11.2378865"><ele>687.0</ele><time>2026-03-23T16:23:53.953Z</time></trkpt><trkpt lat="43.868823" lon="11.2380117"><ele>687.0</ele><time>2026-03-23T16:23:55.957Z</time></trkpt><trkpt lat="43.8687799" lon="11.2381624"><ele>691.4285714285714</ele><time>2026-03-23T16:23:57.953Z</time></trkpt><trkpt lat="43.868762" lon="11.2382499"><ele>695.8571428571428</ele><time>2026-03-23T16:23:58.959Z</time></trkpt><trkpt lat="43.8687415" lon="11.2383347"><ele>700.2857142857142</ele><time>2026-03-23T16:23:59.958Z</time></trkpt><trkpt lat="43.8687048" lon="11.2384135"><ele>704.7142857142858</ele><time>2026-03-23T16:24:00.96Z</time></trkpt><trkpt lat="43.868668" lon="11.2384924"><ele>709.1428571428571</ele><time>2026-03-23T16:24:01.958Z</time></trkpt><trkpt lat="43.8686265" lon="11.2385681"><ele>713.5714285714286</ele><time>2026-03-23T16:24:02.957Z</time></trkpt><trkpt lat="43.8685802" lon="11.238636"><ele>718.0</ele><time>2026-03-23T16:24:03.955Z</time></trkpt><trkpt lat="43.8685336" lon="11.2386961"><ele>718.0</ele><time>2026-03-23T16:24:04.958Z</time></trkpt><trkpt lat="43.8684789" lon="11.2387533"><ele>718.0</ele><time>2026-03-23T16:24:05.954Z</time></trkpt><trkpt lat="43.8684198" lon="11.2387978"><ele>718.0</ele><time>2026-03-23T16:24:06.954Z</time></trkpt><trkpt lat="43.8683564" lon="11.2388418"><ele>718.0</ele><time>2026-03-23T16:24:07.957Z</time></trkpt><trkpt lat="43.8682862" lon="11.2388821"><ele>718.0</ele><time>2026-03-23T16:24:08.956Z</time></trkpt><trkpt lat="43.8682161" lon="11.2389211"><ele>718.0</ele><time>2026-03-23T16:24:09.953Z</time></trkpt><trkpt lat="43.8681435" lon="11.2389454"><ele>718.0</ele><time>2026-03-23T16:24:10.957Z</time></trkpt><trkpt lat="43.8680788" lon="11.2389655"><ele>715.6666666666667</ele><time>2026-03-23T16:24:11.96Z</time></trkpt><trkpt lat="43.8680105" lon="11.2389895"><ele>713.3333333333334</ele><time>2026-03-23T16:24:12.955Z</time></trkpt><trkpt lat="43.8679426" lon="11.239012"><ele>711.0</ele><time>2026-03-23T16:24:13.952Z</time></trkpt><trkpt lat="43.867874" lon="11.2390355"><ele>708.6666666666666</ele><time>2026-03-23T16:24:14.958Z</time></trkpt><trkpt lat="43.8678027" lon="11.2390607"><ele>706.3333333333333</ele><time>2026-03-23T16:24:15.953Z</time></trkpt><trkpt lat="43.8677387" lon="11.2390856"><ele>704.0</ele><time>2026-03-23T16:24:16.954Z</time></trkpt><trkpt lat="43.8676157" lon="11.2391453"><ele>700.3333333333333</ele><time>2026-03-23T16:24:18.958Z</time></trkpt><trkpt lat="43.8675514" lon="11.2391689"><ele>696.6666666666666</ele><time>2026-03-23T16:24:19.95Z</time></trkpt><trkpt lat="43.8674903" lon="11.239192"><ele>693.0</ele><time>2026-03-23T16:24:20.954Z</time></trkpt><trkpt lat="43.8673711" lon="11.239226"><ele>689.3333333333334</ele><time>2026-03-23T16:24:22.956Z</time></trkpt><trkpt lat="43.8673061" lon="11.2392304"><ele>685.6666666666667</ele><time>2026-03-23T16:24:24.041Z</time></trkpt><trkpt lat="43.8671797" lon="11.239222"><ele>682.0</ele><time>2026-03-23T16:24:26.04Z</time></trkpt><trkpt lat="43.8670538" lon="11.2392135"><ele>682.0</ele><time>2026-03-23T16:24:27.972Z</time></trkpt><trkpt lat="43.8669335" lon="11.2392052"><ele>682.0</ele><time>2026-03-23T16:24:30.027Z</time></trkpt><trkpt lat="43.8668183" lon="11.2392135"><ele>682.0</ele><time>2026-03-23T16:24:31.959Z</time></trkpt><trkpt lat="43.8667084" lon="11.2392327"><ele>682.0</ele><time>2026-03-23T16:24:34.004Z</time></trkpt><trkpt lat="43.8666032" lon="11.23926"><ele>681.6</ele><time>2026-03-23T16:24:36.02Z</time></trkpt><trkpt lat="43.8665156" lon="11.2393241"><ele>681.2</ele><time>2026-03-23T16:24:37.96Z</time></trkpt><trkpt lat="43.866445" lon="11.2394282"><ele>680.8</ele><time>2026-03-23T16:24:40.025Z</time></trkpt><trkpt lat="43.8663856" lon="11.2395359"><ele>680.4</ele><time>2026-03-23T16:24:41.964Z</time></trkpt><trkpt lat="43.8663422" lon="11.2396421"><ele>680.0</ele><time>2026-03-23T16:24:43.961Z</time></trkpt><trkpt lat="43.8663125" lon="11.2397291"><ele>680.4285714285714</ele><time>2026-03-23T16:24:45.962Z</time></trkpt><trkpt lat="43.8662949" lon="11.2398177"><ele>680.8571428571428</ele><time>2026-03-23T16:24:48.014Z</time></trkpt><trkpt lat="43.8662969" lon="11.2399104"><ele>681.2857142857142</ele><time>2026-03-23T16:24:49.957Z</time></trkpt><trkpt lat="43.866305" lon="11.2400259"><ele>681.7142857142858</ele><time>2026-03-23T16:24:53.958Z</time></trkpt><trkpt lat="43.8663574" lon="11.2400976"><ele>682.1428571428571</ele><time>2026-03-23T16:25:07.956Z</time></trkpt><trkpt lat="43.8663965" lon="11.2401724"><ele>682.5714285714286</ele><time>2026-03-23T16:25:10.964Z</time></trkpt><trkpt lat="43.8664027" lon="11.2402929"><ele>683.0</ele><time>2026-03-23T16:25:14.964Z</time></trkpt><trkpt lat="43.866381" lon="11.2403998"><ele>683.0</ele><time>2026-03-23T16:25:18.964Z</time></trkpt><trkpt lat="43.8663591" lon="11.2404918"><ele>683.0</ele><time>2026-03-23T16:25:21.957Z</time></trkpt><trkpt lat="43.8663455" lon="11.2405848"><ele>683.0</ele><time>2026-03-23T16:25:24.965Z</time></trkpt><trkpt lat="43.8663082" lon="11.2406885"><ele>683.0</ele><time>2026-03-23T16:25:27.965Z</time></trkpt><trkpt lat="43.8662853" lon="11.2407819"><ele>683.0</ele><time>2026-03-23T16:25:30.962Z</time></trkpt><trkpt lat="43.8662663" lon="11.2408716"><ele>683.0</ele><time>2026-03-23T16:25:55.959Z</time></trkpt><trkpt lat="43.8662389" lon="11.2407875"><ele>683.0</ele><time>2026-03-23T16:25:59.975Z</time></trkpt><trkpt lat="43.8662547" lon="11.2406773"><ele>683.0</ele><time>2026-03-23T16:26:02.961Z</time></trkpt><trkpt lat="43.866282" lon="11.2405871"><ele>683.0</ele><time>2026-03-23T16:26:04.962Z</time></trkpt><trkpt lat="43.8663054" lon="11.2404952"><ele>683.0</ele><time>2026-03-23T16:26:06.964Z</time></trkpt><trkpt lat="43.8663277" lon="11.2404001"><ele>683.0</ele><time>2026-03-23T16:26:08.962Z</time></trkpt><trkpt lat="43.866318" lon="11.2402862"><ele>683.0</ele><time>2026-03-23T16:26:11.96Z</time></trkpt><trkpt lat="43.866258" lon="11.2402411"><ele>683.0</ele><time>2026-03-23T16:26:13.966Z</time></trkpt><trkpt lat="43.866191" lon="11.2402691"><ele>683.0</ele><time>2026-03-23T16:26:15.957Z</time></trkpt><trkpt lat="43.8660966" lon="11.2403057"><ele>683.0</ele><time>2026-03-23T16:26:17.957Z</time></trkpt><trkpt lat="43.8660127" lon="11.2403518"><ele>683.0</ele><time>2026-03-23T16:26:19.957Z</time></trkpt><trkpt lat="43.8659156" lon="11.2403907"><ele>683.0</ele><time>2026-03-23T16:26:21.957Z</time></trkpt><trkpt lat="43.8658104" lon="11.2403951"><ele>683.0</ele><time>2026-03-23T16:26:23.959Z</time></trkpt><trkpt lat="43.8657224" lon="11.2403948"><ele>683.0</ele><time>2026-03-23T16:26:25.959Z</time></trkpt><trkpt lat="43.8656388" lon="11.2403889"><ele>680.8</ele><time>2026-03-23T16:26:27.964Z</time></trkpt><trkpt lat="43.8655535" lon="11.2403807"><ele>678.5999999999999</ele><time>2026-03-23T16:26:29.961Z</time></trkpt><trkpt lat="43.8654567" lon="11.2403592"><ele>676.4000000000001</ele><time>2026-03-23T16:26:31.964Z</time></trkpt><trkpt lat="43.8653624" lon="11.2403274"><ele>674.2</ele><time>2026-03-23T16:26:33.967Z</time></trkpt><trkpt lat="43.8652701" lon="11.2403126"><ele>672.0</ele><time>2026-03-23T16:26:35.962Z</time></trkpt><trkpt lat="43.8651878" lon="11.2402922"><ele>672.0</ele><time>2026-03-23T16:26:37.955Z</time></trkpt><trkpt lat="43.865123" lon="11.2403047"><ele>672.0</ele><time>2026-03-23T16:26:38.961Z</time></trkpt><trkpt lat="43.8650282" lon="11.240296"><ele>672.0</ele><time>2026-03-23T16:26:40.961Z</time></trkpt><trkpt lat="43.8649155" lon="11.240292"><ele>672.0</ele><time>2026-03-23T16:26:42.968Z</time></trkpt><trkpt lat="43.8648185" lon="11.2402927"><ele>672.0</ele><time>2026-03-23T16:26:44.96Z</time></trkpt><trkpt lat="43.8647299" lon="11.2402896"><ele>669.6</ele><time>2026-03-23T16:26:46.964Z</time></trkpt><trkpt lat="43.8646428" lon="11.240299"><ele>667.2</ele><time>2026-03-23T16:26:48.958Z</time></trkpt><trkpt lat="43.8645156" lon="11.2402849"><ele>664.8</ele><time>2026-03-23T16:26:50.957Z</time></trkpt><trkpt lat="43.8644517" lon="11.2402862"><ele>662.4</ele><time>2026-03-23T16:26:51.96Z</time></trkpt><trkpt lat="43.8643601" lon="11.2402893"><ele>660.0</ele><time>2026-03-23T16:26:53.962Z</time></trkpt><trkpt lat="43.8642718" lon="11.2402899"><ele>659.7142857142858</ele><time>2026-03-23T16:26:55.956Z</time></trkpt><trkpt lat="43.8641857" lon="11.2402811"><ele>659.4285714285714</ele><time>2026-03-23T16:26:57.956Z</time></trkpt><trkpt lat="43.8641084" lon="11.2402653"><ele>659.1428571428571</ele><time>2026-03-23T16:26:58.963Z</time></trkpt><trkpt lat="43.8640431" lon="11.2402532"><ele>658.8571428571429</ele><time>2026-03-23T16:26:59.962Z</time></trkpt><trkpt lat="43.8639766" lon="11.2402385"><ele>658.5714285714286</ele><time>2026-03-23T16:27:00.959Z</time></trkpt><trkpt lat="43.8639105" lon="11.2402325"><ele>658.2857142857143</ele><time>2026-03-23T16:27:01.96Z</time></trkpt><trkpt lat="43.8638463" lon="11.2402135"><ele>658.0</ele><time>2026-03-23T16:27:02.962Z</time></trkpt><trkpt lat="43.8637238" lon="11.2401756"><ele>658.0</ele><time>2026-03-23T16:27:04.956Z</time></trkpt><trkpt lat="43.8636578" lon="11.2401596"><ele>658.0</ele><time>2026-03-23T16:27:05.955Z</time></trkpt><trkpt lat="43.8635899" lon="11.2401477"><ele>658.0</ele><time>2026-03-23T16:27:06.955Z</time></trkpt><trkpt lat="43.8635236" lon="11.2401308"><ele>658.0</ele><time>2026-03-23T16:27:07.949Z</time></trkpt><trkpt lat="43.8633989" lon="11.240115"><ele>658.0</ele><time>2026-03-23T16:27:09.956Z</time></trkpt><trkpt lat="43.8632747" lon="11.2400823"><ele>658.0</ele><time>2026-03-23T16:27:11.952Z</time></trkpt><trkpt lat="43.8631533" lon="11.2400918"><ele>658.0</ele><time>2026-03-23T16:27:13.958Z</time></trkpt><trkpt lat="43.8630765" lon="11.2401006"><ele>658.0</ele><time>2026-03-23T16:27:15.963Z</time></trkpt><trkpt lat="43.8629887" lon="11.2401186"><ele>658.0</ele><time>2026-03-23T16:27:17.962Z</time></trkpt><trkpt lat="43.8628761" lon="11.2401233"><ele>658.0</ele><time>2026-03-23T16:27:19.959Z</time></trkpt><trkpt lat="43.8627501" lon="11.2400968"><ele>658.0</ele><time>2026-03-23T16:27:21.96Z</time></trkpt><trkpt lat="43.8626449" lon="11.2400563"><ele>658.0</ele><time>2026-03-23T16:27:23.957Z</time></trkpt><trkpt lat="43.8625374" lon="11.2400336"><ele>658.0</ele><time>2026-03-23T16:27:25.963Z</time></trkpt><trkpt lat="43.8624145" lon="11.2400151"><ele>658.0</ele><time>2026-03-23T16:27:27.963Z</time></trkpt><trkpt lat="43.8623347" lon="11.2399929"><ele>658.0</ele><time>2026-03-23T16:27:29.957Z</time></trkpt><trkpt lat="43.8622166" lon="11.2399635"><ele>658.6666666666667</ele><time>2026-03-23T16:27:31.957Z</time></trkpt><trkpt lat="43.8621112" lon="11.239941"><ele>659.3333333333334</ele><time>2026-03-23T16:27:33.955Z</time></trkpt><trkpt lat="43.8619772" lon="11.2399311"><ele>660.0</ele><time>2026-03-23T16:27:35.961Z</time></trkpt><trkpt lat="43.8619104" lon="11.2399006"><ele>660.6666666666666</ele><time>2026-03-23T16:27:36.966Z</time></trkpt><trkpt lat="43.8618461" lon="11.2398606"><ele>661.3333333333333</ele><time>2026-03-23T16:27:37.955Z</time></trkpt><trkpt lat="43.8617887" lon="11.2398193"><ele>662.0</ele><time>2026-03-23T16:27:38.959Z</time></trkpt><trkpt lat="43.8617326" lon="11.2397763"><ele>659.3333333333333</ele><time>2026-03-23T16:27:39.965Z</time></trkpt><trkpt lat="43.8616389" lon="11.2397199"><ele>656.6666666666666</ele><time>2026-03-23T16:27:41.961Z</time></trkpt><trkpt lat="43.8615459" lon="11.2396721"><ele>654.0</ele><time>2026-03-23T16:27:43.958Z</time></trkpt><trkpt lat="43.8614491" lon="11.2396307"><ele>651.3333333333334</ele><time>2026-03-23T16:27:45.96Z</time></trkpt><trkpt lat="43.8613772" lon="11.2396126"><ele>648.6666666666667</ele><time>2026-03-23T16:27:46.947Z</time></trkpt><trkpt lat="43.8613129" lon="11.2396064"><ele>646.0</ele><time>2026-03-23T16:27:47.962Z</time></trkpt><trkpt lat="43.8611933" lon="11.2396166"><ele>646.0</ele><time>2026-03-23T16:27:49.961Z</time></trkpt><trkpt lat="43.8610899" lon="11.2396115"><ele>646.0</ele><time>2026-03-23T16:27:51.957Z</time></trkpt><trkpt lat="43.8609837" lon="11.2396069"><ele>646.0</ele><time>2026-03-23T16:27:53.958Z</time></trkpt><trkpt lat="43.8608688" lon="11.2396071"><ele>646.0</ele><time>2026-03-23T16:27:55.963Z</time></trkpt><trkpt lat="43.8607497" lon="11.2396167"><ele>646.0</ele><time>2026-03-23T16:27:57.959Z</time></trkpt><trkpt lat="43.8606826" lon="11.2396236"><ele>646.0</ele><time>2026-03-23T16:27:58.957Z</time></trkpt><trkpt lat="43.8605562" lon="11.2396542"><ele>646.0</ele><time>2026-03-23T16:28:00.961Z</time></trkpt><trkpt lat="43.8604931" lon="11.2396633"><ele>646.0</ele><time>2026-03-23T16:28:01.954Z</time></trkpt><trkpt lat="43.8604266" lon="11.2396677"><ele>646.0</ele><time>2026-03-23T16:28:02.96Z</time></trkpt><trkpt lat="43.8603599" lon="11.2396641"><ele>646.0</ele><time>2026-03-23T16:28:03.961Z</time></trkpt><trkpt lat="43.8602921" lon="11.2396592"><ele>646.0</ele><time>2026-03-23T16:28:04.959Z</time></trkpt><trkpt lat="43.8602252" lon="11.2396499"><ele>646.0000000000001</ele><time>2026-03-23T16:28:05.964Z</time></trkpt><trkpt lat="43.8601594" lon="11.2396483"><ele>646.0</ele><time>2026-03-23T16:28:06.961Z</time></trkpt><trkpt lat="43.8600934" lon="11.2396468"><ele>646.0</ele><time>2026-03-23T16:28:07.957Z</time></trkpt><trkpt lat="43.8600282" lon="11.2396464"><ele>646.0</ele><time>2026-03-23T16:28:08.963Z</time></trkpt><trkpt lat="43.8599574" lon="11.239652"><ele>646.0</ele><time>2026-03-23T16:28:09.96Z</time></trkpt><trkpt lat="43.8598827" lon="11.2396657"><ele>646.0000000000001</ele><time>2026-03-23T16:28:10.966Z</time></trkpt><trkpt lat="43.8598057" lon="11.2396827"><ele>646.0</ele><time>2026-03-23T16:28:11.961Z</time></trkpt><trkpt lat="43.8597338" lon="11.2396815"><ele>646.1666666666667</ele><time>2026-03-23T16:28:12.966Z</time></trkpt><trkpt lat="43.8596592" lon="11.2396899"><ele>646.3333333333334</ele><time>2026-03-23T16:28:13.955Z</time></trkpt><trkpt lat="43.859578" lon="11.2396855"><ele>646.5</ele><time>2026-03-23T16:28:14.96Z</time></trkpt><trkpt lat="43.8595067" lon="11.2396938"><ele>646.6666666666666</ele><time>2026-03-23T16:28:15.966Z</time></trkpt><trkpt lat="43.8594282" lon="11.239701"><ele>646.8333333333333</ele><time>2026-03-23T16:28:16.967Z</time></trkpt><trkpt lat="43.8593557" lon="11.2397236"><ele>647.0</ele><time>2026-03-23T16:28:17.959Z</time></trkpt><trkpt lat="43.8592848" lon="11.2397507"><ele>647.2</ele><time>2026-03-23T16:28:18.959Z</time></trkpt><trkpt lat="43.8592119" lon="11.239773"><ele>647.4000000000001</ele><time>2026-03-23T16:28:19.956Z</time></trkpt><trkpt lat="43.859142" lon="11.239788"><ele>647.5999999999999</ele><time>2026-03-23T16:28:20.958Z</time></trkpt><trkpt lat="43.8590727" lon="11.239804"><ele>647.8</ele><time>2026-03-23T16:28:21.957Z</time></trkpt><trkpt lat="43.858959" lon="11.239824"><ele>648.0</ele><time>2026-03-23T16:28:23.953Z</time></trkpt><trkpt lat="43.8588403" lon="11.2398452"><ele>648.0</ele><time>2026-03-23T16:28:25.962Z</time></trkpt><trkpt lat="43.8587755" lon="11.239854"><ele>648.0</ele><time>2026-03-23T16:28:26.962Z</time></trkpt><trkpt lat="43.8587027" lon="11.2398638"><ele>648.0</ele><time>2026-03-23T16:28:27.962Z</time></trkpt><trkpt lat="43.858632" lon="11.2398779"><ele>648.0</ele><time>2026-03-23T16:28:28.96Z</time></trkpt><trkpt lat="43.8585663" lon="11.2399006"><ele>648.0</ele><time>2026-03-23T16:28:29.958Z</time></trkpt><trkpt lat="43.8584483" lon="11.2399521"><ele>648.0</ele><time>2026-03-23T16:28:31.965Z</time></trkpt><trkpt lat="43.8583895" lon="11.2399866"><ele>648.1428571428571</ele><time>2026-03-23T16:28:32.96Z</time></trkpt><trkpt lat="43.8583335" lon="11.240028"><ele>648.2857142857142</ele><time>2026-03-23T16:28:33.96Z</time></trkpt><trkpt lat="43.8582771" lon="11.2400807"><ele>648.4285714285713</ele><time>2026-03-23T16:28:34.956Z</time></trkpt><trkpt lat="43.8582256" lon="11.2401493"><ele>648.5714285714286</ele><time>2026-03-23T16:28:35.963Z</time></trkpt><trkpt lat="43.8581693" lon="11.2402152"><ele>648.7142857142857</ele><time>2026-03-23T16:28:36.964Z</time></trkpt><trkpt lat="43.8581159" lon="11.2402894"><ele>648.8571428571428</ele><time>2026-03-23T16:28:37.948Z</time></trkpt><trkpt lat="43.8580661" lon="11.2403731"><ele>649.0</ele><time>2026-03-23T16:28:38.962Z</time></trkpt><trkpt lat="43.858016" lon="11.2404579"><ele>648.9999999999999</ele><time>2026-03-23T16:28:39.956Z</time></trkpt><trkpt lat="43.8579769" lon="11.240531"><ele>649.0</ele><time>2026-03-23T16:28:40.96Z</time></trkpt><trkpt lat="43.8579263" lon="11.2405984"><ele>649.0</ele><time>2026-03-23T16:28:41.957Z</time></trkpt><trkpt lat="43.8578714" lon="11.2406502"><ele>649.0</ele><time>2026-03-23T16:28:42.961Z</time></trkpt><trkpt lat="43.8578091" lon="11.2407007"><ele>649.0</ele><time>2026-03-23T16:28:43.957Z</time></trkpt><trkpt lat="43.8577461" lon="11.2407359"><ele>648.9999999999999</ele><time>2026-03-23T16:28:44.962Z</time></trkpt><trkpt lat="43.8576771" lon="11.2407587"><ele>649.0</ele><time>2026-03-23T16:28:45.958Z</time></trkpt><trkpt lat="43.8576068" lon="11.2407753"><ele>648.0</ele><time>2026-03-23T16:28:46.961Z</time></trkpt><trkpt lat="43.8575358" lon="11.2407912"><ele>647.0</ele><time>2026-03-23T16:28:47.959Z</time></trkpt><trkpt lat="43.8574629" lon="11.2408038"><ele>646.0</ele><time>2026-03-23T16:28:48.969Z</time></trkpt><trkpt lat="43.8573825" lon="11.2407904"><ele>645.0</ele><time>2026-03-23T16:28:49.959Z</time></trkpt><trkpt lat="43.8573073" lon="11.2407572"><ele>644.0</ele><time>2026-03-23T16:28:50.962Z</time></trkpt><trkpt lat="43.8572382" lon="11.2406994"><ele>643.0</ele><time>2026-03-23T16:28:51.958Z</time></trkpt><trkpt lat="43.8571726" lon="11.2406354"><ele>644.0</ele><time>2026-03-23T16:28:52.963Z</time></trkpt><trkpt lat="43.8571027" lon="11.2405582"><ele>645.0</ele><time>2026-03-23T16:28:53.963Z</time></trkpt><trkpt lat="43.8570317" lon="11.2404813"><ele>646.0</ele><time>2026-03-23T16:28:54.961Z</time></trkpt><trkpt lat="43.8569617" lon="11.2404102"><ele>647.0</ele><time>2026-03-23T16:28:55.96Z</time></trkpt><trkpt lat="43.8568849" lon="11.2403418"><ele>648.0</ele><time>2026-03-23T16:28:56.962Z</time></trkpt><trkpt lat="43.8568066" lon="11.2402846"><ele>649.0</ele><time>2026-03-23T16:28:57.95Z</time></trkpt><trkpt lat="43.856714" lon="11.2402293"><ele>649.0</ele><time>2026-03-23T16:28:58.961Z</time></trkpt><trkpt lat="43.8566124" lon="11.2401823"><ele>649.0</ele><time>2026-03-23T16:28:59.958Z</time></trkpt><trkpt lat="43.8565212" lon="11.2401447"><ele>649.0</ele><time>2026-03-23T16:29:00.958Z</time></trkpt><trkpt lat="43.8564294" lon="11.2401122"><ele>649.0</ele><time>2026-03-23T16:29:01.956Z</time></trkpt><trkpt lat="43.8563493" lon="11.2400826"><ele>649.0</ele><time>2026-03-23T16:29:02.961Z</time></trkpt><trkpt lat="43.8562772" lon="11.240058"><ele>649.0</ele><time>2026-03-23T16:29:03.956Z</time></trkpt><trkpt lat="43.8562061" lon="11.2400348"><ele>649.0</ele><time>2026-03-23T16:29:04.962Z</time></trkpt><trkpt lat="43.8561422" lon="11.2400051"><ele>649.0</ele><time>2026-03-23T16:29:05.961Z</time></trkpt><trkpt lat="43.8560384" lon="11.2399332"><ele>649.0</ele><time>2026-03-23T16:29:07.956Z</time></trkpt><trkpt lat="43.8559481" lon="11.2398058"><ele>649.0</ele><time>2026-03-23T16:29:09.957Z</time></trkpt><trkpt lat="43.8558991" lon="11.2397456"><ele>647.4000000000001</ele><time>2026-03-23T16:29:10.959Z</time></trkpt><trkpt lat="43.855806" lon="11.2396489"><ele>645.8</ele><time>2026-03-23T16:29:12.96Z</time></trkpt><trkpt lat="43.8557193" lon="11.2395506"><ele>644.2</ele><time>2026-03-23T16:29:14.965Z</time></trkpt><trkpt lat="43.8556212" lon="11.2394605"><ele>642.5999999999999</ele><time>2026-03-23T16:29:16.964Z</time></trkpt><trkpt lat="43.8555645" lon="11.2394028"><ele>641.0</ele><time>2026-03-23T16:29:17.965Z</time></trkpt><trkpt lat="43.8555085" lon="11.2393448"><ele>641.0</ele><time>2026-03-23T16:29:18.961Z</time></trkpt><trkpt lat="43.8554481" lon="11.2392889"><ele>641.0</ele><time>2026-03-23T16:29:19.961Z</time></trkpt><trkpt lat="43.8553903" lon="11.2392362"><ele>641.0</ele><time>2026-03-23T16:29:20.952Z</time></trkpt><trkpt lat="43.8553261" lon="11.2391876"><ele>641.0</ele><time>2026-03-23T16:29:21.96Z</time></trkpt><trkpt lat="43.8552683" lon="11.2391371"><ele>641.0</ele><time>2026-03-23T16:29:22.959Z</time></trkpt><trkpt lat="43.8552076" lon="11.2390719"><ele>641.0</ele><time>2026-03-23T16:29:23.954Z</time></trkpt><trkpt lat="43.8551475" lon="11.2390125"><ele>641.0</ele><time>2026-03-23T16:29:24.965Z</time></trkpt><trkpt lat="43.855085" lon="11.2389615"><ele>638.2857142857143</ele><time>2026-03-23T16:29:25.958Z</time></trkpt><trkpt lat="43.8550278" lon="11.2389215"><ele>635.5714285714286</ele><time>2026-03-23T16:29:26.962Z</time></trkpt><trkpt lat="43.8549615" lon="11.2388894"><ele>632.8571428571429</ele><time>2026-03-23T16:29:27.958Z</time></trkpt><trkpt lat="43.854897" lon="11.2388632"><ele>630.1428571428571</ele><time>2026-03-23T16:29:28.968Z</time></trkpt><trkpt lat="43.8548277" lon="11.23883"><ele>627.4285714285714</ele><time>2026-03-23T16:29:29.961Z</time></trkpt><trkpt lat="43.854757" lon="11.238787"><ele>624.7142857142857</ele><time>2026-03-23T16:29:30.959Z</time></trkpt><trkpt lat="43.8546899" lon="11.2387463"><ele>622.0</ele><time>2026-03-23T16:29:31.964Z</time></trkpt><trkpt lat="43.8546272" lon="11.2386999"><ele>622.0</ele><time>2026-03-23T16:29:32.959Z</time></trkpt><trkpt lat="43.8545633" lon="11.238645"><ele>622.0</ele><time>2026-03-23T16:29:33.959Z</time></trkpt><trkpt lat="43.8545004" lon="11.2385901"><ele>622.0</ele><time>2026-03-23T16:29:34.959Z</time></trkpt><trkpt lat="43.8544346" lon="11.2385305"><ele>622.0</ele><time>2026-03-23T16:29:35.962Z</time></trkpt><trkpt lat="43.8543686" lon="11.238475"><ele>622.0</ele><time>2026-03-23T16:29:36.957Z</time></trkpt><trkpt lat="43.8543003" lon="11.2384216"><ele>622.0</ele><time>2026-03-23T16:29:37.96Z</time></trkpt><trkpt lat="43.8542324" lon="11.2383678"><ele>622.8333333333334</ele><time>2026-03-23T16:29:38.96Z</time></trkpt><trkpt lat="43.8541634" lon="11.2383135"><ele>623.6666666666667</ele><time>2026-03-23T16:29:39.959Z</time></trkpt><trkpt lat="43.8540915" lon="11.2382596"><ele>624.5</ele><time>2026-03-23T16:29:40.959Z</time></trkpt><trkpt lat="43.8540187" lon="11.2382072"><ele>625.3333333333334</ele><time>2026-03-23T16:29:41.96Z</time></trkpt><trkpt lat="43.8539455" lon="11.2381558"><ele>626.1666666666666</ele><time>2026-03-23T16:29:42.958Z</time></trkpt><trkpt lat="43.8538821" lon="11.2381123"><ele>627.0</ele><time>2026-03-23T16:29:43.961Z</time></trkpt><trkpt lat="43.8537656" lon="11.2380562"><ele>623.6666666666666</ele><time>2026-03-23T16:29:45.961Z</time></trkpt><trkpt lat="43.8536421" lon="11.2380269"><ele>620.3333333333334</ele><time>2026-03-23T16:29:47.966Z</time></trkpt><trkpt lat="43.8535712" lon="11.2380078"><ele>617.0</ele><time>2026-03-23T16:29:48.956Z</time></trkpt><trkpt lat="43.8535065" lon="11.2380005"><ele>613.6666666666667</ele><time>2026-03-23T16:29:49.957Z</time></trkpt><trkpt lat="43.8534377" lon="11.2379979"><ele>610.3333333333334</ele><time>2026-03-23T16:29:50.96Z</time></trkpt><trkpt lat="43.8533711" lon="11.238012"><ele>607.0</ele><time>2026-03-23T16:29:51.958Z</time></trkpt><trkpt lat="43.8533043" lon="11.2380324"><ele>606.9999999999999</ele><time>2026-03-23T16:29:52.963Z</time></trkpt><trkpt lat="43.8532414" lon="11.2380587"><ele>607.0</ele><time>2026-03-23T16:29:53.959Z</time></trkpt><trkpt lat="43.8531818" lon="11.238099"><ele>607.0</ele><time>2026-03-23T16:29:54.963Z</time></trkpt><trkpt lat="43.8531205" lon="11.2381341"><ele>607.0</ele><time>2026-03-23T16:29:55.961Z</time></trkpt><trkpt lat="43.8530554" lon="11.2381779"><ele>607.0</ele><time>2026-03-23T16:29:56.961Z</time></trkpt><trkpt lat="43.852992" lon="11.2382236"><ele>606.9999999999999</ele><time>2026-03-23T16:29:57.949Z</time></trkpt><trkpt lat="43.8529313" lon="11.2382728"><ele>607.0</ele><time>2026-03-23T16:29:58.961Z</time></trkpt><trkpt lat="43.8528651" lon="11.2383259"><ele>607.5714285714286</ele><time>2026-03-23T16:29:59.956Z</time></trkpt><trkpt lat="43.8527979" lon="11.2383726"><ele>608.1428571428571</ele><time>2026-03-23T16:30:00.962Z</time></trkpt><trkpt lat="43.8527298" lon="11.2384094"><ele>608.7142857142858</ele><time>2026-03-23T16:30:01.962Z</time></trkpt><trkpt lat="43.8526628" lon="11.2384476"><ele>609.2857142857142</ele><time>2026-03-23T16:30:02.958Z</time></trkpt><trkpt lat="43.8525938" lon="11.2384829"><ele>609.8571428571429</ele><time>2026-03-23T16:30:03.965Z</time></trkpt><trkpt lat="43.8525266" lon="11.2385061"><ele>610.4285714285714</ele><time>2026-03-23T16:30:04.963Z</time></trkpt><trkpt lat="43.8524634" lon="11.238537"><ele>611.0</ele><time>2026-03-23T16:30:05.958Z</time></trkpt><trkpt lat="43.8523754" lon="11.2385709"><ele>611.0</ele><time>2026-03-23T16:30:07.953Z</time></trkpt><trkpt lat="43.8522859" lon="11.2385895"><ele>611.0</ele><time>2026-03-23T16:30:10.958Z</time></trkpt><trkpt lat="43.85221" lon="11.2386103"><ele>611.0</ele><time>2026-03-23T16:30:13.955Z</time></trkpt><trkpt lat="43.8521416" lon="11.2386373"><ele>611.0</ele><time>2026-03-23T16:30:15.96Z</time></trkpt><trkpt lat="43.8520591" lon="11.2386678"><ele>611.0</ele><time>2026-03-23T16:30:17.958Z</time></trkpt><trkpt lat="43.8519631" lon="11.2386848"><ele>611.0</ele><time>2026-03-23T16:30:19.964Z</time></trkpt><trkpt lat="43.8518804" lon="11.2386832"><ele>611.0</ele><time>2026-03-23T16:30:21.956Z</time></trkpt><trkpt lat="43.8518095" lon="11.2386552"><ele>611.0</ele><time>2026-03-23T16:30:23.957Z</time></trkpt><trkpt lat="43.8517341" lon="11.2386569"><ele>611.0</ele><time>2026-03-23T16:30:25.958Z</time></trkpt><trkpt lat="43.8516439" lon="11.2386663"><ele>611.0</ele><time>2026-03-23T16:30:27.953Z</time></trkpt><trkpt lat="43.8515405" lon="11.2386371"><ele>611.0</ele><time>2026-03-23T16:30:29.961Z</time></trkpt><trkpt lat="43.8514412" lon="11.2385941"><ele>611.0</ele><time>2026-03-23T16:30:31.96Z</time></trkpt><trkpt lat="43.8513452" lon="11.2385573"><ele>608.0</ele><time>2026-03-23T16:30:33.959Z</time></trkpt><trkpt lat="43.8512469" lon="11.2385091"><ele>605.0</ele><time>2026-03-23T16:30:35.959Z</time></trkpt><trkpt lat="43.8511656" lon="11.2384454"><ele>602.0</ele><time>2026-03-23T16:30:37.951Z</time></trkpt><trkpt lat="43.851095" lon="11.2383653"><ele>599.0</ele><time>2026-03-23T16:30:39.958Z</time></trkpt><trkpt lat="43.8510627" lon="11.2382886"><ele>596.0</ele><time>2026-03-23T16:30:40.964Z</time></trkpt><trkpt lat="43.8510264" lon="11.2381939"><ele>593.0</ele><time>2026-03-23T16:30:41.958Z</time></trkpt><trkpt lat="43.8509769" lon="11.2380933"><ele>592.1999999999999</ele><time>2026-03-23T16:30:42.958Z</time></trkpt><trkpt lat="43.8509186" lon="11.237998"><ele>591.4</ele><time>2026-03-23T16:30:43.958Z</time></trkpt><trkpt lat="43.8508434" lon="11.2379188"><ele>590.5999999999999</ele><time>2026-03-23T16:30:44.961Z</time></trkpt><trkpt lat="43.850762" lon="11.237841"><ele>589.8</ele><time>2026-03-23T16:30:45.954Z</time></trkpt><trkpt lat="43.8506727" lon="11.2377646"><ele>589.0</ele><time>2026-03-23T16:30:46.956Z</time></trkpt><trkpt lat="43.8505861" lon="11.2376911"><ele>589.0</ele><time>2026-03-23T16:30:47.97Z</time></trkpt><trkpt lat="43.8504936" lon="11.2376141"><ele>589.0</ele><time>2026-03-23T16:30:48.96Z</time></trkpt><trkpt lat="43.8504004" lon="11.2375431"><ele>589.0</ele><time>2026-03-23T16:30:49.957Z</time></trkpt><trkpt lat="43.8503063" lon="11.2374667"><ele>589.0</ele><time>2026-03-23T16:30:50.96Z</time></trkpt><trkpt lat="43.8502131" lon="11.237385"><ele>589.0</ele><time>2026-03-23T16:30:51.963Z</time></trkpt><trkpt lat="43.8501267" lon="11.2372964"><ele>590.0</ele><time>2026-03-23T16:30:52.961Z</time></trkpt><trkpt lat="43.8500419" lon="11.237198"><ele>591.0</ele><time>2026-03-23T16:30:53.959Z</time></trkpt><trkpt lat="43.8499575" lon="11.2370857"><ele>592.0</ele><time>2026-03-23T16:30:54.957Z</time></trkpt><trkpt lat="43.8498841" lon="11.2369601"><ele>593.0</ele><time>2026-03-23T16:30:55.957Z</time></trkpt><trkpt lat="43.8498166" lon="11.2368197"><ele>593.0</ele><time>2026-03-23T16:30:56.954Z</time></trkpt><trkpt lat="43.8497521" lon="11.236676"><ele>593.0</ele><time>2026-03-23T16:30:57.967Z</time></trkpt><trkpt lat="43.849698" lon="11.2365311"><ele>593.0</ele><time>2026-03-23T16:30:58.963Z</time></trkpt><trkpt lat="43.8496399" lon="11.2363843"><ele>593.0</ele><time>2026-03-23T16:30:59.959Z</time></trkpt><trkpt lat="43.8495817" lon="11.2362324"><ele>594.75</ele><time>2026-03-23T16:31:00.96Z</time></trkpt><trkpt lat="43.849523" lon="11.2360795"><ele>596.5</ele><time>2026-03-23T16:31:01.954Z</time></trkpt><trkpt lat="43.8494633" lon="11.2359284"><ele>598.25</ele><time>2026-03-23T16:31:02.948Z</time></trkpt><trkpt lat="43.8494049" lon="11.2357793"><ele>600.0</ele><time>2026-03-23T16:31:03.962Z</time></trkpt><trkpt lat="43.8493435" lon="11.2356264"><ele>597.5</ele><time>2026-03-23T16:31:04.956Z</time></trkpt><trkpt lat="43.8492845" lon="11.2354707"><ele>595.0</ele><time>2026-03-23T16:31:05.956Z</time></trkpt><trkpt lat="43.8492229" lon="11.2353152"><ele>592.5</ele><time>2026-03-23T16:31:06.951Z</time></trkpt><trkpt lat="43.8491603" lon="11.2351533"><ele>590.0</ele><time>2026-03-23T16:31:07.957Z</time></trkpt><trkpt lat="43.8490971" lon="11.2349914"><ele>590.0</ele><time>2026-03-23T16:31:08.961Z</time></trkpt><trkpt lat="43.8490327" lon="11.2348343"><ele>590.0</ele><time>2026-03-23T16:31:09.953Z</time></trkpt><trkpt lat="43.8489686" lon="11.2346776"><ele>590.0</ele><time>2026-03-23T16:31:10.954Z</time></trkpt><trkpt lat="43.8489024" lon="11.2345178"><ele>590.0</ele><time>2026-03-23T16:31:11.959Z</time></trkpt><trkpt lat="43.8488333" lon="11.234361"><ele>592.0</ele><time>2026-03-23T16:31:12.954Z</time></trkpt><trkpt lat="43.8487669" lon="11.2342064"><ele>594.0</ele><time>2026-03-23T16:31:13.953Z</time></trkpt><trkpt lat="43.8487008" lon="11.2340516"><ele>596.0</ele><time>2026-03-23T16:31:14.955Z</time></trkpt><trkpt lat="43.8486339" lon="11.2338979"><ele>598.0</ele><time>2026-03-23T16:31:15.956Z</time></trkpt><trkpt lat="43.8485633" lon="11.233747"><ele>599.5</ele><time>2026-03-23T16:31:16.952Z</time></trkpt><trkpt lat="43.8484948" lon="11.233603"><ele>601.0</ele><time>2026-03-23T16:31:17.959Z</time></trkpt><trkpt lat="43.8484233" lon="11.2334555"><ele>602.5</ele><time>2026-03-23T16:31:18.953Z</time></trkpt><trkpt lat="43.8483548" lon="11.2333103"><ele>604.0</ele><time>2026-03-23T16:31:19.951Z</time></trkpt><trkpt lat="43.8482859" lon="11.2331573"><ele>601.0</ele><time>2026-03-23T16:31:20.959Z</time></trkpt><trkpt lat="43.8482154" lon="11.2330106"><ele>598.0</ele><time>2026-03-23T16:31:21.958Z</time></trkpt><trkpt lat="43.8481473" lon="11.2328644"><ele>595.0</ele><time>2026-03-23T16:31:22.96Z</time></trkpt><trkpt lat="43.8480753" lon="11.2327174"><ele>592.0</ele><time>2026-03-23T16:31:23.958Z</time></trkpt><trkpt lat="43.8480065" lon="11.2325661"><ele>592.0</ele><time>2026-03-23T16:31:24.963Z</time></trkpt><trkpt lat="43.8479486" lon="11.232406"><ele>592.0</ele><time>2026-03-23T16:31:25.955Z</time></trkpt><trkpt lat="43.8479028" lon="11.2322349"><ele>592.0</ele><time>2026-03-23T16:31:26.957Z</time></trkpt><trkpt lat="43.8478698" lon="11.2320621"><ele>592.0</ele><time>2026-03-23T16:31:27.96Z</time></trkpt><trkpt lat="43.8478614" lon="11.2318939"><ele>591.25</ele><time>2026-03-23T16:31:28.957Z</time></trkpt><trkpt lat="43.8478903" lon="11.2317262"><ele>590.5</ele><time>2026-03-23T16:31:29.96Z</time></trkpt><trkpt lat="43.8479437" lon="11.2315739"><ele>589.75</ele><time>2026-03-23T16:31:30.963Z</time></trkpt><trkpt lat="43.8480179" lon="11.2314444"><ele>589.0</ele><time>2026-03-23T16:31:31.959Z</time></trkpt><trkpt lat="43.8481126" lon="11.2313469"><ele>585.25</ele><time>2026-03-23T16:31:32.953Z</time></trkpt><trkpt lat="43.8482325" lon="11.2312623"><ele>581.5</ele><time>2026-03-23T16:31:33.958Z</time></trkpt><trkpt lat="43.8483445" lon="11.2311951"><ele>577.75</ele><time>2026-03-23T16:31:34.963Z</time></trkpt><trkpt lat="43.8484661" lon="11.2311604"><ele>574.0</ele><time>2026-03-23T16:31:35.955Z</time></trkpt><trkpt lat="43.8485997" lon="11.2311422"><ele>573.75</ele><time>2026-03-23T16:31:36.962Z</time></trkpt><trkpt lat="43.848734" lon="11.2311447"><ele>573.5</ele><time>2026-03-23T16:31:37.957Z</time></trkpt><trkpt lat="43.8488618" lon="11.2311369"><ele>573.25</ele><time>2026-03-23T16:31:38.958Z</time></trkpt><trkpt lat="43.8489897" lon="11.2311378"><ele>573.0</ele><time>2026-03-23T16:31:39.965Z</time></trkpt><trkpt lat="43.8491173" lon="11.2311446"><ele>573.0</ele><time>2026-03-23T16:31:40.959Z</time></trkpt><trkpt lat="43.849239" lon="11.2311656"><ele>573.0</ele><time>2026-03-23T16:31:41.959Z</time></trkpt><trkpt lat="43.8493458" lon="11.2312603"><ele>573.0</ele><time>2026-03-23T16:31:42.958Z</time></trkpt><trkpt lat="43.8494334" lon="11.2314267"><ele>573.0</ele><time>2026-03-23T16:31:43.958Z</time></trkpt><trkpt lat="43.8495089" lon="11.2315781"><ele>572.25</ele><time>2026-03-23T16:31:44.964Z</time></trkpt><trkpt lat="43.8495749" lon="11.2317376"><ele>571.5</ele><time>2026-03-23T16:31:45.96Z</time></trkpt><trkpt lat="43.8496506" lon="11.2318915"><ele>570.75</ele><time>2026-03-23T16:31:46.966Z</time></trkpt><trkpt lat="43.8497348" lon="11.2320356"><ele>570.0</ele><time>2026-03-23T16:31:47.958Z</time></trkpt><trkpt lat="43.8498107" lon="11.2321892"><ele>572.25</ele><time>2026-03-23T16:31:48.96Z</time></trkpt><trkpt lat="43.84989" lon="11.2323371"><ele>574.5</ele><time>2026-03-23T16:31:49.959Z</time></trkpt><trkpt lat="43.8499673" lon="11.2324936"><ele>576.75</ele><time>2026-03-23T16:31:50.963Z</time></trkpt><trkpt lat="43.850047" lon="11.2326488"><ele>579.0</ele><time>2026-03-23T16:31:51.956Z</time></trkpt><trkpt lat="43.8501198" lon="11.2328011"><ele>573.5</ele><time>2026-03-23T16:31:52.953Z</time></trkpt><trkpt lat="43.8501934" lon="11.2329519"><ele>568.0</ele><time>2026-03-23T16:31:53.958Z</time></trkpt><trkpt lat="43.8502667" lon="11.2331152"><ele>562.5</ele><time>2026-03-23T16:31:54.959Z</time></trkpt><trkpt lat="43.8503398" lon="11.2332818"><ele>557.0</ele><time>2026-03-23T16:31:55.953Z</time></trkpt><trkpt lat="43.8504096" lon="11.2334468"><ele>557.0</ele><time>2026-03-23T16:31:56.956Z</time></trkpt><trkpt lat="43.8504724" lon="11.2336228"><ele>557.0</ele><time>2026-03-23T16:31:57.956Z</time></trkpt><trkpt lat="43.8505213" lon="11.2338073"><ele>557.0</ele><time>2026-03-23T16:31:58.955Z</time></trkpt><trkpt lat="43.8505624" lon="11.2340025"><ele>557.0</ele><time>2026-03-23T16:31:59.955Z</time></trkpt><trkpt lat="43.8506013" lon="11.2341953"><ele>559.75</ele><time>2026-03-23T16:32:00.958Z</time></trkpt><trkpt lat="43.8506437" lon="11.2343921"><ele>562.5</ele><time>2026-03-23T16:32:01.953Z</time></trkpt><trkpt lat="43.8506808" lon="11.2345923"><ele>565.25</ele><time>2026-03-23T16:32:02.957Z</time></trkpt><trkpt lat="43.8507152" lon="11.2347867"><ele>568.0</ele><time>2026-03-23T16:32:03.962Z</time></trkpt><trkpt lat="43.8507536" lon="11.2349821"><ele>569.75</ele><time>2026-03-23T16:32:04.956Z</time></trkpt><trkpt lat="43.8507918" lon="11.2351773"><ele>571.5</ele><time>2026-03-23T16:32:05.959Z</time></trkpt><trkpt lat="43.8508268" lon="11.2353705"><ele>573.25</ele><time>2026-03-23T16:32:06.959Z</time></trkpt><trkpt lat="43.8508657" lon="11.2355624"><ele>575.0</ele><time>2026-03-23T16:32:07.949Z</time></trkpt><trkpt lat="43.8508966" lon="11.2357534"><ele>577.25</ele><time>2026-03-23T16:32:08.953Z</time></trkpt><trkpt lat="43.8509337" lon="11.2359476"><ele>579.5</ele><time>2026-03-23T16:32:09.954Z</time></trkpt><trkpt lat="43.8509647" lon="11.2361226"><ele>581.75</ele><time>2026-03-23T16:32:10.961Z</time></trkpt><trkpt lat="43.8509951" lon="11.2362894"><ele>584.0</ele><time>2026-03-23T16:32:11.958Z</time></trkpt><trkpt lat="43.8510265" lon="11.2364652"><ele>578.5</ele><time>2026-03-23T16:32:12.96Z</time></trkpt><trkpt lat="43.8510691" lon="11.2366329"><ele>573.0</ele><time>2026-03-23T16:32:13.96Z</time></trkpt><trkpt lat="43.8511314" lon="11.2367817"><ele>567.5</ele><time>2026-03-23T16:32:14.961Z</time></trkpt><trkpt lat="43.8512152" lon="11.2369122"><ele>562.0</ele><time>2026-03-23T16:32:15.952Z</time></trkpt><trkpt lat="43.8513091" lon="11.237"><ele>562.0</ele><time>2026-03-23T16:32:16.959Z</time></trkpt><trkpt lat="43.851426" lon="11.237073"><ele>562.0</ele><time>2026-03-23T16:32:17.957Z</time></trkpt><trkpt lat="43.8515513" lon="11.237093"><ele>562.0</ele><time>2026-03-23T16:32:18.958Z</time></trkpt><trkpt lat="43.8516587" lon="11.2370604"><ele>562.0</ele><time>2026-03-23T16:32:19.961Z</time></trkpt><trkpt lat="43.8517499" lon="11.2369963"><ele>563.8000000000001</ele><time>2026-03-23T16:32:20.951Z</time></trkpt><trkpt lat="43.8518373" lon="11.2369141"><ele>565.6</ele><time>2026-03-23T16:32:21.955Z</time></trkpt><trkpt lat="43.8519204" lon="11.2368287"><ele>567.4000000000001</ele><time>2026-03-23T16:32:22.958Z</time></trkpt><trkpt lat="43.8520023" lon="11.2367447"><ele>569.2</ele><time>2026-03-23T16:32:23.958Z</time></trkpt><trkpt lat="43.8521006" lon="11.2366546"><ele>571.0</ele><time>2026-03-23T16:32:24.964Z</time></trkpt><trkpt lat="43.85221" lon="11.2365662"><ele>571.0</ele><time>2026-03-23T16:32:25.955Z</time></trkpt><trkpt lat="43.8523148" lon="11.2364767"><ele>571.0</ele><time>2026-03-23T16:32:26.954Z</time></trkpt><trkpt lat="43.8524175" lon="11.2363969"><ele>571.0</ele><time>2026-03-23T16:32:27.953Z</time></trkpt><trkpt lat="43.8525271" lon="11.2363204"><ele>571.0</ele><time>2026-03-23T16:32:28.958Z</time></trkpt><trkpt lat="43.8526459" lon="11.2362519"><ele>564.75</ele><time>2026-03-23T16:32:29.955Z</time></trkpt><trkpt lat="43.8527748" lon="11.2361865"><ele>558.5</ele><time>2026-03-23T16:32:30.951Z</time></trkpt><trkpt lat="43.8529166" lon="11.23613"><ele>552.25</ele><time>2026-03-23T16:32:31.954Z</time></trkpt><trkpt lat="43.8530622" lon="11.2360821"><ele>546.0</ele><time>2026-03-23T16:32:32.952Z</time></trkpt><trkpt lat="43.8532059" lon="11.2360379"><ele>546.0</ele><time>2026-03-23T16:32:33.956Z</time></trkpt><trkpt lat="43.8533522" lon="11.2359968"><ele>546.0</ele><time>2026-03-23T16:32:34.951Z</time></trkpt><trkpt lat="43.853498" lon="11.2359558"><ele>546.0</ele><time>2026-03-23T16:32:35.957Z</time></trkpt><trkpt lat="43.853641" lon="11.2359106"><ele>546.0</ele><time>2026-03-23T16:32:36.959Z</time></trkpt><trkpt lat="43.8537789" lon="11.2358638"><ele>545.5</ele><time>2026-03-23T16:32:37.956Z</time></trkpt><trkpt lat="43.8539163" lon="11.235826"><ele>545.0</ele><time>2026-03-23T16:32:38.959Z</time></trkpt><trkpt lat="43.8540492" lon="11.2358063"><ele>544.5</ele><time>2026-03-23T16:32:39.952Z</time></trkpt><trkpt lat="43.8541838" lon="11.2358023"><ele>544.0</ele><time>2026-03-23T16:32:40.949Z</time></trkpt><trkpt lat="43.8543106" lon="11.2358186"><ele>544.0</ele><time>2026-03-23T16:32:41.959Z</time></trkpt><trkpt lat="43.8544289" lon="11.2358601"><ele>544.0</ele><time>2026-03-23T16:32:42.959Z</time></trkpt><trkpt lat="43.8545525" lon="11.235913"><ele>544.0</ele><time>2026-03-23T16:32:43.957Z</time></trkpt><trkpt lat="43.8546798" lon="11.2359508"><ele>544.0</ele><time>2026-03-23T16:32:44.959Z</time></trkpt><trkpt lat="43.8548142" lon="11.2359514"><ele>544.0</ele><time>2026-03-23T16:32:45.956Z</time></trkpt><trkpt lat="43.8549621" lon="11.2359358"><ele>544.0</ele><time>2026-03-23T16:32:46.962Z</time></trkpt><trkpt lat="43.855113" lon="11.2359103"><ele>544.0</ele><time>2026-03-23T16:32:47.957Z</time></trkpt><trkpt lat="43.8552672" lon="11.2358889"><ele>544.0</ele><time>2026-03-23T16:32:48.959Z</time></trkpt><trkpt lat="43.855409" lon="11.2358564"><ele>544.0</ele><time>2026-03-23T16:32:49.956Z</time></trkpt><trkpt lat="43.8555515" lon="11.2358213"><ele>544.0</ele><time>2026-03-23T16:32:50.96Z</time></trkpt><trkpt lat="43.855703" lon="11.2357907"><ele>544.0</ele><time>2026-03-23T16:32:51.961Z</time></trkpt><trkpt lat="43.8558597" lon="11.2357585"><ele>546.3333333333334</ele><time>2026-03-23T16:32:52.96Z</time></trkpt><trkpt lat="43.856005" lon="11.2357045"><ele>548.6666666666666</ele><time>2026-03-23T16:32:53.962Z</time></trkpt><trkpt lat="43.8561524" lon="11.235648"><ele>551.0</ele><time>2026-03-23T16:32:54.962Z</time></trkpt><trkpt lat="43.8562972" lon="11.2355804"><ele>543.3333333333333</ele><time>2026-03-23T16:32:55.963Z</time></trkpt><trkpt lat="43.8564339" lon="11.2355106"><ele>535.6666666666666</ele><time>2026-03-23T16:32:56.959Z</time></trkpt><trkpt lat="43.8565817" lon="11.2354359"><ele>528.0</ele><time>2026-03-23T16:32:57.955Z</time></trkpt><trkpt lat="43.8567353" lon="11.2353521"><ele>533.0</ele><time>2026-03-23T16:32:58.954Z</time></trkpt><trkpt lat="43.8568989" lon="11.235262"><ele>538.0</ele><time>2026-03-23T16:32:59.957Z</time></trkpt><trkpt lat="43.85707" lon="11.2351729"><ele>543.0</ele><time>2026-03-23T16:33:00.954Z</time></trkpt><trkpt lat="43.85724" lon="11.2350729"><ele>543.0</ele><time>2026-03-23T16:33:01.954Z</time></trkpt><trkpt lat="43.8574153" lon="11.2349681"><ele>543.0</ele><time>2026-03-23T16:33:02.961Z</time></trkpt><trkpt lat="43.8575858" lon="11.2348371"><ele>543.0</ele><time>2026-03-23T16:33:03.955Z</time></trkpt><trkpt lat="43.8577562" lon="11.2346757"><ele>542.6666666666666</ele><time>2026-03-23T16:33:04.955Z</time></trkpt><trkpt lat="43.8579292" lon="11.234503"><ele>542.3333333333333</ele><time>2026-03-23T16:33:05.958Z</time></trkpt><trkpt lat="43.8581003" lon="11.2343172"><ele>542.0</ele><time>2026-03-23T16:33:06.954Z</time></trkpt><trkpt lat="43.8582682" lon="11.2341212"><ele>537.3333333333333</ele><time>2026-03-23T16:33:07.951Z</time></trkpt><trkpt lat="43.8584273" lon="11.233952"><ele>532.6666666666666</ele><time>2026-03-23T16:33:08.953Z</time></trkpt><trkpt lat="43.8585764" lon="11.2338078"><ele>528.0</ele><time>2026-03-23T16:33:09.963Z</time></trkpt><trkpt lat="43.8587158" lon="11.2336876"><ele>528.0</ele><time>2026-03-23T16:33:10.953Z</time></trkpt><trkpt lat="43.8588455" lon="11.2335822"><ele>528.0</ele><time>2026-03-23T16:33:11.954Z</time></trkpt><trkpt lat="43.8589635" lon="11.2335011"><ele>528.0</ele><time>2026-03-23T16:33:12.957Z</time></trkpt><trkpt lat="43.8591301" lon="11.2334615"><ele>526.0</ele><time>2026-03-23T16:33:13.953Z</time></trkpt><trkpt lat="43.8593166" lon="11.2334836"><ele>524.0</ele><time>2026-03-23T16:33:14.955Z</time></trkpt><trkpt lat="43.8595238" lon="11.2335291"><ele>522.0</ele><time>2026-03-23T16:33:15.962Z</time></trkpt><trkpt lat="43.8597372" lon="11.2335819"><ele>522.0</ele><time>2026-03-23T16:33:16.958Z</time></trkpt><trkpt lat="43.8599409" lon="11.2336441"><ele>522.0</ele><time>2026-03-23T16:33:17.945Z</time></trkpt><trkpt lat="43.8601326" lon="11.2337002"><ele>522.0</ele><time>2026-03-23T16:33:18.957Z</time></trkpt><trkpt lat="43.8603171" lon="11.2337467"><ele>519.0</ele><time>2026-03-23T16:33:19.963Z</time></trkpt><trkpt lat="43.8604838" lon="11.2337808"><ele>516.0</ele><time>2026-03-23T16:33:20.959Z</time></trkpt><trkpt lat="43.8606307" lon="11.2338111"><ele>513.0</ele><time>2026-03-23T16:33:21.957Z</time></trkpt><trkpt lat="43.8607663" lon="11.2338747"><ele>512.6666666666666</ele><time>2026-03-23T16:33:22.954Z</time></trkpt><trkpt lat="43.8608847" lon="11.2339805"><ele>512.3333333333333</ele><time>2026-03-23T16:33:23.954Z</time></trkpt><trkpt lat="43.8610053" lon="11.2341129"><ele>512.0</ele><time>2026-03-23T16:33:24.958Z</time></trkpt><trkpt lat="43.8611237" lon="11.2342677"><ele>512.0</ele><time>2026-03-23T16:33:25.96Z</time></trkpt><trkpt lat="43.8612278" lon="11.2344323"><ele>512.0</ele><time>2026-03-23T16:33:26.96Z</time></trkpt><trkpt lat="43.8613304" lon="11.2345886"><ele>512.0</ele><time>2026-03-23T16:33:27.959Z</time></trkpt><trkpt lat="43.8614393" lon="11.2347206"><ele>514.0</ele><time>2026-03-23T16:33:28.959Z</time></trkpt><trkpt lat="43.8615802" lon="11.2348189"><ele>516.0</ele><time>2026-03-23T16:33:29.956Z</time></trkpt><trkpt lat="43.8617328" lon="11.2348993"><ele>518.0</ele><time>2026-03-23T16:33:30.959Z</time></trkpt><trkpt lat="43.8618828" lon="11.2349526"><ele>518.0</ele><time>2026-03-23T16:33:31.957Z</time></trkpt><trkpt lat="43.862044" lon="11.2349618"><ele>518.0</ele><time>2026-03-23T16:33:32.956Z</time></trkpt><trkpt lat="43.8622196" lon="11.2349225"><ele>518.0</ele><time>2026-03-23T16:33:33.963Z</time></trkpt><trkpt lat="43.8623925" lon="11.234847"><ele>511.66666666666663</ele><time>2026-03-23T16:33:34.957Z</time></trkpt><trkpt lat="43.8625645" lon="11.2347657"><ele>505.33333333333337</ele><time>2026-03-23T16:33:35.957Z</time></trkpt><trkpt lat="43.8627303" lon="11.2346754"><ele>499.0</ele><time>2026-03-23T16:33:36.955Z</time></trkpt><trkpt lat="43.8629105" lon="11.234583"><ele>498.0</ele><time>2026-03-23T16:33:37.948Z</time></trkpt><trkpt lat="43.8630817" lon="11.2344674"><ele>497.0</ele><time>2026-03-23T16:33:38.955Z</time></trkpt><trkpt lat="43.8632411" lon="11.23434"><ele>496.0</ele><time>2026-03-23T16:33:39.96Z</time></trkpt><trkpt lat="43.8633978" lon="11.2342134"><ele>498.0</ele><time>2026-03-23T16:33:40.964Z</time></trkpt><trkpt lat="43.8635534" lon="11.2340837"><ele>500.0</ele><time>2026-03-23T16:33:41.959Z</time></trkpt><trkpt lat="43.8637085" lon="11.2339517"><ele>502.0</ele><time>2026-03-23T16:33:42.954Z</time></trkpt><trkpt lat="43.8638581" lon="11.2338325"><ele>496.0</ele><time>2026-03-23T16:33:43.948Z</time></trkpt><trkpt lat="43.8640121" lon="11.2337177"><ele>490.0</ele><time>2026-03-23T16:33:44.957Z</time></trkpt><trkpt lat="43.8641715" lon="11.2336262"><ele>484.0</ele><time>2026-03-23T16:33:45.952Z</time></trkpt><trkpt lat="43.8643359" lon="11.2335558"><ele>484.0</ele><time>2026-03-23T16:33:46.956Z</time></trkpt><trkpt lat="43.8645059" lon="11.233507"><ele>484.0</ele><time>2026-03-23T16:33:47.96Z</time></trkpt><trkpt lat="43.8646656" lon="11.2334787"><ele>484.0</ele><time>2026-03-23T16:33:48.959Z</time></trkpt><trkpt lat="43.8648172" lon="11.2334564"><ele>484.0</ele><time>2026-03-23T16:33:49.951Z</time></trkpt><trkpt lat="43.8649652" lon="11.2334296"><ele>484.0</ele><time>2026-03-23T16:33:50.954Z</time></trkpt><trkpt lat="43.8651035" lon="11.2334018"><ele>484.0</ele><time>2026-03-23T16:33:51.958Z</time></trkpt><trkpt lat="43.8652399" lon="11.2333719"><ele>484.0</ele><time>2026-03-23T16:33:52.957Z</time></trkpt><trkpt lat="43.8653793" lon="11.233355"><ele>484.0</ele><time>2026-03-23T16:33:53.953Z</time></trkpt><trkpt lat="43.8655135" lon="11.2333338"><ele>484.0</ele><time>2026-03-23T16:33:54.961Z</time></trkpt><trkpt lat="43.8656384" lon="11.2333131"><ele>484.0</ele><time>2026-03-23T16:33:55.962Z</time></trkpt><trkpt lat="43.8657584" lon="11.2332979"><ele>484.0</ele><time>2026-03-23T16:33:56.964Z</time></trkpt><trkpt lat="43.8658672" lon="11.2332721"><ele>486.33333333333337</ele><time>2026-03-23T16:33:57.955Z</time></trkpt><trkpt lat="43.8659663" lon="11.2332336"><ele>488.6666666666667</ele><time>2026-03-23T16:33:58.958Z</time></trkpt><trkpt lat="43.8660439" lon="11.2331833"><ele>491.0</ele><time>2026-03-23T16:33:59.95Z</time></trkpt><trkpt lat="43.8661148" lon="11.2331328"><ele>493.33333333333337</ele><time>2026-03-23T16:34:00.953Z</time></trkpt><trkpt lat="43.8661834" lon="11.2330712"><ele>495.6666666666667</ele><time>2026-03-23T16:34:02.958Z</time></trkpt><trkpt lat="43.8662192" lon="11.2329852"><ele>498.0</ele><time>2026-03-23T16:35:08.963Z</time></trkpt><trkpt lat="43.8662506" lon="11.2329076"><ele>498.0</ele><time>2026-03-23T16:35:10.958Z</time></trkpt><trkpt lat="43.8663049" lon="11.2327992"><ele>498.0</ele><time>2026-03-23T16:35:12.952Z</time></trkpt><trkpt lat="43.8663419" lon="11.2327189"><ele>498.0</ele><time>2026-03-23T16:35:13.954Z</time></trkpt><trkpt lat="43.8663608" lon="11.23261"><ele>498.0</ele><time>2026-03-23T16:35:14.95Z</time></trkpt><trkpt lat="43.8663861" lon="11.2324776"><ele>498.0</ele><time>2026-03-23T16:35:15.952Z</time></trkpt><trkpt lat="43.8663914" lon="11.2323588"><ele>498.0</ele><time>2026-03-23T16:35:16.953Z</time></trkpt><trkpt lat="43.8663822" lon="11.2322288"><ele>497.79999999999995</ele><time>2026-03-23T16:35:17.952Z</time></trkpt><trkpt lat="43.8663609" lon="11.2320864"><ele>497.59999999999997</ele><time>2026-03-23T16:35:18.957Z</time></trkpt><trkpt lat="43.8663344" lon="11.2319476"><ele>497.40000000000003</ele><time>2026-03-23T16:35:19.956Z</time></trkpt><trkpt lat="43.8662923" lon="11.2317975"><ele>497.20000000000005</ele><time>2026-03-23T16:35:20.956Z</time></trkpt><trkpt lat="43.8662551" lon="11.2316487"><ele>497.0</ele><time>2026-03-23T16:35:21.948Z</time></trkpt><trkpt lat="43.8662201" lon="11.2314855"><ele>497.0</ele><time>2026-03-23T16:35:22.953Z</time></trkpt><trkpt lat="43.8662004" lon="11.2313169"><ele>497.0</ele><time>2026-03-23T16:35:23.95Z</time></trkpt><trkpt lat="43.8662065" lon="11.2311509"><ele>497.0</ele><time>2026-03-23T16:35:24.959Z</time></trkpt><trkpt lat="43.866221" lon="11.2309706"><ele>497.0</ele><time>2026-03-23T16:35:25.955Z</time></trkpt><trkpt lat="43.8662334" lon="11.2307892"><ele>496.25</ele><time>2026-03-23T16:35:26.958Z</time></trkpt><trkpt lat="43.8662419" lon="11.2306089"><ele>495.5</ele><time>2026-03-23T16:35:27.954Z</time></trkpt><trkpt lat="43.8662306" lon="11.2304326"><ele>494.75</ele><time>2026-03-23T16:35:28.959Z</time></trkpt><trkpt lat="43.8662087" lon="11.2302548"><ele>494.0</ele><time>2026-03-23T16:35:29.957Z</time></trkpt><trkpt lat="43.8661799" lon="11.2300786"><ele>494.0</ele><time>2026-03-23T16:35:30.953Z</time></trkpt><trkpt lat="43.8661468" lon="11.2298989"><ele>494.0</ele><time>2026-03-23T16:35:31.952Z</time></trkpt><trkpt lat="43.8661162" lon="11.2297119"><ele>494.0</ele><time>2026-03-23T16:35:32.957Z</time></trkpt><trkpt lat="43.8660832" lon="11.2295244"><ele>494.0</ele><time>2026-03-23T16:35:33.956Z</time></trkpt><trkpt lat="43.8660502" lon="11.229328"><ele>496.5</ele><time>2026-03-23T16:35:34.96Z</time></trkpt><trkpt lat="43.8660207" lon="11.2291361"><ele>499.0</ele><time>2026-03-23T16:35:35.953Z</time></trkpt><trkpt lat="43.8659897" lon="11.228948"><ele>501.5</ele><time>2026-03-23T16:35:36.954Z</time></trkpt><trkpt lat="43.8659565" lon="11.2287529"><ele>504.0</ele><time>2026-03-23T16:35:37.947Z</time></trkpt><trkpt lat="43.8659181" lon="11.2285579"><ele>493.0</ele><time>2026-03-23T16:35:38.956Z</time></trkpt><trkpt lat="43.8658766" lon="11.2283692"><ele>482.0</ele><time>2026-03-23T16:35:39.95Z</time></trkpt><trkpt lat="43.8658302" lon="11.2281798"><ele>471.0</ele><time>2026-03-23T16:35:40.954Z</time></trkpt><trkpt lat="43.8657811" lon="11.2279831"><ele>460.0</ele><time>2026-03-23T16:35:41.953Z</time></trkpt><trkpt lat="43.8657261" lon="11.2277827"><ele>460.0</ele><time>2026-03-23T16:35:42.952Z</time></trkpt><trkpt lat="43.8656739" lon="11.2275853"><ele>460.0</ele><time>2026-03-23T16:35:43.954Z</time></trkpt><trkpt lat="43.8656204" lon="11.2273772"><ele>460.0</ele><time>2026-03-23T16:35:44.958Z</time></trkpt><trkpt lat="43.8655632" lon="11.2271695"><ele>464.0</ele><time>2026-03-23T16:35:45.96Z</time></trkpt><trkpt lat="43.8655042" lon="11.2269543"><ele>468.0</ele><time>2026-03-23T16:35:46.951Z</time></trkpt><trkpt lat="43.8654461" lon="11.2267493"><ele>472.0</ele><time>2026-03-23T16:35:47.952Z</time></trkpt><trkpt lat="43.8653915" lon="11.2265494"><ele>472.25</ele><time>2026-03-23T16:35:48.953Z</time></trkpt><trkpt lat="43.8653363" lon="11.2263504"><ele>472.5</ele><time>2026-03-23T16:35:49.95Z</time></trkpt><trkpt lat="43.8652823" lon="11.2261642"><ele>472.75</ele><time>2026-03-23T16:35:50.954Z</time></trkpt><trkpt lat="43.8652154" lon="11.2259858"><ele>473.0</ele><time>2026-03-23T16:35:51.956Z</time></trkpt><trkpt lat="43.8651319" lon="11.2258227"><ele>464.0</ele><time>2026-03-23T16:35:52.953Z</time></trkpt><trkpt lat="43.8650354" lon="11.2256709"><ele>455.0</ele><time>2026-03-23T16:35:53.951Z</time></trkpt><trkpt lat="43.8649414" lon="11.2255388"><ele>446.0</ele><time>2026-03-23T16:35:54.95Z</time></trkpt><trkpt lat="43.8648404" lon="11.2254096"><ele>437.0</ele><time>2026-03-23T16:35:55.951Z</time></trkpt><trkpt lat="43.8647342" lon="11.2252889"><ele>437.0</ele><time>2026-03-23T16:35:56.952Z</time></trkpt><trkpt lat="43.8646144" lon="11.2251817"><ele>437.0</ele><time>2026-03-23T16:35:57.956Z</time></trkpt><trkpt lat="43.8644729" lon="11.2251031"><ele>437.0</ele><time>2026-03-23T16:35:58.952Z</time></trkpt><trkpt lat="43.8643131" lon="11.2250485"><ele>432.75</ele><time>2026-03-23T16:35:59.955Z</time></trkpt><trkpt lat="43.8641627" lon="11.2250128"><ele>428.5</ele><time>2026-03-23T16:36:00.96Z</time></trkpt><trkpt lat="43.8640165" lon="11.2249675"><ele>424.25</ele><time>2026-03-23T16:36:01.961Z</time></trkpt><trkpt lat="43.863882" lon="11.2248998"><ele>420.0</ele><time>2026-03-23T16:36:02.96Z</time></trkpt><trkpt lat="43.8637552" lon="11.2248243"><ele>417.75</ele><time>2026-03-23T16:36:03.96Z</time></trkpt><trkpt lat="43.8636496" lon="11.2247144"><ele>415.5</ele><time>2026-03-23T16:36:04.96Z</time></trkpt><trkpt lat="43.8635496" lon="11.2246039"><ele>413.25</ele><time>2026-03-23T16:36:05.958Z</time></trkpt><trkpt lat="43.8634447" lon="11.2244944"><ele>411.0</ele><time>2026-03-23T16:36:06.954Z</time></trkpt><trkpt lat="43.8633357" lon="11.2243935"><ele>410.5</ele><time>2026-03-23T16:36:07.963Z</time></trkpt><trkpt lat="43.8632408" lon="11.2242948"><ele>410.0</ele><time>2026-03-23T16:36:08.958Z</time></trkpt><trkpt lat="43.8631618" lon="11.2241877"><ele>409.5</ele><time>2026-03-23T16:36:09.958Z</time></trkpt><trkpt lat="43.8630909" lon="11.2240637"><ele>409.0</ele><time>2026-03-23T16:36:10.961Z</time></trkpt><trkpt lat="43.863029" lon="11.223928"><ele>405.75</ele><time>2026-03-23T16:36:11.948Z</time></trkpt><trkpt lat="43.8629774" lon="11.2237933"><ele>402.5</ele><time>2026-03-23T16:36:12.955Z</time></trkpt><trkpt lat="43.8629516" lon="11.2236363"><ele>399.25</ele><time>2026-03-23T16:36:13.956Z</time></trkpt><trkpt lat="43.8629463" lon="11.2234799"><ele>396.0</ele><time>2026-03-23T16:36:14.958Z</time></trkpt><trkpt lat="43.8629463" lon="11.2233081"><ele>392.0</ele><time>2026-03-23T16:36:15.959Z</time></trkpt><trkpt lat="43.8629358" lon="11.2231325"><ele>388.0</ele><time>2026-03-23T16:36:16.955Z</time></trkpt><trkpt lat="43.862918" lon="11.2229508"><ele>384.0</ele><time>2026-03-23T16:36:17.956Z</time></trkpt><trkpt lat="43.8628954" lon="11.2227691"><ele>380.0</ele><time>2026-03-23T16:36:18.954Z</time></trkpt><trkpt lat="43.8628603" lon="11.2225944"><ele>380.0</ele><time>2026-03-23T16:36:19.954Z</time></trkpt><trkpt lat="43.8628052" lon="11.2224192"><ele>380.0</ele><time>2026-03-23T16:36:20.96Z</time></trkpt><trkpt lat="43.8627279" lon="11.222248"><ele>380.0</ele><time>2026-03-23T16:36:21.96Z</time></trkpt><trkpt lat="43.8626483" lon="11.2220778"><ele>380.0</ele><time>2026-03-23T16:36:22.957Z</time></trkpt><trkpt lat="43.8625667" lon="11.2218967"><ele>376.33333333333337</ele><time>2026-03-23T16:36:23.955Z</time></trkpt><trkpt lat="43.8625015" lon="11.221701"><ele>372.6666666666667</ele><time>2026-03-23T16:36:24.962Z</time></trkpt><trkpt lat="43.8624554" lon="11.221489"><ele>369.0</ele><time>2026-03-23T16:36:25.96Z</time></trkpt><trkpt lat="43.8624131" lon="11.2212704"><ele>364.6666666666667</ele><time>2026-03-23T16:36:26.96Z</time></trkpt><trkpt lat="43.862363" lon="11.2210497"><ele>360.33333333333337</ele><time>2026-03-23T16:36:27.96Z</time></trkpt><trkpt lat="43.8622856" lon="11.2208488"><ele>356.0</ele><time>2026-03-23T16:36:28.955Z</time></trkpt><trkpt lat="43.8621957" lon="11.2206729"><ele>353.25</ele><time>2026-03-23T16:36:29.961Z</time></trkpt><trkpt lat="43.8621091" lon="11.2205141"><ele>350.5</ele><time>2026-03-23T16:36:30.959Z</time></trkpt><trkpt lat="43.8620191" lon="11.220348"><ele>347.75</ele><time>2026-03-23T16:36:31.952Z</time></trkpt><trkpt lat="43.8619285" lon="11.2201836"><ele>345.0</ele><time>2026-03-23T16:36:32.959Z</time></trkpt><trkpt lat="43.8618357" lon="11.2200244"><ele>345.0</ele><time>2026-03-23T16:36:33.956Z</time></trkpt><trkpt lat="43.8617411" lon="11.2198649"><ele>345.0</ele><time>2026-03-23T16:36:34.963Z</time></trkpt><trkpt lat="43.8616495" lon="11.2197003"><ele>345.0</ele><time>2026-03-23T16:36:35.954Z</time></trkpt><trkpt lat="43.8615628" lon="11.2195426"><ele>345.0</ele><time>2026-03-23T16:36:36.956Z</time></trkpt><trkpt lat="43.8614784" lon="11.2193755"><ele>343.0</ele><time>2026-03-23T16:36:37.952Z</time></trkpt><trkpt lat="43.8614158" lon="11.2192031"><ele>341.0</ele><time>2026-03-23T16:36:38.96Z</time></trkpt><trkpt lat="43.8613717" lon="11.2190205"><ele>339.0</ele><time>2026-03-23T16:36:39.961Z</time></trkpt><trkpt lat="43.8613443" lon="11.2188317"><ele>337.0</ele><time>2026-03-23T16:36:40.964Z</time></trkpt><trkpt lat="43.8613266" lon="11.2186312"><ele>335.5</ele><time>2026-03-23T16:36:41.956Z</time></trkpt><trkpt lat="43.86131" lon="11.2184386"><ele>334.0</ele><time>2026-03-23T16:36:42.957Z</time></trkpt><trkpt lat="43.8612945" lon="11.2182404"><ele>332.5</ele><time>2026-03-23T16:36:43.958Z</time></trkpt><trkpt lat="43.8612755" lon="11.2180524"><ele>331.0</ele><time>2026-03-23T16:36:44.957Z</time></trkpt><trkpt lat="43.8612515" lon="11.2178806"><ele>330.3333333333333</ele><time>2026-03-23T16:36:45.954Z</time></trkpt><trkpt lat="43.8612265" lon="11.2177273"><ele>329.66666666666663</ele><time>2026-03-23T16:36:46.961Z</time></trkpt><trkpt lat="43.8612081" lon="11.2175936"><ele>329.0</ele><time>2026-03-23T16:36:47.954Z</time></trkpt><trkpt lat="43.8611927" lon="11.2175008"><ele>328.3333333333333</ele><time>2026-03-23T16:36:48.959Z</time></trkpt><trkpt lat="43.8611851" lon="11.2173773"><ele>327.6666666666667</ele><time>2026-03-23T16:36:50.964Z</time></trkpt><trkpt lat="43.8612455" lon="11.2173102"><ele>327.0</ele><time>2026-03-23T16:36:53.958Z</time></trkpt><trkpt lat="43.861356" lon="11.2173278"><ele>327.0</ele><time>2026-03-23T16:36:55.957Z</time></trkpt><trkpt lat="43.8614327" lon="11.217391"><ele>327.0</ele><time>2026-03-23T16:36:56.957Z</time></trkpt><trkpt lat="43.8615219" lon="11.2174692"><ele>327.0</ele><time>2026-03-23T16:36:57.958Z</time></trkpt><trkpt lat="43.8616228" lon="11.2175542"><ele>327.0</ele><time>2026-03-23T16:36:58.955Z</time></trkpt><trkpt lat="43.8617239" lon="11.2176433"><ele>327.0</ele><time>2026-03-23T16:36:59.955Z</time></trkpt><trkpt lat="43.8618336" lon="11.2177398"><ele>324.75</ele><time>2026-03-23T16:37:00.964Z</time></trkpt><trkpt lat="43.8619403" lon="11.2178275"><ele>322.5</ele><time>2026-03-23T16:37:01.953Z</time></trkpt><trkpt lat="43.862046" lon="11.2179133"><ele>320.25</ele><time>2026-03-23T16:37:02.95Z</time></trkpt><trkpt lat="43.8621483" lon="11.2179945"><ele>318.0</ele><time>2026-03-23T16:37:03.958Z</time></trkpt><trkpt lat="43.8622528" lon="11.2180606"><ele>318.0</ele><time>2026-03-23T16:37:04.944Z</time></trkpt><trkpt lat="43.8623545" lon="11.2181167"><ele>318.0</ele><time>2026-03-23T16:37:05.958Z</time></trkpt><trkpt lat="43.8624633" lon="11.218142"><ele>318.0</ele><time>2026-03-23T16:37:06.959Z</time></trkpt><trkpt lat="43.8625698" lon="11.2181592"><ele>318.0</ele><time>2026-03-23T16:37:07.957Z</time></trkpt><trkpt lat="43.8626645" lon="11.2181784"><ele>318.0</ele><time>2026-03-23T16:37:08.957Z</time></trkpt><trkpt lat="43.8627525" lon="11.2182052"><ele>318.4</ele><time>2026-03-23T16:37:09.952Z</time></trkpt><trkpt lat="43.8628511" lon="11.2182498"><ele>318.8</ele><time>2026-03-23T16:37:10.95Z</time></trkpt><trkpt lat="43.8629464" lon="11.2183151"><ele>319.2</ele><time>2026-03-23T16:37:11.957Z</time></trkpt><trkpt lat="43.8630536" lon="11.2183793"><ele>319.6</ele><time>2026-03-23T16:37:12.959Z</time></trkpt><trkpt lat="43.8631554" lon="11.2184311"><ele>320.0</ele><time>2026-03-23T16:37:13.953Z</time></trkpt><trkpt lat="43.863261" lon="11.2184723"><ele>320.0</ele><time>2026-03-23T16:37:14.958Z</time></trkpt><trkpt lat="43.8633654" lon="11.2185113"><ele>320.0</ele><time>2026-03-23T16:37:15.953Z</time></trkpt><trkpt lat="43.8634586" lon="11.2185448"><ele>320.0</ele><time>2026-03-23T16:37:16.956Z</time></trkpt><trkpt lat="43.8635498" lon="11.2185597"><ele>320.0</ele><time>2026-03-23T16:37:17.958Z</time></trkpt><trkpt lat="43.8636461" lon="11.21855"><ele>320.0</ele><time>2026-03-23T16:37:18.957Z</time></trkpt><trkpt lat="43.8637382" lon="11.2184964"><ele>320.0</ele><time>2026-03-23T16:37:19.957Z</time></trkpt><trkpt lat="43.8638323" lon="11.2184301"><ele>320.0</ele><time>2026-03-23T16:37:20.944Z</time></trkpt><trkpt lat="43.8639246" lon="11.2183522"><ele>320.0</ele><time>2026-03-23T16:37:21.961Z</time></trkpt><trkpt lat="43.864025" lon="11.2182979"><ele>320.0</ele><time>2026-03-23T16:37:22.956Z</time></trkpt><trkpt lat="43.8641094" lon="11.2182232"><ele>320.0</ele><time>2026-03-23T16:37:23.963Z</time></trkpt><trkpt lat="43.8641785" lon="11.2181378"><ele>319.1666666666667</ele><time>2026-03-23T16:37:24.956Z</time></trkpt><trkpt lat="43.864222" lon="11.2180344"><ele>318.33333333333337</ele><time>2026-03-23T16:37:25.954Z</time></trkpt><trkpt lat="43.8642463" lon="11.2179235"><ele>317.5</ele><time>2026-03-23T16:37:26.955Z</time></trkpt><trkpt lat="43.8642651" lon="11.2178066"><ele>316.6666666666667</ele><time>2026-03-23T16:37:27.952Z</time></trkpt><trkpt lat="43.8642852" lon="11.217684"><ele>315.8333333333333</ele><time>2026-03-23T16:37:28.96Z</time></trkpt><trkpt lat="43.8643095" lon="11.217566"><ele>315.0</ele><time>2026-03-23T16:37:29.954Z</time></trkpt><trkpt lat="43.8643382" lon="11.217455"><ele>315.0</ele><time>2026-03-23T16:37:30.957Z</time></trkpt><trkpt lat="43.8643657" lon="11.21735"><ele>315.0</ele><time>2026-03-23T16:37:31.962Z</time></trkpt><trkpt lat="43.8644044" lon="11.2172511"><ele>315.0</ele><time>2026-03-23T16:37:32.946Z</time></trkpt><trkpt lat="43.864448" lon="11.2171459"><ele>315.0</ele><time>2026-03-23T16:37:33.955Z</time></trkpt><trkpt lat="43.8644935" lon="11.2170402"><ele>315.0</ele><time>2026-03-23T16:37:34.953Z</time></trkpt><trkpt lat="43.8645412" lon="11.2169284"><ele>315.0</ele><time>2026-03-23T16:37:35.953Z</time></trkpt><trkpt lat="43.8645966" lon="11.2168204"><ele>313.0</ele><time>2026-03-23T16:37:36.957Z</time></trkpt><trkpt lat="43.8646661" lon="11.2167131"><ele>311.0</ele><time>2026-03-23T16:37:38.019Z</time></trkpt><trkpt lat="43.8647442" lon="11.2166218"><ele>309.0</ele><time>2026-03-23T16:37:38.953Z</time></trkpt><trkpt lat="43.8648227" lon="11.216527"><ele>307.0</ele><time>2026-03-23T16:37:39.954Z</time></trkpt><trkpt lat="43.8649072" lon="11.2164447"><ele>305.0</ele><time>2026-03-23T16:37:40.964Z</time></trkpt><trkpt lat="43.8649837" lon="11.2163674"><ele>304.5</ele><time>2026-03-23T16:37:41.954Z</time></trkpt><trkpt lat="43.8650437" lon="11.2162725"><ele>304.0</ele><time>2026-03-23T16:37:42.961Z</time></trkpt><trkpt lat="43.8650999" lon="11.216179"><ele>303.5</ele><time>2026-03-23T16:37:43.953Z</time></trkpt><trkpt lat="43.8651579" lon="11.2160802"><ele>303.0</ele><time>2026-03-23T16:37:44.958Z</time></trkpt><trkpt lat="43.8652213" lon="11.2159945"><ele>302.5</ele><time>2026-03-23T16:37:45.959Z</time></trkpt><trkpt lat="43.8652926" lon="11.2159235"><ele>302.0</ele><time>2026-03-23T16:37:46.959Z</time></trkpt><trkpt lat="43.8653644" lon="11.2158629"><ele>301.5</ele><time>2026-03-23T16:37:47.959Z</time></trkpt><trkpt lat="43.8654342" lon="11.2158185"><ele>301.0</ele><time>2026-03-23T16:37:48.959Z</time></trkpt><trkpt lat="43.8655037" lon="11.2158038"><ele>300.5</ele><time>2026-03-23T16:37:50.014Z</time></trkpt><trkpt lat="43.8655741" lon="11.2158141"><ele>300.0</ele><time>2026-03-23T16:37:50.957Z</time></trkpt><trkpt lat="43.8656532" lon="11.2158388"><ele>299.5</ele><time>2026-03-23T16:37:51.96Z</time></trkpt><trkpt lat="43.8657392" lon="11.2158396"><ele>299.0</ele><time>2026-03-23T16:37:52.973Z</time></trkpt><trkpt lat="43.8658292" lon="11.2157881"><ele>299.0</ele><time>2026-03-23T16:37:53.96Z</time></trkpt><trkpt lat="43.8659242" lon="11.2157337"><ele>299.0</ele><time>2026-03-23T16:37:54.959Z</time></trkpt><trkpt lat="43.8660256" lon="11.215658"><ele>299.0</ele><time>2026-03-23T16:37:55.956Z</time></trkpt><trkpt lat="43.8661276" lon="11.2155872"><ele>299.0</ele><time>2026-03-23T16:37:57.033Z</time></trkpt><trkpt lat="43.866216" lon="11.2155001"><ele>299.0</ele><time>2026-03-23T16:37:58.009Z</time></trkpt><trkpt lat="43.8663041" lon="11.2154237"><ele>296.59999999999997</ele><time>2026-03-23T16:37:58.944Z</time></trkpt><trkpt lat="43.8663807" lon="11.2153608"><ele>294.2</ele><time>2026-03-23T16:37:59.947Z</time></trkpt><trkpt lat="43.8664563" lon="11.2153173"><ele>291.79999999999995</ele><time>2026-03-23T16:38:00.954Z</time></trkpt><trkpt lat="43.8665326" lon="11.2153037"><ele>289.4</ele><time>2026-03-23T16:38:01.949Z</time></trkpt><trkpt lat="43.8666343" lon="11.2153143"><ele>287.0</ele><time>2026-03-23T16:38:03.009Z</time></trkpt><trkpt lat="43.8667562" lon="11.2153323"><ele>287.0</ele><time>2026-03-23T16:38:03.959Z</time></trkpt><trkpt lat="43.8668772" lon="11.21535"><ele>287.0</ele><time>2026-03-23T16:38:05.002Z</time></trkpt><trkpt lat="43.8669878" lon="11.2153702"><ele>287.0</ele><time>2026-03-23T16:38:05.949Z</time></trkpt><trkpt lat="43.8670923" lon="11.2153922"><ele>287.0</ele><time>2026-03-23T16:38:06.95Z</time></trkpt><trkpt lat="43.8671949" lon="11.2154293"><ele>287.0</ele><time>2026-03-23T16:38:07.978Z</time></trkpt><trkpt lat="43.8673023" lon="11.2154777"><ele>287.0</ele><time>2026-03-23T16:38:08.948Z</time></trkpt><trkpt lat="43.8673994" lon="11.2155184"><ele>287.0</ele><time>2026-03-23T16:38:09.947Z</time></trkpt><trkpt lat="43.8675004" lon="11.2155546"><ele>287.0</ele><time>2026-03-23T16:38:10.949Z</time></trkpt><trkpt lat="43.8675922" lon="11.2155909"><ele>287.0</ele><time>2026-03-23T16:38:11.959Z</time></trkpt><trkpt lat="43.8676756" lon="11.2156331"><ele>287.0</ele><time>2026-03-23T16:38:12.944Z</time></trkpt><trkpt lat="43.8677448" lon="11.2156717"><ele>287.6</ele><time>2026-03-23T16:38:13.943Z</time></trkpt><trkpt lat="43.8678511" lon="11.2156676"><ele>288.2</ele><time>2026-03-23T16:38:15.942Z</time></trkpt><trkpt lat="43.8679154" lon="11.2155439"><ele>288.8</ele><time>2026-03-23T16:38:17.946Z</time></trkpt><trkpt lat="43.8679585" lon="11.2153689"><ele>289.4</ele><time>2026-03-23T16:38:19.945Z</time></trkpt><trkpt lat="43.8679875" lon="11.2152883"><ele>290.0</ele><time>2026-03-23T16:38:20.96Z</time></trkpt><trkpt lat="43.8680553" lon="11.215164"><ele>288.2</ele><time>2026-03-23T16:38:22.951Z</time></trkpt><trkpt lat="43.8681296" lon="11.2150476"><ele>286.4</ele><time>2026-03-23T16:38:24.948Z</time></trkpt><trkpt lat="43.8682002" lon="11.2149533"><ele>284.6</ele><time>2026-03-23T16:38:26.952Z</time></trkpt><trkpt lat="43.8682734" lon="11.2148437"><ele>282.8</ele><time>2026-03-23T16:38:28.954Z</time></trkpt><trkpt lat="43.8683598" lon="11.2147177"><ele>281.0</ele><time>2026-03-23T16:38:30.953Z</time></trkpt><trkpt lat="43.8684069" lon="11.2146523"><ele>278.83333333333337</ele><time>2026-03-23T16:38:31.951Z</time></trkpt><trkpt lat="43.8684557" lon="11.2145799"><ele>276.6666666666667</ele><time>2026-03-23T16:38:32.957Z</time></trkpt><trkpt lat="43.8684979" lon="11.2145036"><ele>274.5</ele><time>2026-03-23T16:38:34.034Z</time></trkpt><trkpt lat="43.8685466" lon="11.2144313"><ele>272.3333333333333</ele><time>2026-03-23T16:38:35.057Z</time></trkpt><trkpt lat="43.8685939" lon="11.2143647"><ele>270.16666666666663</ele><time>2026-03-23T16:38:35.957Z</time></trkpt><trkpt lat="43.8686819" lon="11.2142572"><ele>268.0</ele><time>2026-03-23T16:38:37.967Z</time></trkpt><trkpt lat="43.8687485" lon="11.2141323"><ele>266.3333333333333</ele><time>2026-03-23T16:38:40.025Z</time></trkpt><trkpt lat="43.8687451" lon="11.2139626"><ele>264.66666666666663</ele><time>2026-03-23T16:38:41.952Z</time></trkpt><trkpt lat="43.8687235" lon="11.2138736"><ele>263.0</ele><time>2026-03-23T16:38:42.953Z</time></trkpt><trkpt lat="43.8686884" lon="11.2137877"><ele>261.3333333333333</ele><time>2026-03-23T16:38:43.941Z</time></trkpt><trkpt lat="43.8686413" lon="11.2137054"><ele>259.6666666666667</ele><time>2026-03-23T16:38:45.015Z</time></trkpt><trkpt lat="43.8685909" lon="11.2136318"><ele>258.0</ele><time>2026-03-23T16:38:45.948Z</time></trkpt><trkpt lat="43.868538" lon="11.2135733"><ele>258.0</ele><time>2026-03-23T16:38:46.953Z</time></trkpt><trkpt lat="43.8684812" lon="11.2135317"><ele>258.0</ele><time>2026-03-23T16:38:48.016Z</time></trkpt><trkpt lat="43.8684372" lon="11.2134629"><ele>258.0</ele><time>2026-03-23T16:38:51.948Z</time></trkpt><trkpt lat="43.8683502" lon="11.2133561"><ele>258.0</ele><time>2026-03-23T16:39:03.968Z</time></trkpt><trkpt lat="43.8683071" lon="11.213184"><ele>258.0</ele><time>2026-03-23T16:39:05.959Z</time></trkpt><trkpt lat="43.8682993" lon="11.2130812"><ele>257.2</ele><time>2026-03-23T16:39:06.953Z</time></trkpt><trkpt lat="43.8683025" lon="11.2129708"><ele>256.4</ele><time>2026-03-23T16:39:07.958Z</time></trkpt><trkpt lat="43.8683163" lon="11.2128514"><ele>255.59999999999997</ele><time>2026-03-23T16:39:08.954Z</time></trkpt><trkpt lat="43.8683549" lon="11.2127161"><ele>254.79999999999998</ele><time>2026-03-23T16:39:09.954Z</time></trkpt><trkpt lat="43.8684027" lon="11.2125778"><ele>254.0</ele><time>2026-03-23T16:39:10.962Z</time></trkpt><trkpt lat="43.8684551" lon="11.2124466"><ele>252.39999999999998</ele><time>2026-03-23T16:39:11.956Z</time></trkpt><trkpt lat="43.8685092" lon="11.2123306"><ele>250.79999999999998</ele><time>2026-03-23T16:39:12.963Z</time></trkpt><trkpt lat="43.8685566" lon="11.2122198"><ele>249.20000000000002</ele><time>2026-03-23T16:39:13.958Z</time></trkpt><trkpt lat="43.8685679" lon="11.2121189"><ele>247.60000000000002</ele><time>2026-03-23T16:39:14.961Z</time></trkpt><trkpt lat="43.8685215" lon="11.2119404"><ele>246.0</ele><time>2026-03-23T16:39:16.966Z</time></trkpt><trkpt lat="43.8684806" lon="11.2118191"><ele>246.0</ele><time>2026-03-23T16:39:17.954Z</time></trkpt><trkpt lat="43.8684217" lon="11.2116926"><ele>246.00000000000003</ele><time>2026-03-23T16:39:18.978Z</time></trkpt><trkpt lat="43.868366" lon="11.2115708"><ele>246.00000000000003</ele><time>2026-03-23T16:39:19.961Z</time></trkpt><trkpt lat="43.8683152" lon="11.2114654"><ele>246.0</ele><time>2026-03-23T16:39:20.959Z</time></trkpt><trkpt lat="43.8682769" lon="11.211355"><ele>246.0</ele><time>2026-03-23T16:39:21.96Z</time></trkpt><trkpt lat="43.868251" lon="11.211231"><ele>243.8</ele><time>2026-03-23T16:39:22.957Z</time></trkpt><trkpt lat="43.8682537" lon="11.2110983"><ele>241.60000000000002</ele><time>2026-03-23T16:39:23.957Z</time></trkpt><trkpt lat="43.868265" lon="11.2109572"><ele>239.4</ele><time>2026-03-23T16:39:24.957Z</time></trkpt><trkpt lat="43.8682876" lon="11.2108051"><ele>237.2</ele><time>2026-03-23T16:39:25.959Z</time></trkpt><trkpt lat="43.8683216" lon="11.2106491"><ele>235.0</ele><time>2026-03-23T16:39:26.963Z</time></trkpt><trkpt lat="43.8683601" lon="11.2104758"><ele>233.25</ele><time>2026-03-23T16:39:27.958Z</time></trkpt><trkpt lat="43.8684018" lon="11.2103082"><ele>231.5</ele><time>2026-03-23T16:39:28.955Z</time></trkpt><trkpt lat="43.8684402" lon="11.2101315"><ele>229.75</ele><time>2026-03-23T16:39:29.963Z</time></trkpt><trkpt lat="43.8684814" lon="11.2099571"><ele>228.0</ele><time>2026-03-23T16:39:30.961Z</time></trkpt><trkpt lat="43.8685209" lon="11.2097815"><ele>225.25</ele><time>2026-03-23T16:39:31.961Z</time></trkpt><trkpt lat="43.8685597" lon="11.2096043"><ele>222.5</ele><time>2026-03-23T16:39:32.962Z</time></trkpt><trkpt lat="43.8686008" lon="11.2094274"><ele>219.75</ele><time>2026-03-23T16:39:34.031Z</time></trkpt><trkpt lat="43.8686429" lon="11.2092546"><ele>217.0</ele><time>2026-03-23T16:39:35.021Z</time></trkpt><trkpt lat="43.8686843" lon="11.2090858"><ele>215.6</ele><time>2026-03-23T16:39:35.961Z</time></trkpt><trkpt lat="43.868732" lon="11.2089247"><ele>214.2</ele><time>2026-03-23T16:39:36.961Z</time></trkpt><trkpt lat="43.8687762" lon="11.2087687"><ele>212.8</ele><time>2026-03-23T16:39:37.957Z</time></trkpt><trkpt lat="43.8688135" lon="11.208639"><ele>211.4</ele><time>2026-03-23T16:39:38.959Z</time></trkpt><trkpt lat="43.8688307" lon="11.2085127"><ele>210.0</ele><time>2026-03-23T16:39:39.959Z</time></trkpt><trkpt lat="43.8688443" lon="11.2083902"><ele>210.0</ele><time>2026-03-23T16:39:40.957Z</time></trkpt><trkpt lat="43.8688537" lon="11.2082707"><ele>210.0</ele><time>2026-03-23T16:39:41.961Z</time></trkpt><trkpt lat="43.8688723" lon="11.208157"><ele>210.0</ele><time>2026-03-23T16:39:42.968Z</time></trkpt><trkpt lat="43.8689044" lon="11.2080554"><ele>210.0</ele><time>2026-03-23T16:39:43.957Z</time></trkpt><trkpt lat="43.8689438" lon="11.207953"><ele>210.0</ele><time>2026-03-23T16:39:44.961Z</time></trkpt><trkpt lat="43.868984" lon="11.2078564"><ele>210.0</ele><time>2026-03-23T16:39:45.955Z</time></trkpt><trkpt lat="43.8690212" lon="11.207772"><ele>209.42857142857142</ele><time>2026-03-23T16:39:46.962Z</time></trkpt><trkpt lat="43.8690767" lon="11.2076683"><ele>208.85714285714286</ele><time>2026-03-23T16:39:48.959Z</time></trkpt><trkpt lat="43.8691366" lon="11.207623"><ele>208.28571428571428</ele><time>2026-03-23T16:39:51.964Z</time></trkpt><trkpt lat="43.8691943" lon="11.2076617"><ele>207.71428571428572</ele><time>2026-03-23T16:39:53.959Z</time></trkpt><trkpt lat="43.8692616" lon="11.2076958"><ele>207.14285714285714</ele><time>2026-03-23T16:39:55.964Z</time></trkpt><trkpt lat="43.8693376" lon="11.2076866"><ele>206.57142857142856</ele><time>2026-03-23T16:39:57.96Z</time></trkpt><trkpt lat="43.8693803" lon="11.2076108"><ele>206.0</ele><time>2026-03-23T16:40:00.033Z</time></trkpt><trkpt lat="43.869411" lon="11.2075013"><ele>209.00000000000003</ele><time>2026-03-23T16:40:01.96Z</time></trkpt><trkpt lat="43.8694509" lon="11.2073874"><ele>212.0</ele><time>2026-03-23T16:40:03.961Z</time></trkpt><trkpt lat="43.8694941" lon="11.2072491"><ele>215.0</ele><time>2026-03-23T16:40:05.961Z</time></trkpt><trkpt lat="43.8695408" lon="11.2071055"><ele>218.0</ele><time>2026-03-23T16:40:08.024Z</time></trkpt><trkpt lat="43.8695561" lon="11.20701"><ele>221.00000000000003</ele><time>2026-03-23T16:40:09.028Z</time></trkpt><trkpt lat="43.8695785" lon="11.2069283"><ele>224.0</ele><time>2026-03-23T16:40:09.958Z</time></trkpt><trkpt lat="43.8695986" lon="11.2068384"><ele>224.33333333333334</ele><time>2026-03-23T16:40:10.954Z</time></trkpt><trkpt lat="43.8696066" lon="11.2067504"><ele>224.66666666666669</ele><time>2026-03-23T16:40:11.958Z</time></trkpt><trkpt lat="43.8696046" lon="11.2066496"><ele>225.0</ele><time>2026-03-23T16:40:12.965Z</time></trkpt><trkpt lat="43.8695968" lon="11.2065575"><ele>225.33333333333331</ele><time>2026-03-23T16:40:13.952Z</time></trkpt><trkpt lat="43.8695794" lon="11.2063882"><ele>225.66666666666666</ele><time>2026-03-23T16:40:15.963Z</time></trkpt><trkpt lat="43.8695653" lon="11.2062344"><ele>226.0</ele><time>2026-03-23T16:40:17.968Z</time></trkpt><trkpt lat="43.8695516" lon="11.2060725"><ele>227.0</ele><time>2026-03-23T16:40:19.958Z</time></trkpt><trkpt lat="43.8695418" lon="11.2059179"><ele>228.00000000000003</ele><time>2026-03-23T16:40:21.954Z</time></trkpt><trkpt lat="43.8695564" lon="11.2057813"><ele>229.00000000000003</ele><time>2026-03-23T16:40:24.018Z</time></trkpt><trkpt lat="43.8696252" lon="11.2057001"><ele>230.0</ele><time>2026-03-23T16:40:25.956Z</time></trkpt><trkpt lat="43.869719" lon="11.2057535"><ele>231.0</ele><time>2026-03-23T16:40:27.962Z</time></trkpt><trkpt lat="43.8698101" lon="11.2058589"><ele>231.0</ele><time>2026-03-23T16:40:29.96Z</time></trkpt><trkpt lat="43.8699081" lon="11.2059652"><ele>231.00000000000003</ele><time>2026-03-23T16:40:31.96Z</time></trkpt><trkpt lat="43.8699615" lon="11.2060126"><ele>231.00000000000003</ele><time>2026-03-23T16:40:32.963Z</time></trkpt><trkpt lat="43.8700604" lon="11.2060973"><ele>231.0</ele><time>2026-03-23T16:40:34.957Z</time></trkpt><trkpt lat="43.870129" lon="11.2062131"><ele>231.0</ele><time>2026-03-23T16:40:36.956Z</time></trkpt><trkpt lat="43.8701623" lon="11.206295"><ele>232.71428571428572</ele><time>2026-03-23T16:40:37.961Z</time></trkpt><trkpt lat="43.8701878" lon="11.2063803"><ele>234.42857142857144</ele><time>2026-03-23T16:40:39.033Z</time></trkpt><trkpt lat="43.8702173" lon="11.20647"><ele>236.14285714285714</ele><time>2026-03-23T16:40:40.017Z</time></trkpt><trkpt lat="43.870244" lon="11.2065495"><ele>237.85714285714286</ele><time>2026-03-23T16:40:40.959Z</time></trkpt><trkpt lat="43.870276" lon="11.2066285"><ele>239.57142857142858</ele><time>2026-03-23T16:40:41.961Z</time></trkpt><trkpt lat="43.870315" lon="11.2066994"><ele>241.28571428571428</ele><time>2026-03-23T16:40:42.959Z</time></trkpt><trkpt lat="43.8703752" lon="11.2068382"><ele>243.0</ele><time>2026-03-23T16:40:44.963Z</time></trkpt><trkpt lat="43.8704122" lon="11.2069839"><ele>243.66666666666666</ele><time>2026-03-23T16:40:46.959Z</time></trkpt><trkpt lat="43.870425" lon="11.2071598"><ele>244.33333333333331</ele><time>2026-03-23T16:40:49.039Z</time></trkpt><trkpt lat="43.8704273" lon="11.2072618"><ele>245.0</ele><time>2026-03-23T16:40:50.02Z</time></trkpt><trkpt lat="43.8704378" lon="11.2073633"><ele>245.66666666666666</ele><time>2026-03-23T16:40:50.958Z</time></trkpt><trkpt lat="43.8704456" lon="11.2074644"><ele>246.33333333333331</ele><time>2026-03-23T16:40:51.959Z</time></trkpt><trkpt lat="43.8704452" lon="11.2075649"><ele>247.0</ele><time>2026-03-23T16:40:52.974Z</time></trkpt><trkpt lat="43.8704479" lon="11.2076652"><ele>247.2</ele><time>2026-03-23T16:40:54.031Z</time></trkpt><trkpt lat="43.8704488" lon="11.2077664"><ele>247.39999999999998</ele><time>2026-03-23T16:40:55.025Z</time></trkpt><trkpt lat="43.870451" lon="11.2078664"><ele>247.60000000000002</ele><time>2026-03-23T16:40:55.963Z</time></trkpt><trkpt lat="43.8704459" lon="11.2079613"><ele>247.8</ele><time>2026-03-23T16:40:56.96Z</time></trkpt><trkpt lat="43.8704307" lon="11.2081258"><ele>248.0</ele><time>2026-03-23T16:40:58.962Z</time></trkpt><trkpt lat="43.8704378" lon="11.208287"><ele>248.2857142857143</ele><time>2026-03-23T16:41:00.956Z</time></trkpt><trkpt lat="43.8704569" lon="11.2083823"><ele>248.5714285714286</ele><time>2026-03-23T16:41:02.026Z</time></trkpt><trkpt lat="43.8704753" lon="11.2084749"><ele>248.85714285714286</ele><time>2026-03-23T16:41:03.015Z</time></trkpt><trkpt lat="43.8704902" lon="11.2085687"><ele>249.14285714285717</ele><time>2026-03-23T16:41:04.02Z</time></trkpt><trkpt lat="43.8704947" lon="11.2086611"><ele>249.42857142857144</ele><time>2026-03-23T16:41:05.021Z</time></trkpt><trkpt lat="43.8704952" lon="11.2087532"><ele>249.71428571428572</ele><time>2026-03-23T16:41:05.962Z</time></trkpt><trkpt lat="43.8704884" lon="11.2088459"><ele>250.0</ele><time>2026-03-23T16:41:06.956Z</time></trkpt><trkpt lat="43.8704809" lon="11.2089399"><ele>250.57142857142856</ele><time>2026-03-23T16:41:07.956Z</time></trkpt><trkpt lat="43.8704796" lon="11.2090308"><ele>251.14285714285717</ele><time>2026-03-23T16:41:09.013Z</time></trkpt><trkpt lat="43.8704747" lon="11.2091264"><ele>251.71428571428572</ele><time>2026-03-23T16:41:10.023Z</time></trkpt><trkpt lat="43.8704753" lon="11.2092222"><ele>252.28571428571428</ele><time>2026-03-23T16:41:10.95Z</time></trkpt><trkpt lat="43.870464" lon="11.2093108"><ele>252.85714285714283</ele><time>2026-03-23T16:41:11.959Z</time></trkpt><trkpt lat="43.8704598" lon="11.2093992"><ele>253.42857142857144</ele><time>2026-03-23T16:41:12.971Z</time></trkpt><trkpt lat="43.8704571" lon="11.2095519"><ele>254.0</ele><time>2026-03-23T16:41:14.964Z</time></trkpt><trkpt lat="43.8704864" lon="11.2096317"><ele>254.00000000000003</ele><time>2026-03-23T16:41:16.966Z</time></trkpt><trkpt lat="43.8705879" lon="11.2096616"><ele>254.0</ele><time>2026-03-23T16:41:20.033Z</time></trkpt><trkpt lat="43.870661" lon="11.2096722"><ele>254.0</ele><time>2026-03-23T16:41:21.957Z</time></trkpt><trkpt lat="43.87073" lon="11.2096903"><ele>254.0</ele><time>2026-03-23T16:41:23.961Z</time></trkpt><trkpt lat="43.8707931" lon="11.2097061"><ele>254.00000000000003</ele><time>2026-03-23T16:41:25.949Z</time></trkpt><trkpt lat="43.8708624" lon="11.2097163"><ele>254.0</ele><time>2026-03-23T16:41:27.964Z</time></trkpt><trkpt lat="43.8709333" lon="11.2097343"><ele>254.00000000000003</ele><time>2026-03-23T16:41:29.958Z</time></trkpt><trkpt lat="43.8709863" lon="11.2098425"><ele>254.0</ele><time>2026-03-23T16:41:32.963Z</time></trkpt><trkpt lat="43.8710485" lon="11.2099104"><ele>254.0</ele><time>2026-03-23T16:41:35.96Z</time></trkpt><trkpt lat="43.871106" lon="11.2099505"><ele>254.0</ele><time>2026-03-23T16:41:39.952Z</time></trkpt><trkpt lat="43.871031" lon="11.209897"><ele>254.00000000000003</ele><time>2026-03-23T16:42:32.961Z</time></trkpt><trkpt lat="43.870986" lon="11.2098336"><ele>254.0</ele><time>2026-03-23T16:42:35.95Z</time></trkpt><trkpt lat="43.8709403" lon="11.2097473"><ele>254.00000000000003</ele><time>2026-03-23T16:42:38.957Z</time></trkpt><trkpt lat="43.8708587" lon="11.2097131"><ele>254.0</ele><time>2026-03-23T16:42:41.96Z</time></trkpt><trkpt lat="43.8707911" lon="11.2096926"><ele>254.0</ele><time>2026-03-23T16:42:43.949Z</time></trkpt><trkpt lat="43.8707048" lon="11.2096754"><ele>254.0</ele><time>2026-03-23T16:42:45.959Z</time></trkpt><trkpt lat="43.870616" lon="11.2096623"><ele>254.00000000000003</ele><time>2026-03-23T16:42:48.96Z</time></trkpt><trkpt lat="43.8705548" lon="11.2096975"><ele>254.0</ele><time>2026-03-23T16:42:54.961Z</time></trkpt><trkpt lat="43.870581" lon="11.2097952"><ele>254.16666666666669</ele><time>2026-03-23T16:42:58.964Z</time></trkpt><trkpt lat="43.870628" lon="11.2098793"><ele>254.33333333333334</ele><time>2026-03-23T16:43:01.96Z</time></trkpt><trkpt lat="43.8706444" lon="11.2099889"><ele>254.5</ele><time>2026-03-23T16:43:04.962Z</time></trkpt><trkpt lat="43.8706595" lon="11.2101202"><ele>254.66666666666669</ele><time>2026-03-23T16:43:07.953Z</time></trkpt><trkpt lat="43.8706711" lon="11.2102092"><ele>254.83333333333334</ele><time>2026-03-23T16:43:10.962Z</time></trkpt><trkpt lat="43.8707334" lon="11.2102294"><ele>255.0</ele><time>2026-03-23T16:43:16.956Z</time></trkpt><trkpt lat="43.8707788" lon="11.2103041"><ele>255.0</ele><time>2026-03-23T16:43:20.959Z</time></trkpt><trkpt lat="43.8708032" lon="11.2103917"><ele>255.00000000000003</ele><time>2026-03-23T16:43:25.02Z</time></trkpt><trkpt lat="43.8708449" lon="11.2104664"><ele>255.0</ele><time>2026-03-23T16:43:29.958Z</time></trkpt><trkpt lat="43.8709134" lon="11.2105103"><ele>255.0</ele><time>2026-03-23T16:43:33.954Z</time></trkpt><trkpt lat="43.8709754" lon="11.210489"><ele>255.00000000000003</ele><time>2026-03-23T16:43:37.952Z</time></trkpt><trkpt lat="43.8710489" lon="11.2105191"><ele>255.0</ele><time>2026-03-23T16:43:42.946Z</time></trkpt><trkpt lat="43.8711194" lon="11.2105215"><ele>255.0</ele><time>2026-03-23T16:43:46.941Z</time></trkpt><trkpt lat="43.8711839" lon="11.2105165"><ele>259.0</ele><time>2026-03-23T16:43:50.948Z</time></trkpt><trkpt lat="43.8712504" lon="11.2105622"><ele>263.0</ele><time>2026-03-23T16:43:55.954Z</time></trkpt><trkpt lat="43.8713202" lon="11.2105883"><ele>267.0</ele><time>2026-03-23T16:44:00.948Z</time></trkpt><trkpt lat="43.8713474" lon="11.2106843"><ele>271.0</ele><time>2026-03-23T16:44:04.989Z</time></trkpt><trkpt lat="43.8713844" lon="11.2107818"><ele>275.0</ele><time>2026-03-23T16:44:09.938Z</time></trkpt><trkpt lat="43.8713981" lon="11.2108993"><ele>279.0</ele><time>2026-03-23T16:44:13.948Z</time></trkpt><trkpt lat="43.8713885" lon="11.2110182"><ele>279.0</ele><time>2026-03-23T16:44:16.959Z</time></trkpt><trkpt lat="43.8713795" lon="11.2111373"><ele>279.0</ele><time>2026-03-23T16:44:19.95Z</time></trkpt><trkpt lat="43.8714108" lon="11.2112472"><ele>279.0</ele><time>2026-03-23T16:44:22.955Z</time></trkpt><trkpt lat="43.8714386" lon="11.211326"><ele>279.0</ele><time>2026-03-23T16:44:24.961Z</time></trkpt><trkpt lat="43.8714878" lon="11.2114146"><ele>279.0</ele><time>2026-03-23T16:44:27.949Z</time></trkpt><trkpt lat="43.8715763" lon="11.2114112"><ele>279.0</ele><time>2026-03-23T16:44:30.949Z</time></trkpt><trkpt lat="43.8716483" lon="11.2114036"><ele>279.0</ele><time>2026-03-23T16:44:33.033Z</time></trkpt><trkpt lat="43.871724" lon="11.2114236"><ele>279.0</ele><time>2026-03-23T16:44:34.951Z</time></trkpt><trkpt lat="43.8717771" lon="11.2114713"><ele>279.0</ele><time>2026-03-23T16:44:38.027Z</time></trkpt><trkpt lat="43.8717491" lon="11.211567"><ele>279.0</ele><time>2026-03-23T16:44:41.964Z</time></trkpt><trkpt lat="43.8718606" lon="11.2115546"><ele>279.0</ele><time>2026-03-23T16:44:50.964Z</time></trkpt><trkpt lat="43.8719128" lon="11.2114754"><ele>279.0</ele><time>2026-03-23T16:44:51.964Z</time></trkpt><trkpt lat="43.8719603" lon="11.2114044"><ele>285.0</ele><time>2026-03-23T16:44:52.966Z</time></trkpt><trkpt lat="43.8720017" lon="11.2113299"><ele>291.0</ele><time>2026-03-23T16:44:54.035Z</time></trkpt><trkpt lat="43.8720503" lon="11.211183"><ele>297.0</ele><time>2026-03-23T16:44:55.97Z</time></trkpt><trkpt lat="43.8720574" lon="11.2110282"><ele>303.0</ele><time>2026-03-23T16:44:57.969Z</time></trkpt><trkpt lat="43.8720516" lon="11.2109211"><ele>309.0</ele><time>2026-03-23T16:44:59.033Z</time></trkpt><trkpt lat="43.8720527" lon="11.2108138"><ele>309.0</ele><time>2026-03-23T16:44:59.96Z</time></trkpt><trkpt lat="43.8720427" lon="11.21069"><ele>309.0</ele><time>2026-03-23T16:45:00.952Z</time></trkpt><trkpt lat="43.8720318" lon="11.2105715"><ele>309.0</ele><time>2026-03-23T16:45:01.942Z</time></trkpt><trkpt lat="43.8720219" lon="11.2104651"><ele>309.0</ele><time>2026-03-23T16:45:03.014Z</time></trkpt><trkpt lat="43.871997" lon="11.2103559"><ele>309.0</ele><time>2026-03-23T16:45:04.028Z</time></trkpt><trkpt lat="43.87198" lon="11.2102658"><ele>309.0</ele><time>2026-03-23T16:45:04.972Z</time></trkpt><trkpt lat="43.8719646" lon="11.2101788"><ele>309.0</ele><time>2026-03-23T16:45:05.958Z</time></trkpt><trkpt lat="43.8719488" lon="11.2100114"><ele>309.0</ele><time>2026-03-23T16:45:07.955Z</time></trkpt><trkpt lat="43.8719164" lon="11.2098699"><ele>309.0</ele><time>2026-03-23T16:45:09.948Z</time></trkpt><trkpt lat="43.8718932" lon="11.2097369"><ele>309.0</ele><time>2026-03-23T16:45:11.956Z</time></trkpt><trkpt lat="43.8718398" lon="11.2096628"><ele>309.0</ele><time>2026-03-23T16:45:13.956Z</time></trkpt><trkpt lat="43.8717692" lon="11.2096235"><ele>304.0</ele><time>2026-03-23T16:45:16.955Z</time></trkpt><trkpt lat="43.871708" lon="11.2095593"><ele>299.0</ele><time>2026-03-23T16:45:19.954Z</time></trkpt><trkpt lat="43.8716375" lon="11.2094784"><ele>294.0</ele><time>2026-03-23T16:45:23.013Z</time></trkpt><trkpt lat="43.8716232" lon="11.2093856"><ele>289.0</ele><time>2026-03-23T16:45:24.955Z</time></trkpt><trkpt lat="43.8716142" lon="11.2092546"><ele>284.0</ele><time>2026-03-23T16:45:26.959Z</time></trkpt><trkpt lat="43.8716012" lon="11.2091034"><ele>279.0</ele><time>2026-03-23T16:45:28.952Z</time></trkpt><trkpt lat="43.8716023" lon="11.2089325"><ele>278.71428571428567</ele><time>2026-03-23T16:45:30.945Z</time></trkpt><trkpt lat="43.8716021" lon="11.2088347"><ele>278.42857142857144</ele><time>2026-03-23T16:45:31.956Z</time></trkpt><trkpt lat="43.8716022" lon="11.2087396"><ele>278.1428571428571</ele><time>2026-03-23T16:45:32.958Z</time></trkpt><trkpt lat="43.8716028" lon="11.2086415"><ele>277.85714285714283</ele><time>2026-03-23T16:45:34.047Z</time></trkpt><trkpt lat="43.8716" lon="11.2085389"><ele>277.57142857142856</ele><time>2026-03-23T16:45:34.954Z</time></trkpt><trkpt lat="43.8715956" lon="11.2084424"><ele>277.2857142857143</ele><time>2026-03-23T16:45:35.951Z</time></trkpt><trkpt lat="43.871595" lon="11.2083466"><ele>277.0</ele><time>2026-03-23T16:45:36.961Z</time></trkpt><trkpt lat="43.8716" lon="11.2082455"><ele>275.8333333333333</ele><time>2026-03-23T16:45:37.955Z</time></trkpt><trkpt lat="43.8716029" lon="11.2081419"><ele>274.66666666666663</ele><time>2026-03-23T16:45:38.954Z</time></trkpt><trkpt lat="43.8716032" lon="11.2080342"><ele>273.5</ele><time>2026-03-23T16:45:40.034Z</time></trkpt><trkpt lat="43.8716013" lon="11.2079239"><ele>272.3333333333333</ele><time>2026-03-23T16:45:40.956Z</time></trkpt><trkpt lat="43.8715992" lon="11.2078143"><ele>271.1666666666667</ele><time>2026-03-23T16:45:41.958Z</time></trkpt><trkpt lat="43.8716012" lon="11.20771"><ele>270.0</ele><time>2026-03-23T16:45:42.961Z</time></trkpt><trkpt lat="43.871603" lon="11.2076088"><ele>270.0</ele><time>2026-03-23T16:45:43.994Z</time></trkpt><trkpt lat="43.8716078" lon="11.2075166"><ele>270.0</ele><time>2026-03-23T16:45:44.958Z</time></trkpt><trkpt lat="43.8716147" lon="11.207425"><ele>270.0</ele><time>2026-03-23T16:45:45.957Z</time></trkpt><trkpt lat="43.8716236" lon="11.2073323"><ele>270.0</ele><time>2026-03-23T16:45:46.961Z</time></trkpt><trkpt lat="43.8716554" lon="11.2071877"><ele>270.0</ele><time>2026-03-23T16:45:48.991Z</time></trkpt><trkpt lat="43.8717177" lon="11.2070919"><ele>270.0</ele><time>2026-03-23T16:45:50.956Z</time></trkpt><trkpt lat="43.8718155" lon="11.2069845"><ele>269.8333333333333</ele><time>2026-03-23T16:45:52.96Z</time></trkpt><trkpt lat="43.8718767" lon="11.2069203"><ele>269.6666666666667</ele><time>2026-03-23T16:45:53.953Z</time></trkpt><trkpt lat="43.8719346" lon="11.2068555"><ele>269.5</ele><time>2026-03-23T16:45:54.957Z</time></trkpt><trkpt lat="43.8719908" lon="11.206794"><ele>269.33333333333337</ele><time>2026-03-23T16:45:55.957Z</time></trkpt><trkpt lat="43.8720348" lon="11.2067293"><ele>269.1666666666667</ele><time>2026-03-23T16:45:57.034Z</time></trkpt><trkpt lat="43.8721208" lon="11.2066387"><ele>269.0</ele><time>2026-03-23T16:45:59.033Z</time></trkpt><trkpt lat="43.8721863" lon="11.206562"><ele>269.0</ele><time>2026-03-23T16:46:00.969Z</time></trkpt><trkpt lat="43.8722368" lon="11.2065037"><ele>269.0</ele><time>2026-03-23T16:46:02.963Z</time></trkpt><trkpt lat="43.8723029" lon="11.2064978"><ele>269.0</ele><time>2026-03-23T16:46:19.959Z</time></trkpt><trkpt lat="43.8723723" lon="11.2066237"><ele>269.0</ele><time>2026-03-23T16:46:21.957Z</time></trkpt><trkpt lat="43.8724228" lon="11.2066874"><ele>269.0</ele><time>2026-03-23T16:46:22.955Z</time></trkpt><trkpt lat="43.8724693" lon="11.2067572"><ele>269.0</ele><time>2026-03-23T16:46:23.956Z</time></trkpt><trkpt lat="43.8725116" lon="11.2068239"><ele>269.0</ele><time>2026-03-23T16:46:24.956Z</time></trkpt><trkpt lat="43.8725615" lon="11.2068909"><ele>269.7142857142857</ele><time>2026-03-23T16:46:25.955Z</time></trkpt><trkpt lat="43.8726105" lon="11.2069578"><ele>270.42857142857144</ele><time>2026-03-23T16:46:26.952Z</time></trkpt><trkpt lat="43.8726581" lon="11.2070288"><ele>271.14285714285717</ele><time>2026-03-23T16:46:27.958Z</time></trkpt><trkpt lat="43.8727046" lon="11.2070992"><ele>271.8571428571429</ele><time>2026-03-23T16:46:29.023Z</time></trkpt><trkpt lat="43.872752" lon="11.2071751"><ele>272.57142857142856</ele><time>2026-03-23T16:46:30.014Z</time></trkpt><trkpt lat="43.8728004" lon="11.2072428"><ele>273.28571428571433</ele><time>2026-03-23T16:46:30.955Z</time></trkpt><trkpt lat="43.8728484" lon="11.2073108"><ele>274.0</ele><time>2026-03-23T16:46:31.956Z</time></trkpt><trkpt lat="43.872903" lon="11.2073741"><ele>274.0</ele><time>2026-03-23T16:46:32.955Z</time></trkpt><trkpt lat="43.8729637" lon="11.2074167"><ele>274.0</ele><time>2026-03-23T16:46:33.953Z</time></trkpt><trkpt lat="43.8730633" lon="11.2074738"><ele>274.0</ele><time>2026-03-23T16:46:35.957Z</time></trkpt><trkpt lat="43.8731295" lon="11.2074467"><ele>274.0</ele><time>2026-03-23T16:46:37.947Z</time></trkpt><trkpt lat="43.8732109" lon="11.20739"><ele>274.0</ele><time>2026-03-23T16:46:39.955Z</time></trkpt><trkpt lat="43.8733019" lon="11.2073309"><ele>274.0</ele><time>2026-03-23T16:46:41.954Z</time></trkpt><trkpt lat="43.87337" lon="11.2072665"><ele>274.0</ele><time>2026-03-23T16:46:43.945Z</time></trkpt><trkpt lat="43.8734036" lon="11.2071758"><ele>274.0</ele><time>2026-03-23T16:46:45.948Z</time></trkpt><trkpt lat="43.8734455" lon="11.2070536"><ele>274.0</ele><time>2026-03-23T16:46:48.041Z</time></trkpt><trkpt lat="43.8734715" lon="11.2069197"><ele>274.0</ele><time>2026-03-23T16:46:49.954Z</time></trkpt><trkpt lat="43.873501" lon="11.2067668"><ele>274.0</ele><time>2026-03-23T16:46:51.952Z</time></trkpt><trkpt lat="43.8735223" lon="11.2066828"><ele>274.0</ele><time>2026-03-23T16:46:52.958Z</time></trkpt><trkpt lat="43.8735445" lon="11.2065919"><ele>275.0</ele><time>2026-03-23T16:46:53.951Z</time></trkpt><trkpt lat="43.8735682" lon="11.2064892"><ele>276.0</ele><time>2026-03-23T16:46:54.954Z</time></trkpt><trkpt lat="43.8735994" lon="11.2063812"><ele>277.0</ele><time>2026-03-23T16:46:55.954Z</time></trkpt><trkpt lat="43.8736272" lon="11.2062765"><ele>278.0</ele><time>2026-03-23T16:46:56.957Z</time></trkpt><trkpt lat="43.8736513" lon="11.2061712"><ele>279.0</ele><time>2026-03-23T16:46:57.951Z</time></trkpt><trkpt lat="43.8736693" lon="11.2060694"><ele>280.0</ele><time>2026-03-23T16:46:59.029Z</time></trkpt><trkpt lat="43.8736851" lon="11.2059798"><ele>280.0</ele><time>2026-03-23T16:46:59.957Z</time></trkpt><trkpt lat="43.8737338" lon="11.2058283"><ele>280.0</ele><time>2026-03-23T16:47:01.957Z</time></trkpt><trkpt lat="43.8737839" lon="11.2057569"><ele>280.0</ele><time>2026-03-23T16:47:02.958Z</time></trkpt><trkpt lat="43.8738377" lon="11.2056745"><ele>280.0</ele><time>2026-03-23T16:47:03.955Z</time></trkpt><trkpt lat="43.8738919" lon="11.2055902"><ele>280.0</ele><time>2026-03-23T16:47:05.032Z</time></trkpt><trkpt lat="43.8739538" lon="11.2055043"><ele>280.0</ele><time>2026-03-23T16:47:05.95Z</time></trkpt><trkpt lat="43.8740038" lon="11.2053956"><ele>280.0</ele><time>2026-03-23T16:47:07.028Z</time></trkpt><trkpt lat="43.8740577" lon="11.2052961"><ele>280.0</ele><time>2026-03-23T16:47:07.95Z</time></trkpt><trkpt lat="43.8741163" lon="11.2051937"><ele>280.0</ele><time>2026-03-23T16:47:08.953Z</time></trkpt><trkpt lat="43.874168" lon="11.205084"><ele>280.0</ele><time>2026-03-23T16:47:09.949Z</time></trkpt><trkpt lat="43.8741983" lon="11.2049633"><ele>280.0</ele><time>2026-03-23T16:47:10.951Z</time></trkpt><trkpt lat="43.8742208" lon="11.2048354"><ele>280.4</ele><time>2026-03-23T16:47:11.954Z</time></trkpt><trkpt lat="43.8742413" lon="11.204728"><ele>280.8</ele><time>2026-03-23T16:47:12.949Z</time></trkpt><trkpt lat="43.874239" lon="11.2045828"><ele>281.2</ele><time>2026-03-23T16:47:15.034Z</time></trkpt><trkpt lat="43.8741905" lon="11.2044872"><ele>281.6</ele><time>2026-03-23T16:47:16.948Z</time></trkpt><trkpt lat="43.8741323" lon="11.2043287"><ele>282.0</ele><time>2026-03-23T16:47:19.034Z</time></trkpt><trkpt lat="43.8740981" lon="11.2042358"><ele>282.0</ele><time>2026-03-23T16:47:20.025Z</time></trkpt><trkpt lat="43.8740655" lon="11.2041348"><ele>282.0</ele><time>2026-03-23T16:47:20.964Z</time></trkpt><trkpt lat="43.8740201" lon="11.20405"><ele>282.0</ele><time>2026-03-23T16:47:21.96Z</time></trkpt><trkpt lat="43.873905" lon="11.2039931"><ele>282.0</ele><time>2026-03-23T16:47:23.958Z</time></trkpt><trkpt lat="43.8738229" lon="11.203987"><ele>282.0</ele><time>2026-03-23T16:47:24.968Z</time></trkpt><trkpt lat="43.873732" lon="11.2039449"><ele>282.0</ele><time>2026-03-23T16:47:25.956Z</time></trkpt><trkpt lat="43.8736412" lon="11.203888"><ele>282.0</ele><time>2026-03-23T16:47:26.974Z</time></trkpt><trkpt lat="43.873554" lon="11.2038337"><ele>282.0</ele><time>2026-03-23T16:47:27.993Z</time></trkpt><trkpt lat="43.8734715" lon="11.2037767"><ele>282.0</ele><time>2026-03-23T16:47:28.957Z</time></trkpt><trkpt lat="43.8734084" lon="11.2037366"><ele>282.0</ele><time>2026-03-23T16:47:29.965Z</time></trkpt><trkpt lat="43.8733251" lon="11.2036883"><ele>282.0</ele><time>2026-03-23T16:47:31.958Z</time></trkpt><trkpt lat="43.8732345" lon="11.2036355"><ele>278.8</ele><time>2026-03-23T16:47:33.96Z</time></trkpt><trkpt lat="43.873173" lon="11.2035943"><ele>275.6</ele><time>2026-03-23T16:47:34.957Z</time></trkpt><trkpt lat="43.8730983" lon="11.2035513"><ele>272.40000000000003</ele><time>2026-03-23T16:47:35.957Z</time></trkpt><trkpt lat="43.8730065" lon="11.2034956"><ele>269.2</ele><time>2026-03-23T16:47:36.964Z</time></trkpt><trkpt lat="43.872907" lon="11.2034406"><ele>266.0</ele><time>2026-03-23T16:47:37.959Z</time></trkpt><trkpt lat="43.8727968" lon="11.2033866"><ele>266.0</ele><time>2026-03-23T16:47:38.957Z</time></trkpt><trkpt lat="43.8726792" lon="11.2033265"><ele>266.0</ele><time>2026-03-23T16:47:39.963Z</time></trkpt><trkpt lat="43.8725629" lon="11.2032639"><ele>266.0</ele><time>2026-03-23T16:47:40.958Z</time></trkpt><trkpt lat="43.8724382" lon="11.2031972"><ele>266.0</ele><time>2026-03-23T16:47:41.959Z</time></trkpt><trkpt lat="43.8723076" lon="11.2031218"><ele>264.0</ele><time>2026-03-23T16:47:42.962Z</time></trkpt><trkpt lat="43.872176" lon="11.2030505"><ele>262.0</ele><time>2026-03-23T16:47:43.959Z</time></trkpt><trkpt lat="43.8720445" lon="11.2029733"><ele>260.0</ele><time>2026-03-23T16:47:44.961Z</time></trkpt><trkpt lat="43.8719177" lon="11.2029026"><ele>258.0</ele><time>2026-03-23T16:47:45.967Z</time></trkpt><trkpt lat="43.8718042" lon="11.2028389"><ele>256.0</ele><time>2026-03-23T16:47:46.96Z</time></trkpt><trkpt lat="43.8716954" lon="11.2027711"><ele>254.0</ele><time>2026-03-23T16:47:47.962Z</time></trkpt><trkpt lat="43.8715862" lon="11.2027135"><ele>252.0</ele><time>2026-03-23T16:47:48.959Z</time></trkpt><trkpt lat="43.8714712" lon="11.2026505"><ele>250.0</ele><time>2026-03-23T16:47:49.954Z</time></trkpt><trkpt lat="43.8713532" lon="11.2025801"><ele>250.0</ele><time>2026-03-23T16:47:50.962Z</time></trkpt><trkpt lat="43.8712283" lon="11.2025132"><ele>250.0</ele><time>2026-03-23T16:47:51.964Z</time></trkpt><trkpt lat="43.8710991" lon="11.2024419"><ele>250.0</ele><time>2026-03-23T16:47:52.965Z</time></trkpt><trkpt lat="43.8709695" lon="11.2023727"><ele>250.0</ele><time>2026-03-23T16:47:53.954Z</time></trkpt><trkpt lat="43.8708464" lon="11.2023091"><ele>250.0</ele><time>2026-03-23T16:47:54.958Z</time></trkpt><trkpt lat="43.8707239" lon="11.2022373"><ele>250.0</ele><time>2026-03-23T16:47:55.964Z</time></trkpt><trkpt lat="43.8706034" lon="11.2021779"><ele>250.0</ele><time>2026-03-23T16:47:56.959Z</time></trkpt><trkpt lat="43.8704842" lon="11.2021092"><ele>250.0</ele><time>2026-03-23T16:47:57.959Z</time></trkpt><trkpt lat="43.8703656" lon="11.2020419"><ele>250.0</ele><time>2026-03-23T16:47:58.97Z</time></trkpt><trkpt lat="43.8702562" lon="11.2019792"><ele>250.0</ele><time>2026-03-23T16:47:59.96Z</time></trkpt><trkpt lat="43.8701615" lon="11.2019315"><ele>250.0</ele><time>2026-03-23T16:48:00.964Z</time></trkpt><trkpt lat="43.8700866" lon="11.201897"><ele>250.0</ele><time>2026-03-23T16:48:01.965Z</time></trkpt><trkpt lat="43.8700237" lon="11.2018148"><ele>250.0</ele><time>2026-03-23T16:48:03.958Z</time></trkpt><trkpt lat="43.8700444" lon="11.2017197"><ele>249.99999999999997</ele><time>2026-03-23T16:48:05.961Z</time></trkpt><trkpt lat="43.8700929" lon="11.2015924"><ele>250.0</ele><time>2026-03-23T16:48:07.963Z</time></trkpt><trkpt lat="43.8701251" lon="11.2015156"><ele>250.0</ele><time>2026-03-23T16:48:08.963Z</time></trkpt><trkpt lat="43.8701614" lon="11.2014363"><ele>250.0</ele><time>2026-03-23T16:48:09.988Z</time></trkpt><trkpt lat="43.8702029" lon="11.2013431"><ele>249.99999999999997</ele><time>2026-03-23T16:48:10.956Z</time></trkpt><trkpt lat="43.8702412" lon="11.2012354"><ele>250.0</ele><time>2026-03-23T16:48:11.961Z</time></trkpt><trkpt lat="43.8702827" lon="11.2011217"><ele>249.99999999999997</ele><time>2026-03-23T16:48:12.962Z</time></trkpt><trkpt lat="43.8703228" lon="11.2010148"><ele>250.0</ele><time>2026-03-23T16:48:13.96Z</time></trkpt><trkpt lat="43.870365" lon="11.2009126"><ele>250.0</ele><time>2026-03-23T16:48:14.968Z</time></trkpt><trkpt lat="43.8704058" lon="11.2008297"><ele>250.0</ele><time>2026-03-23T16:48:15.963Z</time></trkpt><trkpt lat="43.8704513" lon="11.2007457"><ele>249.99999999999997</ele><time>2026-03-23T16:48:16.967Z</time></trkpt><trkpt lat="43.870511" lon="11.2006723"><ele>250.0</ele><time>2026-03-23T16:48:17.955Z</time></trkpt><trkpt lat="43.8705693" lon="11.2005915"><ele>250.0</ele><time>2026-03-23T16:48:18.958Z</time></trkpt><trkpt lat="43.8706489" lon="11.2005127"><ele>250.0</ele><time>2026-03-23T16:48:19.963Z</time></trkpt><trkpt lat="43.8707525" lon="11.2004355"><ele>250.0</ele><time>2026-03-23T16:48:20.96Z</time></trkpt><trkpt lat="43.8708522" lon="11.2003469"><ele>250.0</ele><time>2026-03-23T16:48:21.963Z</time></trkpt><trkpt lat="43.8709322" lon="11.20027"><ele>250.0</ele><time>2026-03-23T16:48:22.951Z</time></trkpt><trkpt lat="43.871006" lon="11.2001974"><ele>251.16666666666666</ele><time>2026-03-23T16:48:23.96Z</time></trkpt><trkpt lat="43.8710775" lon="11.2001166"><ele>252.33333333333331</ele><time>2026-03-23T16:48:24.966Z</time></trkpt><trkpt lat="43.8711452" lon="11.2000303"><ele>253.5</ele><time>2026-03-23T16:48:25.961Z</time></trkpt><trkpt lat="43.8712041" lon="11.1999486"><ele>254.66666666666669</ele><time>2026-03-23T16:48:26.963Z</time></trkpt><trkpt lat="43.8712577" lon="11.1998726"><ele>255.83333333333334</ele><time>2026-03-23T16:48:27.963Z</time></trkpt><trkpt lat="43.8713074" lon="11.1997932"><ele>257.0</ele><time>2026-03-23T16:48:28.97Z</time></trkpt><trkpt lat="43.8713538" lon="11.199727"><ele>257.1666666666667</ele><time>2026-03-23T16:48:29.959Z</time></trkpt><trkpt lat="43.8714324" lon="11.19959"><ele>257.33333333333337</ele><time>2026-03-23T16:48:31.962Z</time></trkpt><trkpt lat="43.8714746" lon="11.1995175"><ele>257.5</ele><time>2026-03-23T16:48:32.962Z</time></trkpt><trkpt lat="43.8715125" lon="11.1994392"><ele>257.6666666666667</ele><time>2026-03-23T16:48:33.957Z</time></trkpt><trkpt lat="43.8715612" lon="11.199344"><ele>257.8333333333333</ele><time>2026-03-23T16:48:34.958Z</time></trkpt><trkpt lat="43.8716102" lon="11.1992498"><ele>258.0</ele><time>2026-03-23T16:48:35.957Z</time></trkpt><trkpt lat="43.8716589" lon="11.1991632"><ele>258.0</ele><time>2026-03-23T16:48:36.96Z</time></trkpt><trkpt lat="43.8717064" lon="11.1990761"><ele>258.0</ele><time>2026-03-23T16:48:37.964Z</time></trkpt><trkpt lat="43.8717344" lon="11.1989876"><ele>258.0</ele><time>2026-03-23T16:48:38.964Z</time></trkpt><trkpt lat="43.8717662" lon="11.1988946"><ele>258.0</ele><time>2026-03-23T16:48:39.961Z</time></trkpt><trkpt lat="43.8717921" lon="11.1987958"><ele>258.0</ele><time>2026-03-23T16:48:40.962Z</time></trkpt><trkpt lat="43.8718175" lon="11.198696"><ele>258.0</ele><time>2026-03-23T16:48:41.964Z</time></trkpt><trkpt lat="43.8718462" lon="11.1985361"><ele>258.8333333333333</ele><time>2026-03-23T16:48:43.959Z</time></trkpt><trkpt lat="43.8718321" lon="11.1984194"><ele>259.6666666666667</ele><time>2026-03-23T16:48:45.951Z</time></trkpt><trkpt lat="43.8717848" lon="11.1983151"><ele>260.5</ele><time>2026-03-23T16:48:47.97Z</time></trkpt><trkpt lat="43.8717558" lon="11.1982278"><ele>261.33333333333337</ele><time>2026-03-23T16:48:49.963Z</time></trkpt><trkpt lat="43.8717412" lon="11.1981274"><ele>262.1666666666667</ele><time>2026-03-23T16:48:53.959Z</time></trkpt><trkpt lat="43.8716777" lon="11.1980716"><ele>263.0</ele><time>2026-03-23T16:48:56.964Z</time></trkpt><trkpt lat="43.8716219" lon="11.1979905"><ele>265.83333333333337</ele><time>2026-03-23T16:48:59.034Z</time></trkpt><trkpt lat="43.8715592" lon="11.1978551"><ele>268.6666666666667</ele><time>2026-03-23T16:49:00.954Z</time></trkpt><trkpt lat="43.871528" lon="11.1977707"><ele>271.5</ele><time>2026-03-23T16:49:01.956Z</time></trkpt><trkpt lat="43.8715062" lon="11.1976735"><ele>274.3333333333333</ele><time>2026-03-23T16:49:02.974Z</time></trkpt><trkpt lat="43.8714925" lon="11.1975695"><ele>277.16666666666663</ele><time>2026-03-23T16:49:03.954Z</time></trkpt><trkpt lat="43.8714692" lon="11.197477"><ele>280.0</ele><time>2026-03-23T16:49:04.952Z</time></trkpt><trkpt lat="43.8714389" lon="11.1973808"><ele>282.57142857142856</ele><time>2026-03-23T16:49:05.942Z</time></trkpt><trkpt lat="43.8714032" lon="11.197285"><ele>285.1428571428571</ele><time>2026-03-23T16:49:07.047Z</time></trkpt><trkpt lat="43.8713662" lon="11.1971897"><ele>287.7142857142857</ele><time>2026-03-23T16:49:07.957Z</time></trkpt><trkpt lat="43.8713336" lon="11.1971003"><ele>290.2857142857143</ele><time>2026-03-23T16:49:08.955Z</time></trkpt><trkpt lat="43.8713038" lon="11.1970129"><ele>292.85714285714283</ele><time>2026-03-23T16:49:10Z</time></trkpt><trkpt lat="43.8712726" lon="11.1969281"><ele>295.42857142857144</ele><time>2026-03-23T16:49:10.955Z</time></trkpt><trkpt lat="43.8712411" lon="11.196839"><ele>298.0</ele><time>2026-03-23T16:49:11.953Z</time></trkpt><trkpt lat="43.8712135" lon="11.1967512"><ele>298.0</ele><time>2026-03-23T16:49:12.955Z</time></trkpt><trkpt lat="43.8711869" lon="11.1966625"><ele>298.0</ele><time>2026-03-23T16:49:13.954Z</time></trkpt><trkpt lat="43.871163" lon="11.1965796"><ele>298.0</ele><time>2026-03-23T16:49:14.957Z</time></trkpt><trkpt lat="43.8711315" lon="11.1964955"><ele>298.0</ele><time>2026-03-23T16:49:15.952Z</time></trkpt><trkpt lat="43.8710926" lon="11.1963969"><ele>298.0</ele><time>2026-03-23T16:49:16.957Z</time></trkpt><trkpt lat="43.8710439" lon="11.196294"><ele>298.0</ele><time>2026-03-23T16:49:17.95Z</time></trkpt><trkpt lat="43.8709995" lon="11.1961811"><ele>296.4</ele><time>2026-03-23T16:49:18.955Z</time></trkpt><trkpt lat="43.8709576" lon="11.1960601"><ele>294.8</ele><time>2026-03-23T16:49:19.955Z</time></trkpt><trkpt lat="43.8709218" lon="11.1959471"><ele>293.2</ele><time>2026-03-23T16:49:20.95Z</time></trkpt><trkpt lat="43.8708837" lon="11.1958331"><ele>291.6</ele><time>2026-03-23T16:49:21.949Z</time></trkpt><trkpt lat="43.8708483" lon="11.1957122"><ele>290.0</ele><time>2026-03-23T16:49:22.952Z</time></trkpt><trkpt lat="43.8708159" lon="11.195594"><ele>290.0</ele><time>2026-03-23T16:49:23.959Z</time></trkpt><trkpt lat="43.8707847" lon="11.1954837"><ele>290.0</ele><time>2026-03-23T16:49:25.039Z</time></trkpt><trkpt lat="43.8707601" lon="11.1953836"><ele>290.0</ele><time>2026-03-23T16:49:25.948Z</time></trkpt><trkpt lat="43.8707359" lon="11.195289"><ele>290.0</ele><time>2026-03-23T16:49:26.946Z</time></trkpt><trkpt lat="43.8707072" lon="11.1951894"><ele>290.0</ele><time>2026-03-23T16:49:27.96Z</time></trkpt><trkpt lat="43.8706813" lon="11.1950915"><ele>290.0</ele><time>2026-03-23T16:49:28.949Z</time></trkpt><trkpt lat="43.8706614" lon="11.1949835"><ele>290.0</ele><time>2026-03-23T16:49:29.943Z</time></trkpt><trkpt lat="43.8706476" lon="11.1948696"><ele>290.0</ele><time>2026-03-23T16:49:30.947Z</time></trkpt><trkpt lat="43.8706365" lon="11.1947604"><ele>290.0</ele><time>2026-03-23T16:49:31.944Z</time></trkpt><trkpt lat="43.8706218" lon="11.1946579"><ele>290.0</ele><time>2026-03-23T16:49:32.948Z</time></trkpt><trkpt lat="43.8706063" lon="11.1945671"><ele>290.0</ele><time>2026-03-23T16:49:33.947Z</time></trkpt><trkpt lat="43.8706025" lon="11.1944112"><ele>290.0</ele><time>2026-03-23T16:49:35.961Z</time></trkpt><trkpt lat="43.8706349" lon="11.1942934"><ele>289.57142857142856</ele><time>2026-03-23T16:49:37.951Z</time></trkpt><trkpt lat="43.8706986" lon="11.1942752"><ele>289.14285714285717</ele><time>2026-03-23T16:49:39.958Z</time></trkpt><trkpt lat="43.8707735" lon="11.1942961"><ele>288.7142857142857</ele><time>2026-03-23T16:49:42.033Z</time></trkpt><trkpt lat="43.8708514" lon="11.1942984"><ele>288.2857142857143</ele><time>2026-03-23T16:49:45.96Z</time></trkpt><trkpt lat="43.8709243" lon="11.19429"><ele>287.8571428571429</ele><time>2026-03-23T16:49:48.994Z</time></trkpt><trkpt lat="43.8709963" lon="11.1942637"><ele>287.42857142857144</ele><time>2026-03-23T16:49:51.953Z</time></trkpt><trkpt lat="43.8710353" lon="11.1941893"><ele>287.0</ele><time>2026-03-23T16:49:54.959Z</time></trkpt><trkpt lat="43.871062" lon="11.1940549"><ele>292.0</ele><time>2026-03-23T16:49:57.959Z</time></trkpt><trkpt lat="43.8711138" lon="11.1939057"><ele>297.0</ele><time>2026-03-23T16:49:59.96Z</time></trkpt><trkpt lat="43.8711064" lon="11.1937684"><ele>302.0</ele><time>2026-03-23T16:50:01.964Z</time></trkpt><trkpt lat="43.8710995" lon="11.1936283"><ele>307.0</ele><time>2026-03-23T16:50:03.952Z</time></trkpt><trkpt lat="43.8710824" lon="11.1935082"><ele>312.0</ele><time>2026-03-23T16:50:05.955Z</time></trkpt><trkpt lat="43.8710452" lon="11.1933931"><ele>312.0</ele><time>2026-03-23T16:50:07.96Z</time></trkpt><trkpt lat="43.8710195" lon="11.1932867"><ele>312.0</ele><time>2026-03-23T16:50:10.96Z</time></trkpt><trkpt lat="43.8710051" lon="11.1931962"><ele>312.0</ele><time>2026-03-23T16:50:13.99Z</time></trkpt><trkpt lat="43.8710011" lon="11.1930992"><ele>312.0</ele><time>2026-03-23T16:50:15.962Z</time></trkpt><trkpt lat="43.8710202" lon="11.1929916"><ele>312.0</ele><time>2026-03-23T16:50:17.964Z</time></trkpt><trkpt lat="43.8710528" lon="11.1928597"><ele>312.0</ele><time>2026-03-23T16:50:20.968Z</time></trkpt><trkpt lat="43.8710884" lon="11.1927624"><ele>311.1666666666667</ele><time>2026-03-23T16:50:22.967Z</time></trkpt><trkpt lat="43.8711313" lon="11.1926879"><ele>310.3333333333333</ele><time>2026-03-23T16:50:24.964Z</time></trkpt><trkpt lat="43.8711944" lon="11.1926178"><ele>309.5</ele><time>2026-03-23T16:50:26.96Z</time></trkpt><trkpt lat="43.8712565" lon="11.1925435"><ele>308.66666666666663</ele><time>2026-03-23T16:50:28.963Z</time></trkpt><trkpt lat="43.8713258" lon="11.1924736"><ele>307.8333333333333</ele><time>2026-03-23T16:50:30.963Z</time></trkpt><trkpt lat="43.8713997" lon="11.1923993"><ele>307.0</ele><time>2026-03-23T16:50:33.045Z</time></trkpt><trkpt lat="43.8714658" lon="11.1923172"><ele>308.3333333333333</ele><time>2026-03-23T16:50:35.049Z</time></trkpt><trkpt lat="43.8715275" lon="11.1922533"><ele>309.66666666666663</ele><time>2026-03-23T16:50:36.958Z</time></trkpt><trkpt lat="43.8715926" lon="11.1922038"><ele>311.0</ele><time>2026-03-23T16:50:38.951Z</time></trkpt><trkpt lat="43.8716766" lon="11.192143"><ele>312.3333333333333</ele><time>2026-03-23T16:50:40.951Z</time></trkpt><trkpt lat="43.8717611" lon="11.1920758"><ele>313.6666666666667</ele><time>2026-03-23T16:50:42.962Z</time></trkpt><trkpt lat="43.8718351" lon="11.1919807"><ele>315.0</ele><time>2026-03-23T16:50:44.961Z</time></trkpt><trkpt lat="43.8719078" lon="11.1918789"><ele>315.0</ele><time>2026-03-23T16:50:46.955Z</time></trkpt><trkpt lat="43.8719948" lon="11.1917961"><ele>315.0</ele><time>2026-03-23T16:50:48.965Z</time></trkpt><trkpt lat="43.8720592" lon="11.1916967"><ele>315.0</ele><time>2026-03-23T16:50:50.958Z</time></trkpt><trkpt lat="43.8721118" lon="11.1915627"><ele>315.0</ele><time>2026-03-23T16:50:53.035Z</time></trkpt><trkpt lat="43.8721445" lon="11.1914564"><ele>315.0</ele><time>2026-03-23T16:50:54.953Z</time></trkpt><trkpt lat="43.8721731" lon="11.1913481"><ele>312.8333333333333</ele><time>2026-03-23T16:50:56.946Z</time></trkpt><trkpt lat="43.8721884" lon="11.1912223"><ele>310.6666666666667</ele><time>2026-03-23T16:50:58.96Z</time></trkpt><trkpt lat="43.8722151" lon="11.1911378"><ele>308.5</ele><time>2026-03-23T16:51:00.958Z</time></trkpt><trkpt lat="43.8722508" lon="11.191064"><ele>306.33333333333337</ele><time>2026-03-23T16:51:02.963Z</time></trkpt><trkpt lat="43.8722988" lon="11.1909678"><ele>304.1666666666667</ele><time>2026-03-23T16:51:05.944Z</time></trkpt><trkpt lat="43.8723441" lon="11.19086"><ele>302.0</ele><time>2026-03-23T16:51:10.952Z</time></trkpt><trkpt lat="43.8723862" lon="11.1907923"><ele>302.0</ele><time>2026-03-23T16:51:13.042Z</time></trkpt><trkpt lat="43.8724327" lon="11.1907218"><ele>302.0</ele><time>2026-03-23T16:51:15.041Z</time></trkpt><trkpt lat="43.8724843" lon="11.1906537"><ele>302.0</ele><time>2026-03-23T16:51:17.952Z</time></trkpt><trkpt lat="43.8725717" lon="11.1905371"><ele>302.0</ele><time>2026-03-23T16:51:28.951Z</time></trkpt><trkpt lat="43.8726248" lon="11.1904536"><ele>302.0</ele><time>2026-03-23T16:51:31.954Z</time></trkpt><trkpt lat="43.872682" lon="11.1903587"><ele>302.0</ele><time>2026-03-23T16:51:34.945Z</time></trkpt><trkpt lat="43.8727423" lon="11.1902615"><ele>299.83333333333337</ele><time>2026-03-23T16:51:36.953Z</time></trkpt><trkpt lat="43.8727964" lon="11.1901699"><ele>297.6666666666667</ele><time>2026-03-23T16:51:38.968Z</time></trkpt><trkpt lat="43.8728551" lon="11.1900402"><ele>295.5</ele><time>2026-03-23T16:51:40.955Z</time></trkpt><trkpt lat="43.8728954" lon="11.1899588"><ele>293.3333333333333</ele><time>2026-03-23T16:51:41.946Z</time></trkpt><trkpt lat="43.8729405" lon="11.1898769"><ele>291.16666666666663</ele><time>2026-03-23T16:51:42.954Z</time></trkpt><trkpt lat="43.8729828" lon="11.1898067"><ele>289.0</ele><time>2026-03-23T16:51:43.96Z</time></trkpt><trkpt lat="43.8730403" lon="11.1896832"><ele>289.0</ele><time>2026-03-23T16:51:45.948Z</time></trkpt><trkpt lat="43.8730912" lon="11.189589"><ele>289.0</ele><time>2026-03-23T16:51:47.952Z</time></trkpt><trkpt lat="43.8731378" lon="11.1895244"><ele>289.0</ele><time>2026-03-23T16:51:49.953Z</time></trkpt><trkpt lat="43.8731959" lon="11.1894521"><ele>289.0</ele><time>2026-03-23T16:51:51.95Z</time></trkpt><trkpt lat="43.8732377" lon="11.189363"><ele>289.0</ele><time>2026-03-23T16:51:53.954Z</time></trkpt><trkpt lat="43.8732803" lon="11.1892779"><ele>289.0</ele><time>2026-03-23T16:51:55.958Z</time></trkpt><trkpt lat="43.8733207" lon="11.1892052"><ele>289.0</ele><time>2026-03-23T16:51:58.026Z</time></trkpt><trkpt lat="43.873368" lon="11.1891234"><ele>289.0</ele><time>2026-03-23T16:51:59.971Z</time></trkpt><trkpt lat="43.8734177" lon="11.1890512"><ele>289.0</ele><time>2026-03-23T16:52:01.97Z</time></trkpt><trkpt lat="43.873486" lon="11.1889733"><ele>289.0</ele><time>2026-03-23T16:52:03.967Z</time></trkpt><trkpt lat="43.8735586" lon="11.1889127"><ele>289.0</ele><time>2026-03-23T16:52:05.976Z</time></trkpt><trkpt lat="43.873631" lon="11.1888559"><ele>289.0</ele><time>2026-03-23T16:52:07.968Z</time></trkpt><trkpt lat="43.873691" lon="11.1888096"><ele>289.0</ele><time>2026-03-23T16:52:10.035Z</time></trkpt><trkpt lat="43.8737526" lon="11.1887518"><ele>286.75</ele><time>2026-03-23T16:52:12.974Z</time></trkpt><trkpt lat="43.8738295" lon="11.1886482"><ele>284.5</ele><time>2026-03-23T16:52:16.961Z</time></trkpt><trkpt lat="43.8739582" lon="11.1885083"><ele>282.25</ele><time>2026-03-23T16:52:22.964Z</time></trkpt><trkpt lat="43.8740677" lon="11.1883686"><ele>280.0</ele><time>2026-03-23T16:52:28.97Z</time></trkpt><trkpt lat="43.8741425" lon="11.1881732"><ele>278.2</ele><time>2026-03-23T16:52:35.015Z</time></trkpt><trkpt lat="43.8741718" lon="11.1880942"><ele>276.4</ele><time>2026-03-23T16:52:36.947Z</time></trkpt><trkpt lat="43.8741792" lon="11.1879695"><ele>274.6</ele><time>2026-03-23T16:52:40.947Z</time></trkpt><trkpt lat="43.8742178" lon="11.1877267"><ele>272.8</ele><time>2026-03-23T16:52:46.954Z</time></trkpt><trkpt lat="43.8742032" lon="11.1876329"><ele>271.0</ele><time>2026-03-23T16:52:49.033Z</time></trkpt><trkpt lat="43.8741577" lon="11.1875523"><ele>271.0</ele><time>2026-03-23T16:52:51.951Z</time></trkpt><trkpt lat="43.8740812" lon="11.1874874"><ele>271.0</ele><time>2026-03-23T16:52:54.954Z</time></trkpt><trkpt lat="43.8740133" lon="11.1874501"><ele>271.0</ele><time>2026-03-23T16:52:56.945Z</time></trkpt><trkpt lat="43.8739427" lon="11.1874265"><ele>271.0</ele><time>2026-03-23T16:52:58.955Z</time></trkpt><trkpt lat="43.8738638" lon="11.1874108"><ele>271.0</ele><time>2026-03-23T16:53:00.95Z</time></trkpt><trkpt lat="43.8737822" lon="11.1874045"><ele>271.0</ele><time>2026-03-23T16:53:03.953Z</time></trkpt><trkpt lat="43.8737086" lon="11.187406"><ele>271.0</ele><time>2026-03-23T16:53:06.959Z</time></trkpt><trkpt lat="43.873623" lon="11.1874224"><ele>271.0</ele><time>2026-03-23T16:53:09.962Z</time></trkpt><trkpt lat="43.873539" lon="11.1874401"><ele>271.0</ele><time>2026-03-23T16:53:12.981Z</time></trkpt><trkpt lat="43.8734533" lon="11.1874333"><ele>271.0</ele><time>2026-03-23T16:53:16.963Z</time></trkpt><trkpt lat="43.8733806" lon="11.1874163"><ele>271.0</ele><time>2026-03-23T16:53:19.071Z</time></trkpt><trkpt lat="43.8733055" lon="11.1874015"><ele>271.0</ele><time>2026-03-23T16:53:20.962Z</time></trkpt><trkpt lat="43.8732216" lon="11.1874179"><ele>270.7142857142857</ele><time>2026-03-23T16:53:22.958Z</time></trkpt><trkpt lat="43.8731576" lon="11.1874376"><ele>270.42857142857144</ele><time>2026-03-23T16:53:25.079Z</time></trkpt><trkpt lat="43.8730903" lon="11.1874687"><ele>270.14285714285717</ele><time>2026-03-23T16:53:26.972Z</time></trkpt><trkpt lat="43.8730252" lon="11.1875008"><ele>269.8571428571429</ele><time>2026-03-23T16:53:29.001Z</time></trkpt><trkpt lat="43.8729591" lon="11.187538"><ele>269.5714285714286</ele><time>2026-03-23T16:53:30.972Z</time></trkpt><trkpt lat="43.8728913" lon="11.1875748"><ele>269.2857142857143</ele><time>2026-03-23T16:53:32.959Z</time></trkpt><trkpt lat="43.8728269" lon="11.1875912"><ele>269.0</ele><time>2026-03-23T16:53:34.967Z</time></trkpt><trkpt lat="43.8727626" lon="11.1876122"><ele>269.0</ele><time>2026-03-23T16:53:36.961Z</time></trkpt><trkpt lat="43.8726848" lon="11.1876038"><ele>269.0</ele><time>2026-03-23T16:53:38.953Z</time></trkpt><trkpt lat="43.8726018" lon="11.1876001"><ele>269.0</ele><time>2026-03-23T16:53:40.963Z</time></trkpt><trkpt lat="43.8725333" lon="11.1876026"><ele>269.0</ele><time>2026-03-23T16:53:42.953Z</time></trkpt><trkpt lat="43.8724429" lon="11.1876252"><ele>269.0</ele><time>2026-03-23T16:53:45.954Z</time></trkpt><trkpt lat="43.8723531" lon="11.1876479"><ele>269.0</ele><time>2026-03-23T16:53:48.958Z</time></trkpt><trkpt lat="43.8722769" lon="11.187673"><ele>266.8</ele><time>2026-03-23T16:53:50.956Z</time></trkpt><trkpt lat="43.8721925" lon="11.1877018"><ele>264.59999999999997</ele><time>2026-03-23T16:53:52.956Z</time></trkpt><trkpt lat="43.8721041" lon="11.1877288"><ele>262.4</ele><time>2026-03-23T16:53:54.957Z</time></trkpt><trkpt lat="43.8720125" lon="11.1877596"><ele>260.2</ele><time>2026-03-23T16:53:56.96Z</time></trkpt><trkpt lat="43.8719244" lon="11.1877811"><ele>258.0</ele><time>2026-03-23T16:53:58.965Z</time></trkpt><trkpt lat="43.8718369" lon="11.1878018"><ele>255.5</ele><time>2026-03-23T16:54:00.953Z</time></trkpt><trkpt lat="43.8717476" lon="11.1877876"><ele>253.0</ele><time>2026-03-23T16:54:02.953Z</time></trkpt><trkpt lat="43.8716456" lon="11.1877467"><ele>250.5</ele><time>2026-03-23T16:54:04.958Z</time></trkpt><trkpt lat="43.8715574" lon="11.1876976"><ele>248.0</ele><time>2026-03-23T16:54:06.959Z</time></trkpt><trkpt lat="43.8714964" lon="11.1876408"><ele>245.5</ele><time>2026-03-23T16:54:08.96Z</time></trkpt><trkpt lat="43.8714551" lon="11.1875604"><ele>243.0</ele><time>2026-03-23T16:54:12.957Z</time></trkpt><trkpt lat="43.8714488" lon="11.187472"><ele>243.0</ele><time>2026-03-23T16:54:16.957Z</time></trkpt><trkpt lat="43.8713725" lon="11.1874043"><ele>243.0</ele><time>2026-03-23T16:54:19.955Z</time></trkpt><trkpt lat="43.8713021" lon="11.1873563"><ele>243.0</ele><time>2026-03-23T16:54:21.954Z</time></trkpt><trkpt lat="43.8712194" lon="11.1873101"><ele>243.0</ele><time>2026-03-23T16:54:23.97Z</time></trkpt><trkpt lat="43.8711344" lon="11.1872749"><ele>243.0</ele><time>2026-03-23T16:54:25.973Z</time></trkpt><trkpt lat="43.8710456" lon="11.1872315"><ele>243.0</ele><time>2026-03-23T16:54:27.963Z</time></trkpt><trkpt lat="43.8709775" lon="11.1872053"><ele>235.8</ele><time>2026-03-23T16:54:29.976Z</time></trkpt><trkpt lat="43.8708912" lon="11.1872045"><ele>228.60000000000002</ele><time>2026-03-23T16:54:32.98Z</time></trkpt><trkpt lat="43.8708217" lon="11.1872231"><ele>221.39999999999998</ele><time>2026-03-23T16:54:34.974Z</time></trkpt><trkpt lat="43.8707418" lon="11.18727"><ele>214.2</ele><time>2026-03-23T16:54:37.971Z</time></trkpt><trkpt lat="43.8706476" lon="11.1872541"><ele>207.0</ele><time>2026-03-23T16:54:40.974Z</time></trkpt><trkpt lat="43.870538" lon="11.1871897"><ele>207.0</ele><time>2026-03-23T16:54:42.958Z</time></trkpt><trkpt lat="43.8704349" lon="11.1870996"><ele>207.0</ele><time>2026-03-23T16:54:44.969Z</time></trkpt><trkpt lat="43.8703485" lon="11.1870456"><ele>207.0</ele><time>2026-03-23T16:54:45.967Z</time></trkpt><trkpt lat="43.8702693" lon="11.186971"><ele>207.0</ele><time>2026-03-23T16:54:46.966Z</time></trkpt><trkpt lat="43.8702214" lon="11.1869139"><ele>207.0</ele><time>2026-03-23T16:54:47.96Z</time></trkpt><trkpt lat="43.8701672" lon="11.1868497"><ele>207.0</ele><time>2026-03-23T16:54:48.974Z</time></trkpt><trkpt lat="43.8700855" lon="11.1867742"><ele>204.66666666666666</ele><time>2026-03-23T16:54:49.969Z</time></trkpt><trkpt lat="43.8700256" lon="11.1867296"><ele>202.33333333333331</ele><time>2026-03-23T16:54:50.972Z</time></trkpt><trkpt lat="43.8699503" lon="11.1867044"><ele>200.0</ele><time>2026-03-23T16:54:51.967Z</time></trkpt><trkpt lat="43.8698651" lon="11.1866887"><ele>197.66666666666666</ele><time>2026-03-23T16:54:52.97Z</time></trkpt><trkpt lat="43.8697753" lon="11.1866597"><ele>195.33333333333331</ele><time>2026-03-23T16:54:53.969Z</time></trkpt><trkpt lat="43.8696794" lon="11.1866269"><ele>193.0</ele><time>2026-03-23T16:54:54.971Z</time></trkpt><trkpt lat="43.8695621" lon="11.186578"><ele>193.0</ele><time>2026-03-23T16:54:55.969Z</time></trkpt><trkpt lat="43.8694455" lon="11.1865482"><ele>193.0</ele><time>2026-03-23T16:54:56.968Z</time></trkpt><trkpt lat="43.8693417" lon="11.1865351"><ele>193.0</ele><time>2026-03-23T16:54:57.967Z</time></trkpt><trkpt lat="43.8692337" lon="11.1865233"><ele>193.0</ele><time>2026-03-23T16:54:58.974Z</time></trkpt><trkpt lat="43.8691479" lon="11.186515"><ele>193.0</ele><time>2026-03-23T16:54:59.971Z</time></trkpt><trkpt lat="43.8690598" lon="11.1864999"><ele>188.49999999999997</ele><time>2026-03-23T16:55:00.966Z</time></trkpt><trkpt lat="43.8689726" lon="11.1864827"><ele>184.0</ele><time>2026-03-23T16:55:01.964Z</time></trkpt><trkpt lat="43.8688928" lon="11.18647"><ele>179.5</ele><time>2026-03-23T16:55:02.957Z</time></trkpt><trkpt lat="43.8688164" lon="11.1864529"><ele>175.0</ele><time>2026-03-23T16:55:03.965Z</time></trkpt><trkpt lat="43.86874" lon="11.1864372"><ele>170.5</ele><time>2026-03-23T16:55:04.966Z</time></trkpt><trkpt lat="43.8686652" lon="11.1864236"><ele>166.0</ele><time>2026-03-23T16:55:05.975Z</time></trkpt><trkpt lat="43.8685957" lon="11.1864086"><ele>166.0</ele><time>2026-03-23T16:55:06.967Z</time></trkpt><trkpt lat="43.868531" lon="11.1863895"><ele>166.0</ele><time>2026-03-23T16:55:07.978Z</time></trkpt><trkpt lat="43.8684731" lon="11.1863544"><ele>166.0</ele><time>2026-03-23T16:55:08.967Z</time></trkpt><trkpt lat="43.8683759" lon="11.1862426"><ele>166.0</ele><time>2026-03-23T16:55:10.969Z</time></trkpt><trkpt lat="43.8682805" lon="11.1861526"><ele>166.0</ele><time>2026-03-23T16:55:12.973Z</time></trkpt><trkpt lat="43.8681619" lon="11.186123"><ele>164.16666666666669</ele><time>2026-03-23T16:55:14.969Z</time></trkpt><trkpt lat="43.8680982" lon="11.1861006"><ele>162.33333333333334</ele><time>2026-03-23T16:55:15.967Z</time></trkpt><trkpt lat="43.8680242" lon="11.1860668"><ele>160.5</ele><time>2026-03-23T16:55:16.973Z</time></trkpt><trkpt lat="43.867944" lon="11.1860373"><ele>158.66666666666666</ele><time>2026-03-23T16:55:17.969Z</time></trkpt><trkpt lat="43.8678735" lon="11.186009"><ele>156.83333333333331</ele><time>2026-03-23T16:55:18.966Z</time></trkpt><trkpt lat="43.8678096" lon="11.1859846"><ele>155.0</ele><time>2026-03-23T16:55:19.971Z</time></trkpt><trkpt lat="43.867693" lon="11.1859327"><ele>155.0</ele><time>2026-03-23T16:55:21.975Z</time></trkpt><trkpt lat="43.8676294" lon="11.1858872"><ele>155.0</ele><time>2026-03-23T16:55:23.968Z</time></trkpt><trkpt lat="43.8676239" lon="11.1857929"><ele>155.0</ele><time>2026-03-23T16:55:28.969Z</time></trkpt><trkpt lat="43.8676921" lon="11.1857668"><ele>155.0</ele><time>2026-03-23T16:55:31.972Z</time></trkpt><trkpt lat="43.8677587" lon="11.1857471"><ele>155.0</ele><time>2026-03-23T16:55:34.03Z</time></trkpt><trkpt lat="43.8678304" lon="11.185735"><ele>155.0</ele><time>2026-03-23T16:55:36.974Z</time></trkpt><trkpt lat="43.8679112" lon="11.1857461"><ele>155.0</ele><time>2026-03-23T16:55:41.029Z</time></trkpt><trkpt lat="43.8679954" lon="11.1857681"><ele>155.0</ele><time>2026-03-23T16:55:43.95Z</time></trkpt><trkpt lat="43.8680589" lon="11.185753"><ele>155.0</ele><time>2026-03-23T16:55:46.031Z</time></trkpt><trkpt lat="43.8681283" lon="11.1857235"><ele>155.0</ele><time>2026-03-23T16:55:47.953Z</time></trkpt><trkpt lat="43.8681885" lon="11.1856888"><ele>155.0</ele><time>2026-03-23T16:55:49.946Z</time></trkpt><trkpt lat="43.8682566" lon="11.1856764"><ele>155.0</ele><time>2026-03-23T16:55:51.961Z</time></trkpt><trkpt lat="43.8683307" lon="11.1856574"><ele>155.0</ele><time>2026-03-23T16:55:54.032Z</time></trkpt><trkpt lat="43.8684013" lon="11.1856211"><ele>155.0</ele><time>2026-03-23T16:55:56.041Z</time></trkpt><trkpt lat="43.8684678" lon="11.1855862"><ele>155.0</ele><time>2026-03-23T16:55:57.958Z</time></trkpt><trkpt lat="43.8685543" lon="11.1855171"><ele>155.0</ele><time>2026-03-23T16:56:03.97Z</time></trkpt><trkpt lat="43.8686128" lon="11.1854655"><ele>155.0</ele><time>2026-03-23T16:56:06.954Z</time></trkpt><trkpt lat="43.8686776" lon="11.1854136"><ele>155.0</ele><time>2026-03-23T16:56:09.956Z</time></trkpt><trkpt lat="43.8687697" lon="11.1853526"><ele>155.0</ele><time>2026-03-23T16:56:12.952Z</time></trkpt><trkpt lat="43.8688075" lon="11.1852369"><ele>155.0</ele><time>2026-03-23T16:56:15.952Z</time></trkpt><trkpt lat="43.8688263" lon="11.1851357"><ele>155.0</ele><time>2026-03-23T16:56:17.951Z</time></trkpt><trkpt lat="43.8688537" lon="11.1850415"><ele>155.0</ele><time>2026-03-23T16:56:20.037Z</time></trkpt><trkpt lat="43.8689527" lon="11.1849451"><ele>155.0</ele><time>2026-03-23T16:56:21.949Z</time></trkpt><trkpt lat="43.8690539" lon="11.1848535"><ele>155.0</ele><time>2026-03-23T16:56:23.957Z</time></trkpt><trkpt lat="43.8691566" lon="11.1847748"><ele>155.0</ele><time>2026-03-23T16:56:25.953Z</time></trkpt><trkpt lat="43.869245" lon="11.1847226"><ele>158.0</ele><time>2026-03-23T16:56:27.951Z</time></trkpt><trkpt lat="43.8693273" lon="11.1846746"><ele>161.0</ele><time>2026-03-23T16:56:29.953Z</time></trkpt><trkpt lat="43.8694001" lon="11.1846227"><ele>164.0</ele><time>2026-03-23T16:56:31.95Z</time></trkpt><trkpt lat="43.8694672" lon="11.184574"><ele>167.0</ele><time>2026-03-23T16:56:33.948Z</time></trkpt><trkpt lat="43.8695288" lon="11.1845207"><ele>170.0</ele><time>2026-03-23T16:56:35.948Z</time></trkpt><trkpt lat="43.8695953" lon="11.1844896"><ele>173.0</ele><time>2026-03-23T16:56:37.954Z</time></trkpt><trkpt lat="43.8696608" lon="11.1844539"><ele>173.0</ele><time>2026-03-23T16:56:39.952Z</time></trkpt><trkpt lat="43.8697383" lon="11.1844028"><ele>173.0</ele><time>2026-03-23T16:56:42.95Z</time></trkpt><trkpt lat="43.8698246" lon="11.1843627"><ele>173.0</ele><time>2026-03-23T16:56:45.952Z</time></trkpt><trkpt lat="43.8698851" lon="11.1843278"><ele>173.0</ele><time>2026-03-23T16:56:47.954Z</time></trkpt><trkpt lat="43.86996" lon="11.1842948"><ele>173.0</ele><time>2026-03-23T16:56:50.954Z</time></trkpt><trkpt lat="43.8700349" lon="11.1842644"><ele>173.0</ele><time>2026-03-23T16:56:53.953Z</time></trkpt><trkpt lat="43.8701212" lon="11.1842638"><ele>177.16666666666666</ele><time>2026-03-23T16:56:56.957Z</time></trkpt><trkpt lat="43.8701888" lon="11.184284"><ele>181.33333333333331</ele><time>2026-03-23T16:56:59.948Z</time></trkpt><trkpt lat="43.8702694" lon="11.1842907"><ele>185.5</ele><time>2026-03-23T16:57:03.947Z</time></trkpt><trkpt lat="43.8703508" lon="11.1842808"><ele>189.66666666666666</ele><time>2026-03-23T16:57:07.949Z</time></trkpt><trkpt lat="43.8704276" lon="11.1842323"><ele>193.83333333333334</ele><time>2026-03-23T16:57:10.956Z</time></trkpt><trkpt lat="43.8704977" lon="11.1842031"><ele>198.0</ele><time>2026-03-23T16:57:12.949Z</time></trkpt><trkpt lat="43.8705724" lon="11.1841569"><ele>198.0</ele><time>2026-03-23T16:57:14.948Z</time></trkpt><trkpt lat="43.8706188" lon="11.184081"><ele>198.0</ele><time>2026-03-23T16:57:16.957Z</time></trkpt><trkpt lat="43.8706453" lon="11.1839993"><ele>198.0</ele><time>2026-03-23T16:57:18.95Z</time></trkpt><trkpt lat="43.8706737" lon="11.1839157"><ele>198.0</ele><time>2026-03-23T16:57:20.944Z</time></trkpt><trkpt lat="43.8707173" lon="11.1838081"><ele>198.0</ele><time>2026-03-23T16:57:23.956Z</time></trkpt><trkpt lat="43.8707408" lon="11.18372"><ele>198.0</ele><time>2026-03-23T16:57:26.96Z</time></trkpt><trkpt lat="43.870763" lon="11.1836124"><ele>198.0</ele><time>2026-03-23T16:57:29.955Z</time></trkpt><trkpt lat="43.8707688" lon="11.1834946"><ele>197.0</ele><time>2026-03-23T16:57:32.954Z</time></trkpt><trkpt lat="43.8707764" lon="11.1833746"><ele>196.0</ele><time>2026-03-23T16:57:35.952Z</time></trkpt><trkpt lat="43.870768" lon="11.1832625"><ele>195.0</ele><time>2026-03-23T16:57:38.954Z</time></trkpt><trkpt lat="43.8707651" lon="11.1831423"><ele>194.0</ele><time>2026-03-23T16:57:41.949Z</time></trkpt><trkpt lat="43.8707583" lon="11.1830492"><ele>193.0</ele><time>2026-03-23T16:57:46.034Z</time></trkpt><trkpt lat="43.8707229" lon="11.183137"><ele>192.0</ele><time>2026-03-23T16:57:52.955Z</time></trkpt><trkpt lat="43.8706605" lon="11.1831584"><ele>192.0</ele><time>2026-03-23T16:57:57.954Z</time></trkpt><trkpt lat="43.8706087" lon="11.1830835"><ele>192.0</ele><time>2026-03-23T16:58:00.961Z</time></trkpt><trkpt lat="43.8705533" lon="11.18299"><ele>192.0</ele><time>2026-03-23T16:58:03.961Z</time></trkpt><trkpt lat="43.870481" lon="11.1829107"><ele>192.0</ele><time>2026-03-23T16:58:07.035Z</time></trkpt><trkpt lat="43.8704297" lon="11.182831"><ele>192.0</ele><time>2026-03-23T16:58:08.954Z</time></trkpt><trkpt lat="43.8703803" lon="11.1827562"><ele>192.0</ele><time>2026-03-23T16:58:10.956Z</time></trkpt><trkpt lat="43.8703147" lon="11.1826616"><ele>192.0</ele><time>2026-03-23T16:58:12.966Z</time></trkpt><trkpt lat="43.8702665" lon="11.182555"><ele>192.0</ele><time>2026-03-23T16:58:13.969Z</time></trkpt><trkpt lat="43.8702215" lon="11.1824633"><ele>192.0</ele><time>2026-03-23T16:58:15.023Z</time></trkpt><trkpt lat="43.8701738" lon="11.1823574"><ele>192.0</ele><time>2026-03-23T16:58:15.966Z</time></trkpt><trkpt lat="43.8701288" lon="11.182257"><ele>192.0</ele><time>2026-03-23T16:58:16.966Z</time></trkpt><trkpt lat="43.8700684" lon="11.1821334"><ele>187.39999999999998</ele><time>2026-03-23T16:58:18.957Z</time></trkpt><trkpt lat="43.8700267" lon="11.1820498"><ele>182.79999999999998</ele><time>2026-03-23T16:58:21.028Z</time></trkpt><trkpt lat="43.8699337" lon="11.182038"><ele>178.2</ele><time>2026-03-23T16:58:23.964Z</time></trkpt><trkpt lat="43.8698442" lon="11.1820642"><ele>173.6</ele><time>2026-03-23T16:58:26.033Z</time></trkpt><trkpt lat="43.8697419" lon="11.1821472"><ele>169.0</ele><time>2026-03-23T16:58:27.956Z</time></trkpt><trkpt lat="43.8696357" lon="11.1822423"><ele>169.0</ele><time>2026-03-23T16:58:29.954Z</time></trkpt><trkpt lat="43.86954" lon="11.1823171"><ele>169.0</ele><time>2026-03-23T16:58:31.95Z</time></trkpt><trkpt lat="43.86947" lon="11.1824076"><ele>169.0</ele><time>2026-03-23T16:58:33.954Z</time></trkpt><trkpt lat="43.8694176" lon="11.1825092"><ele>169.0</ele><time>2026-03-23T16:58:35.951Z</time></trkpt><trkpt lat="43.8693852" lon="11.1826016"><ele>169.0</ele><time>2026-03-23T16:58:37.955Z</time></trkpt><trkpt lat="43.8693476" lon="11.1826811"><ele>169.0</ele><time>2026-03-23T16:58:39.955Z</time></trkpt><trkpt lat="43.8692937" lon="11.1827302"><ele>166.33333333333334</ele><time>2026-03-23T16:58:42.951Z</time></trkpt><trkpt lat="43.8691972" lon="11.1827599"><ele>163.66666666666669</ele><time>2026-03-23T16:58:45.956Z</time></trkpt><trkpt lat="43.8691261" lon="11.1827676"><ele>161.0</ele><time>2026-03-23T16:58:47.953Z</time></trkpt><trkpt lat="43.8690551" lon="11.1828052"><ele>158.33333333333334</ele><time>2026-03-23T16:58:49.953Z</time></trkpt><trkpt lat="43.8689856" lon="11.1828231"><ele>155.66666666666666</ele><time>2026-03-23T16:58:51.951Z</time></trkpt><trkpt lat="43.8689144" lon="11.1828003"><ele>153.0</ele><time>2026-03-23T16:58:53.957Z</time></trkpt><trkpt lat="43.8688315" lon="11.1827816"><ele>153.0</ele><time>2026-03-23T16:58:55.029Z</time></trkpt><trkpt lat="43.868771" lon="11.1827506"><ele>153.0</ele><time>2026-03-23T16:58:55.97Z</time></trkpt><trkpt lat="43.8686621" lon="11.1826755"><ele>153.0</ele><time>2026-03-23T16:58:57.97Z</time></trkpt><trkpt lat="43.8685434" lon="11.1826005"><ele>153.0</ele><time>2026-03-23T16:58:59.966Z</time></trkpt><trkpt lat="43.8684784" lon="11.1825637"><ele>153.0</ele><time>2026-03-23T16:59:00.969Z</time></trkpt><trkpt lat="43.868377" lon="11.1824948"><ele>149.4</ele><time>2026-03-23T16:59:02.97Z</time></trkpt><trkpt lat="43.8682818" lon="11.1824341"><ele>145.8</ele><time>2026-03-23T16:59:05.021Z</time></trkpt><trkpt lat="43.8682009" lon="11.1823824"><ele>142.2</ele><time>2026-03-23T16:59:07.035Z</time></trkpt><trkpt lat="43.8681153" lon="11.1823183"><ele>138.6</ele><time>2026-03-23T16:59:08.963Z</time></trkpt><trkpt lat="43.8680341" lon="11.1822578"><ele>135.0</ele><time>2026-03-23T16:59:11.037Z</time></trkpt><trkpt lat="43.8679543" lon="11.1822069"><ele>134.5</ele><time>2026-03-23T16:59:12.957Z</time></trkpt><trkpt lat="43.867883" lon="11.1821549"><ele>134.0</ele><time>2026-03-23T16:59:14.985Z</time></trkpt><trkpt lat="43.8677971" lon="11.1820963"><ele>133.5</ele><time>2026-03-23T16:59:17.956Z</time></trkpt><trkpt lat="43.8677166" lon="11.1820486"><ele>133.0</ele><time>2026-03-23T16:59:21.031Z</time></trkpt><trkpt lat="43.8676422" lon="11.1819866"><ele>132.5</ele><time>2026-03-23T16:59:23.956Z</time></trkpt><trkpt lat="43.8675534" lon="11.1819334"><ele>132.0</ele><time>2026-03-23T16:59:26.959Z</time></trkpt><trkpt lat="43.8674711" lon="11.1818755"><ele>129.66666666666666</ele><time>2026-03-23T16:59:28.952Z</time></trkpt><trkpt lat="43.8673845" lon="11.1817956"><ele>127.33333333333334</ele><time>2026-03-23T16:59:30.949Z</time></trkpt><trkpt lat="43.8672932" lon="11.1817288"><ele>125.0</ele><time>2026-03-23T16:59:32.953Z</time></trkpt><trkpt lat="43.8672005" lon="11.1816825"><ele>122.66666666666667</ele><time>2026-03-23T16:59:35.014Z</time></trkpt><trkpt lat="43.8671328" lon="11.181681"><ele>120.33333333333334</ele><time>2026-03-23T16:59:36.956Z</time></trkpt><trkpt lat="43.8670994" lon="11.1817571"><ele>118.0</ele><time>2026-03-23T16:59:38.96Z</time></trkpt><trkpt lat="43.8670512" lon="11.1818964"><ele>118.00000000000001</ele><time>2026-03-23T16:59:41.012Z</time></trkpt><trkpt lat="43.8670265" lon="11.1819929"><ele>118.0</ele><time>2026-03-23T16:59:41.95Z</time></trkpt><trkpt lat="43.8670036" lon="11.1820924"><ele>118.0</ele><time>2026-03-23T16:59:42.95Z</time></trkpt><trkpt lat="43.8669638" lon="11.182195"><ele>118.0</ele><time>2026-03-23T16:59:43.958Z</time></trkpt><trkpt lat="43.8669309" lon="11.1823137"><ele>118.00000000000001</ele><time>2026-03-23T16:59:44.955Z</time></trkpt><trkpt lat="43.8669003" lon="11.1824209"><ele>118.0</ele><time>2026-03-23T16:59:45.955Z</time></trkpt><trkpt lat="43.8668741" lon="11.1825207"><ele>118.42857142857142</ele><time>2026-03-23T16:59:46.952Z</time></trkpt><trkpt lat="43.8668479" lon="11.1826128"><ele>118.85714285714286</ele><time>2026-03-23T16:59:47.947Z</time></trkpt><trkpt lat="43.866822" lon="11.1827001"><ele>119.28571428571428</ele><time>2026-03-23T16:59:48.952Z</time></trkpt><trkpt lat="43.8667983" lon="11.1827857"><ele>119.71428571428571</ele><time>2026-03-23T16:59:49.953Z</time></trkpt><trkpt lat="43.866769" lon="11.1828667"><ele>120.14285714285714</ele><time>2026-03-23T16:59:51.034Z</time></trkpt><trkpt lat="43.8667159" lon="11.1829716"><ele>120.57142857142857</ele><time>2026-03-23T16:59:52.968Z</time></trkpt><trkpt lat="43.8666485" lon="11.1829668"><ele>121.0</ele><time>2026-03-23T16:59:54.964Z</time></trkpt><trkpt lat="43.8665888" lon="11.1829343"><ele>119.66666666666667</ele><time>2026-03-23T16:59:55.973Z</time></trkpt><trkpt lat="43.8665199" lon="11.1828881"><ele>118.33333333333334</ele><time>2026-03-23T16:59:57.007Z</time></trkpt><trkpt lat="43.866448" lon="11.1828389"><ele>117.0</ele><time>2026-03-23T16:59:57.967Z</time></trkpt><trkpt lat="43.8663779" lon="11.182799"><ele>115.66666666666666</ele><time>2026-03-23T16:59:58.967Z</time></trkpt><trkpt lat="43.866306" lon="11.1827563"><ele>114.33333333333333</ele><time>2026-03-23T16:59:59.97Z</time></trkpt><trkpt lat="43.8662439" lon="11.1827258"><ele>113.0</ele><time>2026-03-23T17:00:00.968Z</time></trkpt><trkpt lat="43.8661344" lon="11.1826868"><ele>113.0</ele><time>2026-03-23T17:00:02.962Z</time></trkpt><trkpt lat="43.8660422" lon="11.1826323"><ele>113.00000000000001</ele><time>2026-03-23T17:00:04.997Z</time></trkpt><trkpt lat="43.8659505" lon="11.1825984"><ele>113.00000000000001</ele><time>2026-03-23T17:00:06.97Z</time></trkpt><trkpt lat="43.8658574" lon="11.1825614"><ele>113.0</ele><time>2026-03-23T17:00:08.97Z</time></trkpt><trkpt lat="43.865765" lon="11.182512"><ele>113.0</ele><time>2026-03-23T17:00:10.968Z</time></trkpt><trkpt lat="43.8656984" lon="11.1824802"><ele>111.99999999999999</ele><time>2026-03-23T17:00:11.971Z</time></trkpt><trkpt lat="43.8656277" lon="11.1824492"><ele>111.0</ele><time>2026-03-23T17:00:12.964Z</time></trkpt><trkpt lat="43.8655566" lon="11.1824163"><ele>110.0</ele><time>2026-03-23T17:00:13.962Z</time></trkpt><trkpt lat="43.8654915" lon="11.1823833"><ele>109.0</ele><time>2026-03-23T17:00:14.973Z</time></trkpt><trkpt lat="43.865417" lon="11.1823461"><ele>107.99999999999999</ele><time>2026-03-23T17:00:16.981Z</time></trkpt><trkpt lat="43.8654484" lon="11.1822114"><ele>107.0</ele><time>2026-03-23T17:00:20.967Z</time></trkpt><trkpt lat="43.8654837" lon="11.1821332"><ele>106.66666666666666</ele><time>2026-03-23T17:00:21.965Z</time></trkpt><trkpt lat="43.8655219" lon="11.1820598"><ele>106.33333333333333</ele><time>2026-03-23T17:00:22.966Z</time></trkpt><trkpt lat="43.8655657" lon="11.1819678"><ele>106.0</ele><time>2026-03-23T17:00:23.967Z</time></trkpt><trkpt lat="43.8656096" lon="11.1818664"><ele>105.66666666666666</ele><time>2026-03-23T17:00:24.999Z</time></trkpt><trkpt lat="43.8656504" lon="11.1817607"><ele>105.33333333333333</ele><time>2026-03-23T17:00:25.973Z</time></trkpt><trkpt lat="43.8656937" lon="11.1816434"><ele>105.0</ele><time>2026-03-23T17:00:26.97Z</time></trkpt><trkpt lat="43.8657403" lon="11.1815239"><ele>104.0</ele><time>2026-03-23T17:00:27.968Z</time></trkpt><trkpt lat="43.8657865" lon="11.1813927"><ele>103.0</ele><time>2026-03-23T17:00:28.984Z</time></trkpt><trkpt lat="43.8658324" lon="11.1812448"><ele>102.0</ele><time>2026-03-23T17:00:29.964Z</time></trkpt><trkpt lat="43.8658792" lon="11.1810902"><ele>101.0</ele><time>2026-03-23T17:00:30.956Z</time></trkpt><trkpt lat="43.865914" lon="11.1809245"><ele>102.0</ele><time>2026-03-23T17:00:31.961Z</time></trkpt><trkpt lat="43.865947" lon="11.1807516"><ele>103.0</ele><time>2026-03-23T17:00:32.969Z</time></trkpt><trkpt lat="43.8659827" lon="11.1805792"><ele>104.0</ele><time>2026-03-23T17:00:33.965Z</time></trkpt><trkpt lat="43.8660198" lon="11.1804062"><ele>105.0</ele><time>2026-03-23T17:00:34.966Z</time></trkpt><trkpt lat="43.8660565" lon="11.1802308"><ele>105.0</ele><time>2026-03-23T17:00:35.967Z</time></trkpt><trkpt lat="43.8660979" lon="11.1800605"><ele>105.0</ele><time>2026-03-23T17:00:36.965Z</time></trkpt><trkpt lat="43.8661374" lon="11.1799001"><ele>105.0</ele><time>2026-03-23T17:00:37.964Z</time></trkpt><trkpt lat="43.8661769" lon="11.1797512"><ele>105.0</ele><time>2026-03-23T17:00:38.967Z</time></trkpt><trkpt lat="43.8662074" lon="11.1796075"><ele>104.2</ele><time>2026-03-23T17:00:39.964Z</time></trkpt><trkpt lat="43.8662342" lon="11.1794706"><ele>103.4</ele><time>2026-03-23T17:00:40.97Z</time></trkpt><trkpt lat="43.8662641" lon="11.1793399"><ele>102.6</ele><time>2026-03-23T17:00:41.963Z</time></trkpt><trkpt lat="43.8662997" lon="11.1792036"><ele>101.8</ele><time>2026-03-23T17:00:42.965Z</time></trkpt><trkpt lat="43.8663333" lon="11.1790604"><ele>101.0</ele><time>2026-03-23T17:00:43.968Z</time></trkpt><trkpt lat="43.8663682" lon="11.1789226"><ele>100.0</ele><time>2026-03-23T17:00:44.967Z</time></trkpt><trkpt lat="43.8663975" lon="11.1787911"><ele>99.0</ele><time>2026-03-23T17:00:45.967Z</time></trkpt><trkpt lat="43.8664202" lon="11.1786652"><ele>98.0</ele><time>2026-03-23T17:00:46.966Z</time></trkpt><trkpt lat="43.8664385" lon="11.1785407"><ele>97.0</ele><time>2026-03-23T17:00:47.957Z</time></trkpt><trkpt lat="43.8664505" lon="11.1784191"><ele>96.0</ele><time>2026-03-23T17:00:48.973Z</time></trkpt><trkpt lat="43.8664512" lon="11.178303"><ele>95.75</ele><time>2026-03-23T17:00:49.964Z</time></trkpt><trkpt lat="43.8664406" lon="11.1781621"><ele>95.5</ele><time>2026-03-23T17:00:50.973Z</time></trkpt><trkpt lat="43.866428" lon="11.1780065"><ele>95.25</ele><time>2026-03-23T17:00:51.963Z</time></trkpt><trkpt lat="43.8664172" lon="11.177842"><ele>95.0</ele><time>2026-03-23T17:00:52.964Z</time></trkpt><trkpt lat="43.8664019" lon="11.1776819"><ele>95.0</ele><time>2026-03-23T17:00:53.969Z</time></trkpt><trkpt lat="43.8663797" lon="11.1775254"><ele>95.0</ele><time>2026-03-23T17:00:54.968Z</time></trkpt><trkpt lat="43.8663373" lon="11.177378"><ele>95.0</ele><time>2026-03-23T17:00:55.963Z</time></trkpt><trkpt lat="43.8662947" lon="11.177222"><ele>95.0</ele><time>2026-03-23T17:00:56.963Z</time></trkpt><trkpt lat="43.8662551" lon="11.1770762"><ele>95.2</ele><time>2026-03-23T17:00:57.966Z</time></trkpt><trkpt lat="43.8662215" lon="11.1769326"><ele>95.4</ele><time>2026-03-23T17:00:58.966Z</time></trkpt><trkpt lat="43.8661937" lon="11.1768089"><ele>95.6</ele><time>2026-03-23T17:00:59.968Z</time></trkpt><trkpt lat="43.866165" lon="11.1766925"><ele>95.8</ele><time>2026-03-23T17:01:00.97Z</time></trkpt><trkpt lat="43.8661397" lon="11.1765788"><ele>96.0</ele><time>2026-03-23T17:01:01.967Z</time></trkpt><trkpt lat="43.8661318" lon="11.1764746"><ele>95.4</ele><time>2026-03-23T17:01:02.967Z</time></trkpt><trkpt lat="43.8661275" lon="11.1763397"><ele>94.8</ele><time>2026-03-23T17:01:04.973Z</time></trkpt><trkpt lat="43.8661987" lon="11.1762692"><ele>94.2</ele><time>2026-03-23T17:01:08.969Z</time></trkpt><trkpt lat="43.8662738" lon="11.1762594"><ele>93.60000000000001</ele><time>2026-03-23T17:01:10.968Z</time></trkpt><trkpt lat="43.8663647" lon="11.176253"><ele>93.0</ele><time>2026-03-23T17:01:12.967Z</time></trkpt><trkpt lat="43.8664833" lon="11.1762399"><ele>93.0</ele><time>2026-03-23T17:01:14.965Z</time></trkpt><trkpt lat="43.8665494" lon="11.1762373"><ele>93.0</ele><time>2026-03-23T17:01:15.968Z</time></trkpt><trkpt lat="43.8666205" lon="11.1762388"><ele>93.0</ele><time>2026-03-23T17:01:16.958Z</time></trkpt><trkpt lat="43.8666998" lon="11.1762165"><ele>93.0</ele><time>2026-03-23T17:01:17.968Z</time></trkpt><trkpt lat="43.8667881" lon="11.1761941"><ele>93.0</ele><time>2026-03-23T17:01:18.963Z</time></trkpt><trkpt lat="43.8668818" lon="11.1761631"><ele>93.0</ele><time>2026-03-23T17:01:19.958Z</time></trkpt><trkpt lat="43.8669643" lon="11.1761461"><ele>93.80000000000001</ele><time>2026-03-23T17:01:20.975Z</time></trkpt><trkpt lat="43.8670551" lon="11.1761279"><ele>94.6</ele><time>2026-03-23T17:01:21.969Z</time></trkpt><trkpt lat="43.8671532" lon="11.1760996"><ele>95.4</ele><time>2026-03-23T17:01:22.974Z</time></trkpt><trkpt lat="43.8672599" lon="11.1760581"><ele>96.19999999999999</ele><time>2026-03-23T17:01:24.04Z</time></trkpt><trkpt lat="43.8673682" lon="11.1760129"><ele>97.0</ele><time>2026-03-23T17:01:24.975Z</time></trkpt><trkpt lat="43.8674762" lon="11.1759622"><ele>97.0</ele><time>2026-03-23T17:01:25.97Z</time></trkpt><trkpt lat="43.8675906" lon="11.1759014"><ele>97.0</ele><time>2026-03-23T17:01:26.964Z</time></trkpt><trkpt lat="43.8677015" lon="11.1758255"><ele>97.0</ele><time>2026-03-23T17:01:27.968Z</time></trkpt><trkpt lat="43.8678055" lon="11.1757559"><ele>97.0</ele><time>2026-03-23T17:01:28.968Z</time></trkpt><trkpt lat="43.8679057" lon="11.1756762"><ele>100.0</ele><time>2026-03-23T17:01:29.966Z</time></trkpt><trkpt lat="43.8680161" lon="11.1756036"><ele>103.0</ele><time>2026-03-23T17:01:30.967Z</time></trkpt><trkpt lat="43.8681224" lon="11.1755257"><ele>106.0</ele><time>2026-03-23T17:01:31.965Z</time></trkpt><trkpt lat="43.8682321" lon="11.1754472"><ele>109.0</ele><time>2026-03-23T17:01:32.966Z</time></trkpt><trkpt lat="43.8683408" lon="11.1753677"><ele>111.0</ele><time>2026-03-23T17:01:33.961Z</time></trkpt><trkpt lat="43.8684516" lon="11.175293"><ele>113.0</ele><time>2026-03-23T17:01:34.963Z</time></trkpt><trkpt lat="43.868561" lon="11.175223"><ele>115.0</ele><time>2026-03-23T17:01:35.965Z</time></trkpt><trkpt lat="43.8686663" lon="11.1751634"><ele>117.0</ele><time>2026-03-23T17:01:36.962Z</time></trkpt><trkpt lat="43.868771" lon="11.1751097"><ele>117.0</ele><time>2026-03-23T17:01:37.966Z</time></trkpt><trkpt lat="43.8688698" lon="11.1750564"><ele>116.99999999999999</ele><time>2026-03-23T17:01:38.963Z</time></trkpt><trkpt lat="43.8689635" lon="11.1750027"><ele>116.99999999999999</ele><time>2026-03-23T17:01:39.966Z</time></trkpt><trkpt lat="43.8690561" lon="11.1749593"><ele>117.0</ele><time>2026-03-23T17:01:40.966Z</time></trkpt><trkpt lat="43.8691474" lon="11.1749176"><ele>117.0</ele><time>2026-03-23T17:01:41.961Z</time></trkpt><trkpt lat="43.8692389" lon="11.1748722"><ele>116.19999999999999</ele><time>2026-03-23T17:01:42.964Z</time></trkpt><trkpt lat="43.8693204" lon="11.1748328"><ele>115.39999999999999</ele><time>2026-03-23T17:01:43.964Z</time></trkpt><trkpt lat="43.8693852" lon="11.1748053"><ele>114.60000000000001</ele><time>2026-03-23T17:01:44.964Z</time></trkpt><trkpt lat="43.8694919" lon="11.1747683"><ele>113.80000000000001</ele><time>2026-03-23T17:01:46.969Z</time></trkpt><trkpt lat="43.8695766" lon="11.1748256"><ele>113.0</ele><time>2026-03-23T17:01:48.968Z</time></trkpt><trkpt lat="43.8696792" lon="11.174923"><ele>115.4</ele><time>2026-03-23T17:01:50.964Z</time></trkpt><trkpt lat="43.8697296" lon="11.1749764"><ele>117.80000000000001</ele><time>2026-03-23T17:01:51.968Z</time></trkpt><trkpt lat="43.8698254" lon="11.1750722"><ele>120.2</ele><time>2026-03-23T17:01:53.968Z</time></trkpt><trkpt lat="43.8699129" lon="11.1751465"><ele>122.6</ele><time>2026-03-23T17:01:55.963Z</time></trkpt><trkpt lat="43.8699959" lon="11.1751668"><ele>125.0</ele><time>2026-03-23T17:01:57.964Z</time></trkpt><trkpt lat="43.8700759" lon="11.1751876"><ele>125.8</ele><time>2026-03-23T17:01:59.966Z</time></trkpt><trkpt lat="43.8701584" lon="11.1751893"><ele>126.6</ele><time>2026-03-23T17:02:01.972Z</time></trkpt><trkpt lat="43.8702485" lon="11.1752502"><ele>127.4</ele><time>2026-03-23T17:02:03.965Z</time></trkpt><trkpt lat="43.8703505" lon="11.1753215"><ele>128.2</ele><time>2026-03-23T17:02:05.967Z</time></trkpt><trkpt lat="43.8704326" lon="11.1753471"><ele>129.0</ele><time>2026-03-23T17:02:07.959Z</time></trkpt><trkpt lat="43.8705144" lon="11.1753301"><ele>129.0</ele><time>2026-03-23T17:02:09.966Z</time></trkpt><trkpt lat="43.8705933" lon="11.1753416"><ele>129.0</ele><time>2026-03-23T17:02:11.968Z</time></trkpt><trkpt lat="43.8706943" lon="11.1753869"><ele>129.0</ele><time>2026-03-23T17:02:13.962Z</time></trkpt><trkpt lat="43.8707618" lon="11.1754298"><ele>129.0</ele><time>2026-03-23T17:02:14.974Z</time></trkpt><trkpt lat="43.8708231" lon="11.1754757"><ele>129.0</ele><time>2026-03-23T17:02:15.963Z</time></trkpt><trkpt lat="43.8709246" lon="11.175553"><ele>129.0</ele><time>2026-03-23T17:02:17.956Z</time></trkpt><trkpt lat="43.8709976" lon="11.1755861"><ele>130.2</ele><time>2026-03-23T17:02:19.961Z</time></trkpt><trkpt lat="43.8710805" lon="11.1756088"><ele>131.4</ele><time>2026-03-23T17:02:21.958Z</time></trkpt><trkpt lat="43.8711852" lon="11.1756479"><ele>132.6</ele><time>2026-03-23T17:02:23.959Z</time></trkpt><trkpt lat="43.8712546" lon="11.1756587"><ele>133.8</ele><time>2026-03-23T17:02:24.957Z</time></trkpt><trkpt lat="43.8713533" lon="11.1756526"><ele>135.0</ele><time>2026-03-23T17:02:26.959Z</time></trkpt><trkpt lat="43.8714637" lon="11.1756078"><ele>135.0</ele><time>2026-03-23T17:02:28.957Z</time></trkpt><trkpt lat="43.8715566" lon="11.1755537"><ele>135.0</ele><time>2026-03-23T17:02:30.953Z</time></trkpt><trkpt lat="43.8716506" lon="11.1755109"><ele>135.0</ele><time>2026-03-23T17:02:32.951Z</time></trkpt><trkpt lat="43.8717519" lon="11.1754659"><ele>135.0</ele><time>2026-03-23T17:02:34.952Z</time></trkpt><trkpt lat="43.8718483" lon="11.1754066"><ele>135.0</ele><time>2026-03-23T17:02:37.017Z</time></trkpt><trkpt lat="43.8719327" lon="11.1753459"><ele>137.6</ele><time>2026-03-23T17:02:38.948Z</time></trkpt><trkpt lat="43.8720084" lon="11.1752826"><ele>140.2</ele><time>2026-03-23T17:02:40.949Z</time></trkpt><trkpt lat="43.8720928" lon="11.1752221"><ele>142.8</ele><time>2026-03-23T17:02:42.954Z</time></trkpt><trkpt lat="43.8721844" lon="11.1751672"><ele>145.4</ele><time>2026-03-23T17:02:45.027Z</time></trkpt><trkpt lat="43.8722684" lon="11.1751515"><ele>148.0</ele><time>2026-03-23T17:02:46.954Z</time></trkpt><trkpt lat="43.8723621" lon="11.1751954"><ele>148.0</ele><time>2026-03-23T17:02:48.967Z</time></trkpt><trkpt lat="43.8724342" lon="11.1752499"><ele>148.0</ele><time>2026-03-23T17:02:50.954Z</time></trkpt><trkpt lat="43.8724964" lon="11.1753092"><ele>148.0</ele><time>2026-03-23T17:02:52.96Z</time></trkpt><trkpt lat="43.8725583" lon="11.1753668"><ele>148.0</ele><time>2026-03-23T17:02:54.953Z</time></trkpt><trkpt lat="43.8726258" lon="11.1754302"><ele>148.0</ele><time>2026-03-23T17:02:57.052Z</time></trkpt><trkpt lat="43.8727001" lon="11.1755003"><ele>148.0</ele><time>2026-03-23T17:02:59.017Z</time></trkpt><trkpt lat="43.8727744" lon="11.1755722"><ele>147.83333333333334</ele><time>2026-03-23T17:03:00.962Z</time></trkpt><trkpt lat="43.8728544" lon="11.175643"><ele>147.66666666666669</ele><time>2026-03-23T17:03:03.956Z</time></trkpt><trkpt lat="43.8729124" lon="11.1756889"><ele>147.5</ele><time>2026-03-23T17:03:05.947Z</time></trkpt><trkpt lat="43.8729574" lon="11.1757523"><ele>147.33333333333334</ele><time>2026-03-23T17:03:09.038Z</time></trkpt><trkpt lat="43.8729522" lon="11.1758449"><ele>147.16666666666666</ele><time>2026-03-23T17:03:20.966Z</time></trkpt><trkpt lat="43.8730312" lon="11.1758678"><ele>147.0</ele><time>2026-03-23T17:03:57.966Z</time></trkpt><trkpt lat="43.8731174" lon="11.1759481"><ele>148.33333333333334</ele><time>2026-03-23T17:04:00.979Z</time></trkpt><trkpt lat="43.8731864" lon="11.1759657"><ele>149.66666666666666</ele><time>2026-03-23T17:04:02.953Z</time></trkpt><trkpt lat="43.8732593" lon="11.1759835"><ele>151.0</ele><time>2026-03-23T17:04:04.959Z</time></trkpt><trkpt lat="43.8733408" lon="11.1760205"><ele>152.33333333333331</ele><time>2026-03-23T17:04:07.024Z</time></trkpt><trkpt lat="43.8734153" lon="11.1760681"><ele>153.66666666666666</ele><time>2026-03-23T17:04:08.965Z</time></trkpt><trkpt lat="43.8735243" lon="11.1761754"><ele>155.0</ele><time>2026-03-23T17:04:10.948Z</time></trkpt><trkpt lat="43.8735762" lon="11.1762408"><ele>155.0</ele><time>2026-03-23T17:04:11.952Z</time></trkpt><trkpt lat="43.8736194" lon="11.1763711"><ele>155.0</ele><time>2026-03-23T17:04:13.96Z</time></trkpt><trkpt lat="43.8736348" lon="11.1764693"><ele>155.0</ele><time>2026-03-23T17:04:15.963Z</time></trkpt><trkpt lat="43.873616" lon="11.1765878"><ele>155.0</ele><time>2026-03-23T17:04:19.046Z</time></trkpt><trkpt lat="43.8735606" lon="11.17664"><ele>155.0</ele><time>2026-03-23T17:04:20.959Z</time></trkpt><trkpt lat="43.873488" lon="11.1766847"><ele>155.0</ele><time>2026-03-23T17:04:23.957Z</time></trkpt><trkpt lat="43.8734258" lon="11.1767379"><ele>158.33333333333331</ele><time>2026-03-23T17:04:26.985Z</time></trkpt><trkpt lat="43.8733775" lon="11.1767996"><ele>161.66666666666666</ele><time>2026-03-23T17:04:29.952Z</time></trkpt><trkpt lat="43.8734099" lon="11.1769013"><ele>165.0</ele><time>2026-03-23T17:04:33.957Z</time></trkpt><trkpt lat="43.8734444" lon="11.1769818"><ele>168.33333333333334</ele><time>2026-03-23T17:04:36.958Z</time></trkpt><trkpt lat="43.8735104" lon="11.1770331"><ele>171.66666666666669</ele><time>2026-03-23T17:04:39.956Z</time></trkpt><trkpt lat="43.8735843" lon="11.1770678"><ele>175.0</ele><time>2026-03-23T17:04:42.954Z</time></trkpt><trkpt lat="43.8736378" lon="11.1771782"><ele>175.0</ele><time>2026-03-23T17:04:45.957Z</time></trkpt><trkpt lat="43.8736489" lon="11.1772784"><ele>175.0</ele><time>2026-03-23T17:04:49.02Z</time></trkpt><trkpt lat="43.8736414" lon="11.1773844"><ele>175.0</ele><time>2026-03-23T17:04:52.96Z</time></trkpt><trkpt lat="43.8735857" lon="11.1774455"><ele>175.0</ele><time>2026-03-23T17:04:55.957Z</time></trkpt><trkpt lat="43.8735149" lon="11.1774415"><ele>175.0</ele><time>2026-03-23T17:04:57.958Z</time></trkpt><trkpt lat="43.8734458" lon="11.1774288"><ele>175.0</ele><time>2026-03-23T17:04:59.962Z</time></trkpt><trkpt lat="43.8733939" lon="11.1774957"><ele>175.0</ele><time>2026-03-23T17:05:02.958Z</time></trkpt><trkpt lat="43.8733657" lon="11.1775821"><ele>177.57142857142858</ele><time>2026-03-23T17:05:05.95Z</time></trkpt><trkpt lat="43.873348" lon="11.1776903"><ele>180.14285714285714</ele><time>2026-03-23T17:05:09.959Z</time></trkpt><trkpt lat="43.8733549" lon="11.1777778"><ele>182.71428571428572</ele><time>2026-03-23T17:05:12.955Z</time></trkpt><trkpt lat="43.8733953" lon="11.1778449"><ele>185.28571428571428</ele><time>2026-03-23T17:05:15.961Z</time></trkpt><trkpt lat="43.8734676" lon="11.1779304"><ele>187.85714285714286</ele><time>2026-03-23T17:05:19.016Z</time></trkpt><trkpt lat="43.8735175" lon="11.1779951"><ele>190.42857142857144</ele><time>2026-03-23T17:05:21.038Z</time></trkpt><trkpt lat="43.8735634" lon="11.1780565"><ele>193.0</ele><time>2026-03-23T17:05:22.956Z</time></trkpt><trkpt lat="43.8736344" lon="11.1781337"><ele>195.99999999999997</ele><time>2026-03-23T17:05:25.955Z</time></trkpt><trkpt lat="43.8736534" lon="11.1782593"><ele>199.0</ele><time>2026-03-23T17:05:28.96Z</time></trkpt><trkpt lat="43.8736632" lon="11.178372"><ele>202.0</ele><time>2026-03-23T17:05:30.96Z</time></trkpt><trkpt lat="43.8736589" lon="11.1784792"><ele>205.0</ele><time>2026-03-23T17:05:32.959Z</time></trkpt><trkpt lat="43.8735901" lon="11.1784714"><ele>207.99999999999997</ele><time>2026-03-23T17:05:48.954Z</time></trkpt><trkpt lat="43.8735244" lon="11.1784972"><ele>211.0</ele><time>2026-03-23T17:06:04.961Z</time></trkpt><trkpt lat="43.8734636" lon="11.1785397"><ele>211.0</ele><time>2026-03-23T17:06:08.954Z</time></trkpt><trkpt lat="43.8735272" lon="11.1785666"><ele>211.0</ele><time>2026-03-23T17:06:16.956Z</time></trkpt><trkpt lat="43.8735916" lon="11.1785213"><ele>211.0</ele><time>2026-03-23T17:06:19.952Z</time></trkpt><trkpt lat="43.8736555" lon="11.1785155"><ele>211.0</ele><time>2026-03-23T17:06:21.961Z</time></trkpt><trkpt lat="43.8737117" lon="11.1785734"><ele>211.0</ele><time>2026-03-23T17:06:22.958Z</time></trkpt><trkpt lat="43.8737639" lon="11.178632"><ele>211.0</ele><time>2026-03-23T17:06:23.956Z</time></trkpt><trkpt lat="43.8738117" lon="11.1786895"><ele>211.0</ele><time>2026-03-23T17:06:24.957Z</time></trkpt><trkpt lat="43.8739061" lon="11.1787971"><ele>211.0</ele><time>2026-03-23T17:06:26.947Z</time></trkpt><trkpt lat="43.8739911" lon="11.1789095"><ele>211.0</ele><time>2026-03-23T17:06:28.958Z</time></trkpt><trkpt lat="43.8740728" lon="11.1790299"><ele>211.0</ele><time>2026-03-23T17:06:30.952Z</time></trkpt><trkpt lat="43.8741623" lon="11.1791216"><ele>211.0</ele><time>2026-03-23T17:06:32.956Z</time></trkpt><trkpt lat="43.8742092" lon="11.1792106"><ele>211.0</ele><time>2026-03-23T17:06:34.958Z</time></trkpt><trkpt lat="43.8741672" lon="11.179327"><ele>213.49999999999997</ele><time>2026-03-23T17:06:37.958Z</time></trkpt><trkpt lat="43.87413" lon="11.1794342"><ele>216.0</ele><time>2026-03-23T17:06:39.963Z</time></trkpt><trkpt lat="43.8740962" lon="11.1795521"><ele>218.5</ele><time>2026-03-23T17:06:41.959Z</time></trkpt><trkpt lat="43.8740569" lon="11.179668"><ele>221.0</ele><time>2026-03-23T17:06:44.959Z</time></trkpt><trkpt lat="43.8740294" lon="11.1797553"><ele>223.49999999999997</ele><time>2026-03-23T17:06:46.958Z</time></trkpt><trkpt lat="43.8739922" lon="11.1798644"><ele>226.0</ele><time>2026-03-23T17:06:48.961Z</time></trkpt><trkpt lat="43.8739561" lon="11.1799992"><ele>227.60000000000002</ele><time>2026-03-23T17:06:50.956Z</time></trkpt><trkpt lat="43.8739478" lon="11.1800976"><ele>229.20000000000002</ele><time>2026-03-23T17:06:51.958Z</time></trkpt><trkpt lat="43.8739406" lon="11.1802414"><ele>230.79999999999998</ele><time>2026-03-23T17:06:53.956Z</time></trkpt><trkpt lat="43.8739217" lon="11.1803687"><ele>232.39999999999998</ele><time>2026-03-23T17:06:55.956Z</time></trkpt><trkpt lat="43.8739027" lon="11.1805075"><ele>234.0</ele><time>2026-03-23T17:06:57.954Z</time></trkpt><trkpt lat="43.8738387" lon="11.1806495"><ele>234.71428571428572</ele><time>2026-03-23T17:06:59.959Z</time></trkpt><trkpt lat="43.8737915" lon="11.1807169"><ele>235.42857142857144</ele><time>2026-03-23T17:07:00.952Z</time></trkpt><trkpt lat="43.8737357" lon="11.1807814"><ele>236.14285714285717</ele><time>2026-03-23T17:07:01.953Z</time></trkpt><trkpt lat="43.873678" lon="11.1808418"><ele>236.8571428571429</ele><time>2026-03-23T17:07:02.957Z</time></trkpt><trkpt lat="43.8736205" lon="11.180901"><ele>237.57142857142858</ele><time>2026-03-23T17:07:03.96Z</time></trkpt><trkpt lat="43.8735729" lon="11.1809643"><ele>238.28571428571433</ele><time>2026-03-23T17:07:04.964Z</time></trkpt><trkpt lat="43.8735239" lon="11.1810245"><ele>239.00000000000003</ele><time>2026-03-23T17:07:05.957Z</time></trkpt><trkpt lat="43.8734676" lon="11.1810718"><ele>236.83333333333334</ele><time>2026-03-23T17:07:06.962Z</time></trkpt><trkpt lat="43.8734146" lon="11.1811252"><ele>234.66666666666669</ele><time>2026-03-23T17:07:07.955Z</time></trkpt><trkpt lat="43.8733549" lon="11.1812058"><ele>232.5</ele><time>2026-03-23T17:07:08.959Z</time></trkpt><trkpt lat="43.8733086" lon="11.1812765"><ele>230.33333333333331</ele><time>2026-03-23T17:07:09.953Z</time></trkpt><trkpt lat="43.8732614" lon="11.1813501"><ele>228.16666666666666</ele><time>2026-03-23T17:07:10.95Z</time></trkpt><trkpt lat="43.8732015" lon="11.1814288"><ele>226.0</ele><time>2026-03-23T17:07:11.955Z</time></trkpt><trkpt lat="43.8731187" lon="11.1815489"><ele>225.99999999999997</ele><time>2026-03-23T17:07:13.959Z</time></trkpt><trkpt lat="43.8730684" lon="11.1816421"><ele>226.0</ele><time>2026-03-23T17:07:15.96Z</time></trkpt><trkpt lat="43.8730463" lon="11.1817379"><ele>226.0</ele><time>2026-03-23T17:07:17.957Z</time></trkpt><trkpt lat="43.8730261" lon="11.1818479"><ele>226.0</ele><time>2026-03-23T17:07:20.958Z</time></trkpt><trkpt lat="43.8729564" lon="11.181937"><ele>225.99999999999997</ele><time>2026-03-23T17:07:23.958Z</time></trkpt><trkpt lat="43.8728885" lon="11.1820315"><ele>226.0</ele><time>2026-03-23T17:07:25.959Z</time></trkpt><trkpt lat="43.872811" lon="11.1821382"><ele>226.0</ele><time>2026-03-23T17:07:27.945Z</time></trkpt><trkpt lat="43.8727328" lon="11.1822151"><ele>226.00000000000003</ele><time>2026-03-23T17:07:29.956Z</time></trkpt><trkpt lat="43.8726636" lon="11.182286"><ele>226.00000000000003</ele><time>2026-03-23T17:07:31.957Z</time></trkpt><trkpt lat="43.8725834" lon="11.1823231"><ele>226.0</ele><time>2026-03-23T17:07:33.95Z</time></trkpt><trkpt lat="43.872462" lon="11.1823519"><ele>226.0</ele><time>2026-03-23T17:07:35.959Z</time></trkpt><trkpt lat="43.8723878" lon="11.1823735"><ele>224.4</ele><time>2026-03-23T17:07:36.957Z</time></trkpt><trkpt lat="43.8723223" lon="11.1823906"><ele>222.8</ele><time>2026-03-23T17:07:37.959Z</time></trkpt><trkpt lat="43.8721958" lon="11.1824067"><ele>221.20000000000002</ele><time>2026-03-23T17:07:39.955Z</time></trkpt><trkpt lat="43.8720813" lon="11.1824573"><ele>219.60000000000002</ele><time>2026-03-23T17:07:41.958Z</time></trkpt><trkpt lat="43.871994" lon="11.1824906"><ele>218.0</ele><time>2026-03-23T17:07:42.96Z</time></trkpt><trkpt lat="43.8719214" lon="11.1825015"><ele>218.0</ele><time>2026-03-23T17:07:43.956Z</time></trkpt><trkpt lat="43.871806" lon="11.1825087"><ele>218.0</ele><time>2026-03-23T17:07:46.026Z</time></trkpt><trkpt lat="43.8717037" lon="11.1825265"><ele>218.0</ele><time>2026-03-23T17:07:47.956Z</time></trkpt><trkpt lat="43.8716042" lon="11.1825434"><ele>218.0</ele><time>2026-03-23T17:07:49.953Z</time></trkpt><trkpt lat="43.8715068" lon="11.1825712"><ele>218.0</ele><time>2026-03-23T17:07:51.959Z</time></trkpt><trkpt lat="43.871426" lon="11.182618"><ele>216.16666666666669</ele><time>2026-03-23T17:07:53.951Z</time></trkpt><trkpt lat="43.8713504" lon="11.1826583"><ele>214.33333333333334</ele><time>2026-03-23T17:07:56.049Z</time></trkpt><trkpt lat="43.8712761" lon="11.182718"><ele>212.5</ele><time>2026-03-23T17:07:57.959Z</time></trkpt><trkpt lat="43.871219" lon="11.1827977"><ele>210.66666666666669</ele><time>2026-03-23T17:07:59.948Z</time></trkpt><trkpt lat="43.8711776" lon="11.1828807"><ele>208.83333333333334</ele><time>2026-03-23T17:08:01.956Z</time></trkpt><trkpt lat="43.8711334" lon="11.182949"><ele>207.0</ele><time>2026-03-23T17:08:04.025Z</time></trkpt><trkpt lat="43.8710662" lon="11.1830037"><ele>207.0</ele><time>2026-03-23T17:08:06.034Z</time></trkpt><trkpt lat="43.8709912" lon="11.1830505"><ele>207.0</ele><time>2026-03-23T17:08:07.966Z</time></trkpt><trkpt lat="43.8709077" lon="11.1830182"><ele>207.0</ele><time>2026-03-23T17:08:09.955Z</time></trkpt><trkpt lat="43.8708329" lon="11.1829536"><ele>207.0</ele><time>2026-03-23T17:08:11.962Z</time></trkpt><trkpt lat="43.8707652" lon="11.1828902"><ele>207.0</ele><time>2026-03-23T17:08:13.961Z</time></trkpt><trkpt lat="43.8706888" lon="11.1828228"><ele>207.0</ele><time>2026-03-23T17:08:15.958Z</time></trkpt><trkpt lat="43.8706183" lon="11.1827538"><ele>204.0</ele><time>2026-03-23T17:08:17.96Z</time></trkpt><trkpt lat="43.8705393" lon="11.1826874"><ele>201.0</ele><time>2026-03-23T17:08:19.949Z</time></trkpt><trkpt lat="43.8704569" lon="11.1826035"><ele>198.0</ele><time>2026-03-23T17:08:21.951Z</time></trkpt><trkpt lat="43.8703855" lon="11.1824939"><ele>195.0</ele><time>2026-03-23T17:08:24.034Z</time></trkpt><trkpt lat="43.8703098" lon="11.1823788"><ele>192.0</ele><time>2026-03-23T17:08:26.037Z</time></trkpt><trkpt lat="43.8702388" lon="11.1822616"><ele>189.6</ele><time>2026-03-23T17:08:27.958Z</time></trkpt><trkpt lat="43.8701997" lon="11.1821767"><ele>187.2</ele><time>2026-03-23T17:08:29.959Z</time></trkpt><trkpt lat="43.8701162" lon="11.182119"><ele>184.8</ele><time>2026-03-23T17:08:32.954Z</time></trkpt><trkpt lat="43.8700177" lon="11.1821144"><ele>182.4</ele><time>2026-03-23T17:08:34.981Z</time></trkpt><trkpt lat="43.8699486" lon="11.1821273"><ele>180.0</ele><time>2026-03-23T17:08:36.045Z</time></trkpt><trkpt lat="43.869823" lon="11.1821514"><ele>178.8</ele><time>2026-03-23T17:08:37.954Z</time></trkpt><trkpt lat="43.8697276" lon="11.1822101"><ele>177.6</ele><time>2026-03-23T17:08:39.95Z</time></trkpt><trkpt lat="43.8696188" lon="11.1822839"><ele>176.39999999999998</ele><time>2026-03-23T17:08:41.953Z</time></trkpt><trkpt lat="43.8695652" lon="11.1823334"><ele>175.2</ele><time>2026-03-23T17:08:42.95Z</time></trkpt><trkpt lat="43.8695062" lon="11.1824423"><ele>174.0</ele><time>2026-03-23T17:08:45.036Z</time></trkpt><trkpt lat="43.8694577" lon="11.1825688"><ele>174.0</ele><time>2026-03-23T17:08:46.961Z</time></trkpt><trkpt lat="43.8694125" lon="11.1826663"><ele>174.0</ele><time>2026-03-23T17:08:49.96Z</time></trkpt><trkpt lat="43.8694033" lon="11.1827737"><ele>174.0</ele><time>2026-03-23T17:08:53.954Z</time></trkpt><trkpt lat="43.869452" lon="11.1828555"><ele>174.0</ele><time>2026-03-23T17:08:58.963Z</time></trkpt><trkpt lat="43.8694993" lon="11.1829569"><ele>174.0</ele><time>2026-03-23T17:09:02.965Z</time></trkpt><trkpt lat="43.8695245" lon="11.1830381"><ele>174.0</ele><time>2026-03-23T17:09:05.036Z</time></trkpt><trkpt lat="43.8695556" lon="11.183125"><ele>173.0</ele><time>2026-03-23T17:09:06.954Z</time></trkpt><trkpt lat="43.8695989" lon="11.1832182"><ele>172.0</ele><time>2026-03-23T17:09:09.952Z</time></trkpt><trkpt lat="43.8696362" lon="11.1832957"><ele>171.0</ele><time>2026-03-23T17:09:11.962Z</time></trkpt><trkpt lat="43.8696809" lon="11.1834032"><ele>170.0</ele><time>2026-03-23T17:09:22.961Z</time></trkpt><trkpt lat="43.8696728" lon="11.1835039"><ele>169.0</ele><time>2026-03-23T17:09:27.957Z</time></trkpt><trkpt lat="43.8696182" lon="11.1835704"><ele>168.0</ele><time>2026-03-23T17:09:31.957Z</time></trkpt><trkpt lat="43.8695509" lon="11.1836636"><ele>168.0</ele><time>2026-03-23T17:09:36.947Z</time></trkpt><trkpt lat="43.8694942" lon="11.1837635"><ele>168.0</ele><time>2026-03-23T17:09:39.953Z</time></trkpt><trkpt lat="43.8694502" lon="11.1838554"><ele>168.0</ele><time>2026-03-23T17:09:41.95Z</time></trkpt><trkpt lat="43.8694021" lon="11.1839547"><ele>168.0</ele><time>2026-03-23T17:09:43.949Z</time></trkpt><trkpt lat="43.8693694" lon="11.1840449"><ele>168.0</ele><time>2026-03-23T17:09:46.039Z</time></trkpt><trkpt lat="43.8693501" lon="11.1841339"><ele>168.0</ele><time>2026-03-23T17:09:47.951Z</time></trkpt><trkpt lat="43.8693463" lon="11.1842255"><ele>168.83333333333334</ele><time>2026-03-23T17:09:49.948Z</time></trkpt><trkpt lat="43.8693385" lon="11.1843288"><ele>169.66666666666666</ele><time>2026-03-23T17:09:51.958Z</time></trkpt><trkpt lat="43.8693313" lon="11.1844359"><ele>170.5</ele><time>2026-03-23T17:09:54.027Z</time></trkpt><trkpt lat="43.8693352" lon="11.1845481"><ele>171.33333333333331</ele><time>2026-03-23T17:09:56.048Z</time></trkpt><trkpt lat="43.8693485" lon="11.1846419"><ele>172.16666666666666</ele><time>2026-03-23T17:09:57.987Z</time></trkpt><trkpt lat="43.8693769" lon="11.1847444"><ele>173.0</ele><time>2026-03-23T17:10:00.975Z</time></trkpt><trkpt lat="43.869401" lon="11.1848433"><ele>173.83333333333331</ele><time>2026-03-23T17:10:03.982Z</time></trkpt><trkpt lat="43.8694447" lon="11.1849592"><ele>174.66666666666666</ele><time>2026-03-23T17:10:06.992Z</time></trkpt><trkpt lat="43.8694704" lon="11.1850506"><ele>175.5</ele><time>2026-03-23T17:10:09.984Z</time></trkpt><trkpt lat="43.8694915" lon="11.1851338"><ele>176.33333333333334</ele><time>2026-03-23T17:10:12.976Z</time></trkpt><trkpt lat="43.8694377" lon="11.1852581"><ele>177.16666666666669</ele><time>2026-03-23T17:10:21.987Z</time></trkpt><trkpt lat="43.8693851" lon="11.1853338"><ele>178.0</ele><time>2026-03-23T17:10:26.983Z</time></trkpt><trkpt lat="43.8692794" lon="11.1853355"><ele>174.16666666666669</ele><time>2026-03-23T17:10:31.989Z</time></trkpt><trkpt lat="43.8692144" lon="11.1853516"><ele>170.33333333333334</ele><time>2026-03-23T17:10:33.99Z</time></trkpt><trkpt lat="43.8691368" lon="11.185332"><ele>166.5</ele><time>2026-03-23T17:10:35.989Z</time></trkpt><trkpt lat="43.8690562" lon="11.1853512"><ele>162.66666666666666</ele><time>2026-03-23T17:10:37.981Z</time></trkpt><trkpt lat="43.8689662" lon="11.1853735"><ele>158.83333333333331</ele><time>2026-03-23T17:10:39.998Z</time></trkpt><trkpt lat="43.8688949" lon="11.1853944"><ele>155.0</ele><time>2026-03-23T17:10:41.989Z</time></trkpt><trkpt lat="43.8688101" lon="11.1854045"><ele>155.0</ele><time>2026-03-23T17:10:44.987Z</time></trkpt><trkpt lat="43.8687405" lon="11.1853966"><ele>155.0</ele><time>2026-03-23T17:10:46.991Z</time></trkpt><trkpt lat="43.8686573" lon="11.1853768"><ele>155.0</ele><time>2026-03-23T17:10:48.976Z</time></trkpt><trkpt lat="43.8685751" lon="11.1853688"><ele>155.0</ele><time>2026-03-23T17:10:50.991Z</time></trkpt><trkpt lat="43.8684963" lon="11.1853724"><ele>155.0</ele><time>2026-03-23T17:10:52.997Z</time></trkpt><trkpt lat="43.8684066" lon="11.185382"><ele>155.0</ele><time>2026-03-23T17:10:54.989Z</time></trkpt><trkpt lat="43.8682673" lon="11.1853712"><ele>152.2</ele><time>2026-03-23T17:10:56.992Z</time></trkpt><trkpt lat="43.8681894" lon="11.1853806"><ele>149.4</ele><time>2026-03-23T17:10:57.997Z</time></trkpt><trkpt lat="43.8680847" lon="11.1853739"><ele>146.6</ele><time>2026-03-23T17:10:58.986Z</time></trkpt><trkpt lat="43.8679796" lon="11.185412"><ele>143.8</ele><time>2026-03-23T17:10:59.987Z</time></trkpt><trkpt lat="43.8678559" lon="11.1854371"><ele>141.0</ele><time>2026-03-23T17:11:00.989Z</time></trkpt><trkpt lat="43.867542" lon="11.1855318"><ele>139.8</ele><time>2026-03-23T17:11:03.974Z</time></trkpt><trkpt lat="43.8673701" lon="11.1855428"><ele>138.6</ele><time>2026-03-23T17:11:05.979Z</time></trkpt><trkpt lat="43.8672808" lon="11.1855033"><ele>137.4</ele><time>2026-03-23T17:11:06.975Z</time></trkpt><trkpt lat="43.8671884" lon="11.1854858"><ele>136.2</ele><time>2026-03-23T17:11:07.973Z</time></trkpt><trkpt lat="43.8671122" lon="11.1854442"><ele>135.0</ele><time>2026-03-23T17:11:08.979Z</time></trkpt><trkpt lat="43.8670959" lon="11.185321"><ele>135.0</ele><time>2026-03-23T17:11:09.978Z</time></trkpt><trkpt lat="43.8670201" lon="11.1851999"><ele>135.0</ele><time>2026-03-23T17:11:12.048Z</time></trkpt><trkpt lat="43.8669226" lon="11.1851038"><ele>135.0</ele><time>2026-03-23T17:11:13.981Z</time></trkpt><trkpt lat="43.8668314" lon="11.1851029"><ele>135.0</ele><time>2026-03-23T17:11:14.988Z</time></trkpt><trkpt lat="43.8667314" lon="11.1851081"><ele>135.0</ele><time>2026-03-23T17:11:15.982Z</time></trkpt><trkpt lat="43.8666328" lon="11.1851206"><ele>133.0</ele><time>2026-03-23T17:11:16.989Z</time></trkpt><trkpt lat="43.866546" lon="11.1851258"><ele>131.0</ele><time>2026-03-23T17:11:17.984Z</time></trkpt><trkpt lat="43.866465" lon="11.185122"><ele>129.0</ele><time>2026-03-23T17:11:18.985Z</time></trkpt><trkpt lat="43.8663535" lon="11.185143"><ele>127.0</ele><time>2026-03-23T17:11:20.989Z</time></trkpt><trkpt lat="43.8662995" lon="11.1852379"><ele>125.0</ele><time>2026-03-23T17:11:22.99Z</time></trkpt><trkpt lat="43.8662683" lon="11.1853898"><ele>125.0</ele><time>2026-03-23T17:11:25.047Z</time></trkpt><trkpt lat="43.8662577" lon="11.1855508"><ele>125.0</ele><time>2026-03-23T17:11:26.989Z</time></trkpt><trkpt lat="43.8662468" lon="11.1857054"><ele>125.0</ele><time>2026-03-23T17:11:28.989Z</time></trkpt><trkpt lat="43.8662227" lon="11.1858845"><ele>125.0</ele><time>2026-03-23T17:11:30.984Z</time></trkpt><trkpt lat="43.866209" lon="11.1859871"><ele>125.0</ele><time>2026-03-23T17:11:31.983Z</time></trkpt><trkpt lat="43.8662007" lon="11.1860982"><ele>125.99999999999999</ele><time>2026-03-23T17:11:32.986Z</time></trkpt><trkpt lat="43.8661979" lon="11.1861982"><ele>127.0</ele><time>2026-03-23T17:11:33.984Z</time></trkpt><trkpt lat="43.8661953" lon="11.1862943"><ele>128.0</ele><time>2026-03-23T17:11:34.988Z</time></trkpt><trkpt lat="43.8661906" lon="11.1863873"><ele>129.0</ele><time>2026-03-23T17:11:35.987Z</time></trkpt><trkpt lat="43.8661821" lon="11.1864754"><ele>130.0</ele><time>2026-03-23T17:11:36.982Z</time></trkpt><trkpt lat="43.8661731" lon="11.1866523"><ele>131.0</ele><time>2026-03-23T17:11:38.985Z</time></trkpt><trkpt lat="43.8661851" lon="11.1868198"><ele>131.0</ele><time>2026-03-23T17:11:40.992Z</time></trkpt><trkpt lat="43.8661876" lon="11.186911"><ele>131.0</ele><time>2026-03-23T17:11:41.984Z</time></trkpt><trkpt lat="43.8661614" lon="11.1870601"><ele>131.0</ele><time>2026-03-23T17:11:43.991Z</time></trkpt><trkpt lat="43.8660751" lon="11.18719"><ele>131.0</ele><time>2026-03-23T17:11:45.99Z</time></trkpt><trkpt lat="43.866026" lon="11.1872528"><ele>131.0</ele><time>2026-03-23T17:11:47.029Z</time></trkpt><trkpt lat="43.8659791" lon="11.1873189"><ele>131.0</ele><time>2026-03-23T17:11:47.951Z</time></trkpt><trkpt lat="43.8659257" lon="11.1873848"><ele>128.5</ele><time>2026-03-23T17:11:48.95Z</time></trkpt><trkpt lat="43.8658458" lon="11.187507"><ele>126.0</ele><time>2026-03-23T17:11:50.951Z</time></trkpt><trkpt lat="43.8658214" lon="11.1876023"><ele>123.5</ele><time>2026-03-23T17:11:51.948Z</time></trkpt><trkpt lat="43.8657972" lon="11.1876986"><ele>121.0</ele><time>2026-03-23T17:11:52.958Z</time></trkpt><trkpt lat="43.8657731" lon="11.1877838"><ele>118.49999999999999</ele><time>2026-03-23T17:11:53.953Z</time></trkpt><trkpt lat="43.8657493" lon="11.1878665"><ele>116.0</ele><time>2026-03-23T17:11:54.949Z</time></trkpt><trkpt lat="43.865721" lon="11.1880169"><ele>115.99999999999999</ele><time>2026-03-23T17:11:57.027Z</time></trkpt><trkpt lat="43.8656588" lon="11.1880913"><ele>116.0</ele><time>2026-03-23T17:11:58.954Z</time></trkpt><trkpt lat="43.8655606" lon="11.1880675"><ele>116.0</ele><time>2026-03-23T17:12:00.954Z</time></trkpt><trkpt lat="43.8654934" lon="11.1880631"><ele>116.0</ele><time>2026-03-23T17:12:02.031Z</time></trkpt><trkpt lat="43.8654276" lon="11.1880812"><ele>115.99999999999999</ele><time>2026-03-23T17:12:02.952Z</time></trkpt><trkpt lat="43.8653457" lon="11.1881287"><ele>116.0</ele><time>2026-03-23T17:12:03.952Z</time></trkpt><trkpt lat="43.8652623" lon="11.1881589"><ele>115.66666666666666</ele><time>2026-03-23T17:12:04.954Z</time></trkpt><trkpt lat="43.8651742" lon="11.1881949"><ele>115.33333333333333</ele><time>2026-03-23T17:12:05.957Z</time></trkpt><trkpt lat="43.8650948" lon="11.1882281"><ele>115.0</ele><time>2026-03-23T17:12:06.962Z</time></trkpt><trkpt lat="43.864989" lon="11.1882845"><ele>114.66666666666666</ele><time>2026-03-23T17:12:08.953Z</time></trkpt><trkpt lat="43.8649034" lon="11.1883302"><ele>114.33333333333333</ele><time>2026-03-23T17:12:10.951Z</time></trkpt><trkpt lat="43.8648427" lon="11.1883724"><ele>114.0</ele><time>2026-03-23T17:12:11.958Z</time></trkpt><trkpt lat="43.8647752" lon="11.1884263"><ele>114.0</ele><time>2026-03-23T17:12:12.954Z</time></trkpt><trkpt lat="43.864698" lon="11.1884954"><ele>114.0</ele><time>2026-03-23T17:12:13.959Z</time></trkpt><trkpt lat="43.8646057" lon="11.1885575"><ele>114.0</ele><time>2026-03-23T17:12:14.94Z</time></trkpt><trkpt lat="43.8644956" lon="11.1885951"><ele>114.0</ele><time>2026-03-23T17:12:15.954Z</time></trkpt><trkpt lat="43.8643786" lon="11.1886214"><ele>114.0</ele><time>2026-03-23T17:12:16.948Z</time></trkpt><trkpt lat="43.8642523" lon="11.1886366"><ele>112.25</ele><time>2026-03-23T17:12:17.943Z</time></trkpt><trkpt lat="43.8641199" lon="11.1886654"><ele>110.5</ele><time>2026-03-23T17:12:18.962Z</time></trkpt><trkpt lat="43.8639857" lon="11.1887011"><ele>108.75</ele><time>2026-03-23T17:12:19.952Z</time></trkpt><trkpt lat="43.8638527" lon="11.1887404"><ele>107.0</ele><time>2026-03-23T17:12:20.946Z</time></trkpt><trkpt lat="43.8637289" lon="11.188769"><ele>107.0</ele><time>2026-03-23T17:12:21.955Z</time></trkpt><trkpt lat="43.8636143" lon="11.1887883"><ele>106.99999999999999</ele><time>2026-03-23T17:12:22.955Z</time></trkpt><trkpt lat="43.8635331" lon="11.1888036"><ele>106.99999999999999</ele><time>2026-03-23T17:12:23.953Z</time></trkpt><trkpt lat="43.8634476" lon="11.1888447"><ele>107.0</ele><time>2026-03-23T17:12:25.959Z</time></trkpt><trkpt lat="43.8634043" lon="11.1889258"><ele>107.0</ele><time>2026-03-23T17:12:27.941Z</time></trkpt><trkpt lat="43.8633698" lon="11.1890895"><ele>106.8</ele><time>2026-03-23T17:12:29.957Z</time></trkpt><trkpt lat="43.8633347" lon="11.1891631"><ele>106.6</ele><time>2026-03-23T17:12:30.953Z</time></trkpt><trkpt lat="43.8631993" lon="11.1892175"><ele>106.39999999999999</ele><time>2026-03-23T17:12:32.963Z</time></trkpt><trkpt lat="43.8630937" lon="11.1892016"><ele>106.19999999999999</ele><time>2026-03-23T17:12:33.95Z</time></trkpt><trkpt lat="43.8629844" lon="11.1891592"><ele>106.0</ele><time>2026-03-23T17:12:34.951Z</time></trkpt><trkpt lat="43.862871" lon="11.1891252"><ele>106.0</ele><time>2026-03-23T17:12:35.992Z</time></trkpt><trkpt lat="43.8627559" lon="11.1891"><ele>106.0</ele><time>2026-03-23T17:12:36.948Z</time></trkpt><trkpt lat="43.8626431" lon="11.189065"><ele>106.0</ele><time>2026-03-23T17:12:37.958Z</time></trkpt><trkpt lat="43.8625436" lon="11.1890201"><ele>106.0</ele><time>2026-03-23T17:12:38.949Z</time></trkpt><trkpt lat="43.8624508" lon="11.1889628"><ele>106.0</ele><time>2026-03-23T17:12:39.954Z</time></trkpt><trkpt lat="43.8623569" lon="11.1888927"><ele>106.0</ele><time>2026-03-23T17:12:40.953Z</time></trkpt><trkpt lat="43.8622676" lon="11.1887925"><ele>106.0</ele><time>2026-03-23T17:12:41.95Z</time></trkpt><trkpt lat="43.8621881" lon="11.1886718"><ele>106.0</ele><time>2026-03-23T17:12:42.952Z</time></trkpt><trkpt lat="43.8621287" lon="11.1885491"><ele>106.0</ele><time>2026-03-23T17:12:43.948Z</time></trkpt><trkpt lat="43.8620947" lon="11.188414"><ele>106.0</ele><time>2026-03-23T17:12:44.954Z</time></trkpt><trkpt lat="43.8620676" lon="11.1882663"><ele>106.0</ele><time>2026-03-23T17:12:45.952Z</time></trkpt><trkpt lat="43.8620389" lon="11.1881081"><ele>101.0</ele><time>2026-03-23T17:12:46.955Z</time></trkpt><trkpt lat="43.8619789" lon="11.1879504"><ele>101.0</ele><time>2026-03-23T17:12:47.954Z</time></trkpt><trkpt lat="43.8619113" lon="11.1877988"><ele>101.0</ele><time>2026-03-23T17:12:48.949Z</time></trkpt></trkseg></trk></gpx>